[[{"header":{"parameterUnit":"m.s-1","parameterCategory":1,"la1":31.0,"la2":29.5877,"lo1":-88.7671,"lo2":-86.6584,"dy":0.0162,"dx":0.0185,"nx":115,"ny":88,"refTime":"2026-05-17T12:00:00:Z","depth":0,"parameterNumber":2,"parameterNumberName":"U-component_of_WINDS"},"data":[0.0,0.0,0.0,0.0,0.0,0.0,0.0,0.0,0.0,0.0,0.0,0.0,0.0,0.0,0.0,0.0,0.0,0.0,0.0,0.0,0.0,0.0,0.0,0.0,0.0,0.0,0.0,0.0,0.0,0.0,0.0,0.0,0.0,0.0,0.0,0.0,0.0,0.0,0.0,0.0,0.0,0.0,0.0,0.0,0.0,0.0,0.0,0.0,0.0,0.0,0.0,0.0,0.0,0.0,0.0,0.0,0.0,0.0,0.0,0.0,0.0,0.0,0.0,0.0,0.0,0.0,0.0,0.0,0.0,0.0,0.0,0.0,0.0,0.0,0.0,0.0,0.0,0.0,0.0,0.0,0.0,0.0,0.0,0.0,0.0,0.0,0.0,0.0,0.0,0.0,0.0,0.0,0.0,0.0,0.0,0.0,0.0,0.0,0.0,0.0,0.0,0.0,0.0,0.0,0.0,0.0,0.0,0.0,0.0,0.0,0.0,0.0,0.0,0.0,0.0,0.0,0.0,0.0,0.0,0.0,0.0,0.0,0.0,0.0,0.0,0.0,0.0,0.0,0.0,0.0,0.0,0.0,0.0,0.0,0.0,0.0,0.0,0.0,0.0,0.0,0.0,0.0,0.0,0.0,0.0,0.0,0.0,0.0,0.0,0.0,0.0,0.0,0.0,0.0,0.0,0.0,0.0,0.0,0.0,0.0,0.0,0.0,0.0,0.0,0.0,0.0,0.0,0.0,0.0,0.0,0.0,0.0,0.0,0.0,0.0,0.0,0.0,0.0,0.0,0.0,0.0,0.0,0.0,0.0,0.0,0.0,0.0,0.0,0.0,0.0,0.0,0.0,0.0,0.0,0.0,0.0,0.0,0.0,0.0,0.0,0.0,0.0,0.0,0.0,0.0,0.0,0.0,0.0,0.0,0.0,0.0,0.0,0.0,0.0,0.0,0.0,0.0,0.0,0.0,0.0,0.0,0.0,0.0,0.0,0.0,0.0,0.0,0.0,0.0,0.0,0.0,0.0,0.0,0.0,0.0,0.0,0.0,0.0,0.0,0.0,0.0,0.0,0.0,0.0,0.0,0.0,0.0,0.0,0.0,0.0,0.0,0.0,0.0,0.0,0.0,0.0,0.0,0.0,0.0,0.0,0.0,0.0,0.0,0.0,0.0,0.0,0.0,0.0,0.0,0.0,0.0,0.0,0.0,0.0,0.0,0.0,0.0,0.0,0.0,0.0,0.0,0.0,0.0,0.0,0.0,0.0,0.0,0.0,0.0,0.0,0.0,0.0,0.0,0.0,0.0,0.0,0.0,0.0,0.0,0.0,0.0,0.0,0.0,0.0,0.0,0.0,0.0,0.0,0.0,0.0,0.0,0.0,0.0,0.0,0.0,0.0,0.0,0.0,0.0,0.0,0.0,0.0,0.0,0.0,0.0,0.0,0.0,0.0,0.0,0.0,0.0,0.0,0.0,0.0,0.0,0.0,0.0,0.0,0.0,0.0,0.0,0.0,0.0,0.0,0.0,0.0,0.0,0.0,0.0,0.0,0.0,0.0,0.0,0.0,0.0,0.0,0.0,0.0,0.0,0.0,0.0,0.0,0.0,0.0,0.0,0.0,0.0,0.0,0.0,0.0,0.0,0.0,0.0,0.0,0.0,0.0,0.0,0.0,0.0,0.0,0.0,0.0,0.0,0.0,0.0,0.0,0.0,0.0,0.0,0.0,0.0,0.0,0.0,0.0,0.0,0.0,0.0,0.0,0.0,0.0,0.0,0.0,0.0,0.0,0.0,0.0,0.0,0.0,0.0,0.0,0.0,0.0,0.0,0.0,0.0,0.0,0.0,0.0,0.0,0.0,0.0,0.0,0.0,0.0,0.0,0.0,0.0,0.0,0.0,0.0,0.0,0.0,0.0,0.0,0.0,0.0,0.0,0.0,0.0,0.0,0.0,0.0,0.0,0.0,0.0,0.0,0.0,0.0,0.0,0.0,0.0,0.0,0.0,0.0,0.0,0.0,0.0,0.0,0.0,0.0,0.0,0.0,0.0,0.0,0.0,0.0,0.0,0.0,0.0,0.0,0.0,0.0,0.0,0.0,0.0,0.0,0.0,0.0,0.0,0.0,0.0,0.0,0.0,0.0,0.0,0.0,0.0,0.0,0.0,0.0,0.0,0.0,0.0,0.0,0.0,0.0,0.0,0.0,0.0,0.0,0.0,0.0,0.0,0.0,0.0,0.0,0.0,0.0,0.0,0.0,0.0,0.0,0.0,0.0,0.0,0.0,0.0,0.0,0.0,0.0,0.0,0.0,0.0,0.0,0.0,0.0,0.0,0.0,0.0,0.0,0.0,0.0,0.0,0.0,0.0,0.0,0.0,0.0,0.0,0.0,0.0,0.0,0.0,0.0,0.0,0.0,0.0,0.0,0.0,0.0,0.0,0.0,0.0,0.0,0.0,0.0,0.0,0.0,0.0,0.0,0.0,0.0,0.0,0.0,0.0,0.0,0.0,0.0,0.0,0.0,0.0,0.0,0.0,0.0,0.0,0.0,0.0,0.0,0.0,0.0,0.0,0.0,0.0,0.0,0.0,0.0,0.0,0.0,0.0,0.0,0.0,0.0,0.0,0.0,0.0,0.0,0.0,0.0,0.0,0.0,0.0,0.0,0.0,0.0,0.0,0.0,0.0,0.0,0.0,0.0,0.0,0.0,0.0,0.0,0.0,0.0,0.0,0.0,0.0,0.0,0.0,0.0,0.0,0.0,0.0,0.0,0.0,0.0,0.0,0.0,0.0,0.0,0.0,0.0,0.0,0.0,0.0,0.0,0.0,0.0,0.0,0.0,0.0,0.0,0.0,0.0,0.0,0.0,0.0,0.0,0.0,0.0,0.0,0.0,0.0,0.0,0.0,0.0,0.0,0.0,0.0,0.0,0.0,0.0,0.0,0.0,0.0,0.0,0.0,0.0,0.0,0.0,0.0,0.0,0.0,0.0,0.0,0.0,0.0,0.0,0.0,0.0,0.0,0.0,0.0,0.0,0.0,0.0,0.0,0.0,0.0,0.0,0.0,0.0,0.0,0.0,0.0,0.0,0.0,0.0,0.0,0.0,0.0,0.0,0.0,0.0,0.0,0.0,0.0,0.0,0.0,0.0,0.0,0.0,0.0,0.0,0.0,0.0,0.0,0.0,0.0,0.0,0.0,0.0,0.0,0.0,0.0,0.0,0.0,0.0,0.0,0.0,0.0,0.0,0.0,0.0,0.0,0.0,0.0,0.0,0.0,0.0,0.0,0.0,0.0,0.0,0.0,0.0,0.0,0.0,0.0,0.0,0.0,0.0,0.0,0.0,0.0,0.0,0.0,0.0,0.0,0.0,0.0,0.0,0.0,0.0,0.0,0.0,0.0,0.0,0.0,0.0,0.0,0.0,0.0,0.0,0.0,0.0,0.0,0.0,0.0,0.0,0.0,0.0,0.0,0.0,0.0,0.0,0.0,0.0,0.0,0.0,0.0,0.0,0.0,0.0,0.0,0.0,0.0,0.0,0.0,0.0,0.0,0.0,0.0,0.0,0.0,0.0,0.0,0.0,0.0,0.0,0.0,0.0,0.0,0.0,0.0,0.0,0.0,0.0,0.0,0.0,0.0,0.0,0.0,0.0,0.0,0.0,0.0,0.0,0.0,0.0,0.0,0.0,0.0,0.0,0.0,0.0,0.0,0.0,0.0,0.0,0.0,0.0,0.0,0.0,0.0,0.0,0.0,0.0,0.0,0.0,0.0,0.0,0.0,0.0,0.0,0.0,0.0,0.0,0.0,0.0,0.0,0.0,0.0,0.0,0.0,0.0,0.0,0.0,0.0,0.0,0.0,0.0,0.0,0.0,0.0,0.0,0.0,0.0,0.0,0.0,0.0,0.0,0.0,0.0,0.0,0.0,0.0,0.0,0.0,0.0,0.0,0.0,0.0,0.0,0.0,0.0,0.0,0.0,0.0,0.0,0.0,0.0,0.0,0.0,0.0,0.0,0.0,0.0,0.0,0.0,0.0,0.0,0.0,0.0,0.0,0.0,0.0,0.0,0.0,0.0,0.0,0.0,0.0,0.0,0.0,0.0,0.0,0.0,0.0,0.0,0.0,0.0,0.0,0.0,0.0,0.0,0.0,0.0,0.0,0.0,0.0,0.0,0.0,0.0,0.0,0.0,0.0,0.0,0.0,0.0,0.0,0.0,0.0,0.0,0.0,0.0,0.0,0.0,0.0,0.0,0.0,0.0,0.0,0.0,-4.328,0.0,0.0,0.0,0.0,0.0,0.0,0.0,0.0,0.0,0.0,0.0,0.0,0.0,0.0,0.0,0.0,0.0,0.0,0.0,0.0,0.0,0.0,0.0,0.0,0.0,0.0,0.0,0.0,0.0,0.0,0.0,0.0,0.0,0.0,0.0,0.0,0.0,0.0,0.0,0.0,0.0,0.0,0.0,0.0,0.0,0.0,0.0,0.0,0.0,0.0,0.0,0.0,0.0,0.0,0.0,0.0,0.0,0.0,0.0,0.0,0.0,0.0,0.0,0.0,0.0,0.0,0.0,0.0,0.0,0.0,0.0,0.0,0.0,0.0,0.0,0.0,0.0,0.0,0.0,0.0,0.0,0.0,0.0,0.0,0.0,0.0,0.0,0.0,0.0,0.0,0.0,0.0,0.0,0.0,0.0,0.0,0.0,0.0,0.0,0.0,0.0,0.0,0.0,0.0,0.0,0.0,0.0,0.0,0.0,0.0,-4.777,-4.7511,-4.7651,-4.6569,-4.416,0.0,0.0,0.0,0.0,0.0,0.0,0.0,0.0,0.0,0.0,0.0,0.0,0.0,0.0,0.0,0.0,0.0,0.0,0.0,0.0,0.0,0.0,0.0,0.0,0.0,0.0,0.0,0.0,0.0,0.0,0.0,0.0,0.0,0.0,0.0,0.0,0.0,0.0,0.0,0.0,0.0,0.0,0.0,0.0,0.0,0.0,0.0,0.0,0.0,0.0,0.0,0.0,0.0,0.0,0.0,0.0,0.0,0.0,0.0,0.0,0.0,0.0,0.0,0.0,0.0,0.0,0.0,0.0,0.0,0.0,0.0,0.0,0.0,0.0,0.0,0.0,0.0,0.0,0.0,0.0,0.0,0.0,0.0,0.0,0.0,0.0,0.0,0.0,0.0,0.0,0.0,0.0,0.0,0.0,0.0,0.0,0.0,0.0,0.0,0.0,0.0,0.0,0.0,0.0,0.0,0.0,0.0,0.0,0.0,0.0,0.0,0.0,-4.9407,-4.7878,-4.4518,0.0,0.0,0.0,0.0,0.0,0.0,0.0,0.0,0.0,0.0,0.0,0.0,0.0,0.0,0.0,0.0,0.0,0.0,0.0,0.0,0.0,0.0,0.0,0.0,0.0,0.0,0.0,0.0,0.0,0.0,0.0,0.0,0.0,0.0,0.0,0.0,0.0,0.0,0.0,0.0,0.0,0.0,0.0,0.0,0.0,0.0,0.0,0.0,0.0,0.0,0.0,0.0,0.0,0.0,0.0,0.0,0.0,0.0,0.0,0.0,0.0,0.0,0.0,0.0,0.0,0.0,0.0,0.0,0.0,0.0,0.0,0.0,0.0,0.0,0.0,0.0,0.0,0.0,0.0,0.0,0.0,0.0,0.0,0.0,0.0,0.0,0.0,0.0,0.0,0.0,0.0,0.0,0.0,0.0,0.0,0.0,0.0,0.0,0.0,0.0,0.0,0.0,0.0,0.0,0.0,0.0,0.0,0.0,0.0,0.0,-4.9286,-5.0907,-5.1086,0.0,-4.3952,0.0,0.0,0.0,0.0,0.0,0.0,0.0,0.0,0.0,0.0,0.0,0.0,0.0,0.0,0.0,0.0,0.0,0.0,0.0,0.0,0.0,0.0,0.0,0.0,0.0,0.0,0.0,0.0,0.0,0.0,0.0,0.0,0.0,0.0,0.0,0.0,0.0,0.0,0.0,0.0,0.0,0.0,0.0,0.0,0.0,0.0,0.0,0.0,0.0,0.0,0.0,0.0,0.0,0.0,0.0,0.0,0.0,0.0,0.0,0.0,0.0,0.0,0.0,0.0,0.0,0.0,0.0,0.0,0.0,0.0,0.0,0.0,0.0,0.0,0.0,0.0,0.0,0.0,0.0,0.0,0.0,0.0,0.0,0.0,0.0,0.0,0.0,0.0,0.0,0.0,0.0,0.0,0.0,0.0,0.0,0.0,0.0,0.0,0.0,0.0,0.0,0.0,0.0,0.0,0.0,0.0,0.0,0.0,0.0,0.0,-5.0625,-5.1818,-5.0,-4.7262,0.0,0.0,0.0,0.0,0.0,0.0,0.0,0.0,0.0,0.0,0.0,0.0,0.0,0.0,0.0,0.0,0.0,0.0,0.0,0.0,0.0,0.0,0.0,0.0,0.0,0.0,0.0,0.0,0.0,0.0,0.0,0.0,0.0,0.0,0.0,0.0,0.0,0.0,0.0,0.0,0.0,0.0,0.0,0.0,0.0,0.0,0.0,0.0,0.0,0.0,0.0,0.0,0.0,0.0,0.0,0.0,0.0,0.0,0.0,0.0,0.0,0.0,0.0,0.0,0.0,0.0,0.0,0.0,0.0,0.0,0.0,0.0,0.0,0.0,0.0,0.0,0.0,0.0,0.0,0.0,0.0,0.0,0.0,0.0,0.0,0.0,0.0,0.0,0.0,0.0,0.0,0.0,0.0,0.0,0.0,0.0,0.0,0.0,0.0,0.0,0.0,0.0,0.0,0.0,0.0,0.0,0.0,0.0,0.0,0.0,-5.0552,-5.1533,-5.2233,-5.0234,-4.7295,-4.3637,0.0,0.0,0.0,0.0,0.0,0.0,0.0,0.0,0.0,0.0,0.0,0.0,0.0,0.0,0.0,0.0,0.0,0.0,0.0,0.0,0.0,0.0,0.0,0.0,0.0,0.0,0.0,0.0,0.0,0.0,0.0,0.0,0.0,0.0,0.0,0.0,0.0,0.0,0.0,0.0,0.0,0.0,0.0,0.0,0.0,0.0,0.0,0.0,0.0,0.0,0.0,0.0,0.0,0.0,0.0,0.0,0.0,0.0,0.0,0.0,0.0,0.0,0.0,0.0,0.0,0.0,0.0,0.0,0.0,0.0,0.0,0.0,0.0,0.0,0.0,0.0,0.0,0.0,0.0,0.0,0.0,0.0,0.0,0.0,0.0,0.0,0.0,0.0,0.0,0.0,0.0,0.0,0.0,0.0,0.0,0.0,0.0,0.0,0.0,0.0,0.0,0.0,0.0,0.0,0.0,0.0,0.0,0.0,-5.2655,-5.1729,-5.1616,-5.2694,-5.3075,-5.0228,0.0,0.0,0.0,0.0,0.0,0.0,0.0,0.0,0.0,0.0,0.0,0.0,0.0,0.0,0.0,0.0,0.0,0.0,0.0,0.0,0.0,0.0,0.0,0.0,0.0,0.0,0.0,0.0,0.0,0.0,0.0,0.0,0.0,0.0,0.0,0.0,0.0,0.0,0.0,0.0,0.0,0.0,0.0,0.0,0.0,0.0,0.0,0.0,0.0,0.0,0.0,0.0,0.0,0.0,0.0,0.0,0.0,0.0,0.0,0.0,0.0,0.0,0.0,0.0,0.0,0.0,0.0,0.0,0.0,0.0,0.0,0.0,0.0,0.0,0.0,0.0,0.0,0.0,0.0,0.0,0.0,0.0,0.0,0.0,0.0,0.0,0.0,0.0,0.0,0.0,0.0,0.0,0.0,0.0,0.0,0.0,0.0,0.0,0.0,0.0,0.0,0.0,0.0,0.0,0.0,0.0,0.0,0.0,0.0,-4.9875,-5.1186,-5.2669,-5.418,-5.128,-4.8156,0.0,0.0,0.0,0.0,0.0,0.0,0.0,0.0,0.0,0.0,0.0,0.0,0.0,0.0,0.0,0.0,0.0,0.0,0.0,0.0,0.0,0.0,0.0,0.0,0.0,0.0,0.0,0.0,0.0,0.0,0.0,0.0,0.0,0.0,0.0,0.0,0.0,0.0,0.0,0.0,0.0,0.0,0.0,0.0,0.0,0.0,0.0,0.0,0.0,0.0,0.0,0.0,0.0,0.0,0.0,0.0,0.0,0.0,0.0,0.0,0.0,0.0,0.0,0.0,0.0,0.0,0.0,0.0,0.0,0.0,0.0,0.0,0.0,0.0,0.0,0.0,0.0,0.0,0.0,0.0,0.0,0.0,0.0,0.0,0.0,0.0,0.0,0.0,0.0,0.0,0.0,0.0,0.0,0.0,0.0,0.0,0.0,0.0,0.0,0.0,0.0,0.0,0.0,0.0,0.0,0.0,0.0,0.0,0.0,-4.949,0.0,-5.4004,-5.3887,-5.0486,-4.721,0.0,0.0,0.0,0.0,0.0,0.0,0.0,0.0,0.0,0.0,0.0,0.0,0.0,0.0,0.0,0.0,0.0,0.0,0.0,0.0,0.0,0.0,0.0,0.0,0.0,0.0,0.0,0.0,0.0,0.0,0.0,0.0,0.0,0.0,0.0,0.0,0.0,0.0,0.0,0.0,0.0,0.0,0.0,0.0,0.0,0.0,0.0,0.0,0.0,0.0,0.0,0.0,0.0,0.0,0.0,0.0,0.0,0.0,0.0,0.0,0.0,0.0,0.0,0.0,0.0,0.0,0.0,0.0,0.0,0.0,0.0,0.0,0.0,0.0,0.0,0.0,0.0,0.0,0.0,0.0,0.0,0.0,0.0,0.0,0.0,0.0,0.0,0.0,0.0,0.0,0.0,0.0,0.0,0.0,0.0,0.0,0.0,0.0,0.0,0.0,0.0,0.0,0.0,0.0,0.0,0.0,0.0,0.0,-4.8709,-5.2213,-5.5455,-5.5346,-5.166,-5.1163,-4.7875,0.0,0.0,0.0,0.0,0.0,0.0,0.0,0.0,0.0,0.0,0.0,0.0,0.0,0.0,0.0,0.0,0.0,0.0,0.0,0.0,0.0,0.0,0.0,0.0,0.0,0.0,0.0,0.0,0.0,0.0,0.0,0.0,0.0,0.0,0.0,0.0,0.0,0.0,0.0,0.0,0.0,0.0,0.0,0.0,0.0,0.0,0.0,0.0,0.0,0.0,0.0,0.0,0.0,0.0,0.0,0.0,0.0,0.0,0.0,0.0,0.0,0.0,0.0,0.0,0.0,0.0,0.0,0.0,0.0,0.0,0.0,0.0,0.0,0.0,0.0,0.0,0.0,0.0,0.0,0.0,0.0,0.0,0.0,0.0,0.0,0.0,0.0,0.0,0.0,0.0,0.0,0.0,0.0,0.0,0.0,0.0,0.0,0.0,0.0,0.0,0.0,0.0,0.0,0.0,0.0,0.0,0.0,0.0,0.0,-5.052,-5.3297,-5.4823,-5.4719,-5.1337,-4.8434,0.0,0.0,0.0,0.0,0.0,0.0,0.0,0.0,0.0,0.0,0.0,0.0,0.0,0.0,0.0,0.0,0.0,0.0,0.0,0.0,0.0,0.0,0.0,0.0,0.0,0.0,0.0,0.0,0.0,0.0,0.0,0.0,0.0,0.0,0.0,0.0,0.0,0.0,0.0,0.0,0.0,0.0,0.0,0.0,0.0,0.0,0.0,0.0,0.0,0.0,0.0,0.0,0.0,0.0,0.0,0.0,0.0,0.0,0.0,0.0,0.0,0.0,0.0,0.0,0.0,0.0,0.0,0.0,0.0,0.0,0.0,0.0,0.0,0.0,0.0,0.0,0.0,0.0,0.0,0.0,0.0,0.0,0.0,0.0,0.0,0.0,0.0,0.0,0.0,0.0,0.0,0.0,0.0,0.0,0.0,0.0,0.0,0.0,0.0,0.0,0.0,0.0,0.0,0.0,0.0,0.0,0.0,0.0,0.0,-5.197,-5.4239,-5.5628,-5.5915,-5.1855,-4.8881,-4.7209,0.0,0.0,0.0,0.0,0.0,0.0,0.0,0.0,0.0,0.0,0.0,0.0,0.0,0.0,0.0,0.0,0.0,0.0,0.0,0.0,0.0,0.0,0.0,0.0,0.0,0.0,0.0,0.0,0.0,0.0,0.0,0.0,0.0,0.0,0.0,0.0,0.0,0.0,0.0,0.0,0.0,0.0,0.0,0.0,0.0,0.0,0.0,0.0,0.0,0.0,0.0,0.0,0.0,0.0,0.0,0.0,0.0,0.0,0.0,0.0,0.0,0.0,0.0,0.0,0.0,0.0,0.0,0.0,0.0,0.0,0.0,0.0,0.0,0.0,0.0,0.0,0.0,0.0,0.0,0.0,0.0,0.0,0.0,0.0,0.0,0.0,0.0,0.0,0.0,0.0,0.0,0.0,0.0,0.0,0.0,0.0,0.0,0.0,0.0,0.0,0.0,0.0,0.0,0.0,0.0,0.0,0.0,0.0,-5.5722,-5.7722,-5.7697,-5.5588,-5.2832,-4.9467,0.0,0.0,0.0,0.0,0.0,0.0,0.0,0.0,0.0,0.0,0.0,0.0,0.0,0.0,0.0,0.0,0.0,0.0,0.0,0.0,0.0,0.0,0.0,0.0,0.0,0.0,0.0,0.0,0.0,0.0,0.0,0.0,0.0,0.0,0.0,0.0,0.0,0.0,0.0,0.0,0.0,0.0,0.0,0.0,0.0,0.0,0.0,0.0,0.0,0.0,0.0,0.0,0.0,0.0,0.0,0.0,0.0,0.0,0.0,0.0,0.0,0.0,0.0,0.0,0.0,0.0,0.0,0.0,0.0,0.0,0.0,0.0,0.0,0.0,0.0,0.0,0.0,0.0,0.0,0.0,0.0,0.0,0.0,0.0,0.0,0.0,0.0,0.0,0.0,0.0,0.0,0.0,0.0,0.0,0.0,0.0,0.0,0.0,0.0,0.0,0.0,0.0,0.0,0.0,0.0,0.0,0.0,0.0,0.0,-5.659,-5.8525,-5.9567,-5.9557,-5.4819,-5.1384,0.0,0.0,0.0,0.0,0.0,0.0,0.0,0.0,0.0,0.0,0.0,0.0,0.0,0.0,0.0,0.0,0.0,0.0,0.0,0.0,0.0,0.0,0.0,0.0,0.0,0.0,0.0,0.0,0.0,0.0,0.0,0.0,0.0,0.0,0.0,0.0,0.0,0.0,0.0,0.0,0.0,0.0,0.0,0.0,0.0,0.0,0.0,0.0,0.0,0.0,0.0,0.0,0.0,0.0,0.0,0.0,0.0,0.0,0.0,0.0,0.0,0.0,0.0,0.0,0.0,0.0,0.0,0.0,0.0,0.0,0.0,0.0,0.0,0.0,0.0,0.0,0.0,0.0,0.0,0.0,0.0,0.0,0.0,0.0,0.0,0.0,0.0,0.0,0.0,0.0,0.0,0.0,0.0,0.0,0.0,0.0,0.0,0.0,0.0,0.0,0.0,0.0,0.0,0.0,0.0,0.0,0.0,0.0,-5.4695,-5.7747,-5.9192,-6.049,-6.1689,-5.7141,-5.3559,0.0,0.0,0.0,0.0,0.0,0.0,0.0,0.0,0.0,0.0,0.0,0.0,0.0,0.0,0.0,0.0,0.0,0.0,0.0,0.0,0.0,0.0,0.0,0.0,0.0,0.0,0.0,0.0,0.0,0.0,0.0,0.0,0.0,0.0,0.0,0.0,0.0,0.0,0.0,0.0,0.0,0.0,0.0,0.0,0.0,0.0,0.0,0.0,0.0,0.0,0.0,0.0,0.0,0.0,0.0,0.0,0.0,0.0,0.0,0.0,0.0,0.0,0.0,0.0,0.0,0.0,0.0,0.0,0.0,0.0,0.0,0.0,0.0,0.0,0.0,0.0,0.0,0.0,0.0,0.0,0.0,0.0,0.0,0.0,0.0,0.0,0.0,0.0,0.0,0.0,0.0,0.0,0.0,0.0,0.0,0.0,0.0,0.0,0.0,0.0,0.0,0.0,0.0,0.0,0.0,0.0,0.0,0.0,-5.5185,-5.8744,-5.9665,-6.0783,-6.2047,-5.9121,-5.5532,0.0,0.0,0.0,0.0,0.0,0.0,0.0,0.0,0.0,0.0,0.0,0.0,0.0,0.0,0.0,0.0,0.0,0.0,0.0,0.0,0.0,0.0,0.0,0.0,0.0,0.0,0.0,0.0,0.0,0.0,0.0,0.0,0.0,0.0,0.0,0.0,0.0,0.0,0.0,0.0,0.0,0.0,0.0,0.0,0.0,0.0,0.0,0.0,0.0,0.0,0.0,0.0,0.0,0.0,0.0,0.0,0.0,0.0,0.0,0.0,0.0,0.0,0.0,0.0,0.0,0.0,0.0,0.0,0.0,0.0,0.0,0.0,0.0,0.0,0.0,0.0,0.0,0.0,0.0,0.0,0.0,0.0,0.0,0.0,0.0,0.0,0.0,0.0,0.0,0.0,0.0,0.0,0.0,0.0,0.0,0.0,0.0,0.0,0.0,0.0,0.0,0.0,0.0,0.0,0.0,0.0,0.0,0.0,-5.6161,-5.824,-5.9463,-6.0571,-6.154,-5.8233,-5.5097,0.0,0.0,0.0,0.0,0.0,0.0,0.0,0.0,0.0,0.0,0.0,0.0,0.0,0.0,0.0,0.0,0.0,0.0,0.0,0.0,0.0,0.0,0.0,0.0,0.0,0.0,0.0,0.0,0.0,0.0,0.0,0.0,0.0,0.0,0.0,0.0,0.0,0.0,0.0,0.0,0.0,0.0,0.0,0.0,0.0,0.0,0.0,0.0,-4.1907,0.0,0.0,0.0,0.0,0.0,0.0,0.0,0.0,0.0,0.0,0.0,0.0,0.0,0.0,0.0,0.0,0.0,0.0,0.0,0.0,0.0,0.0,0.0,0.0,0.0,0.0,0.0,0.0,0.0,0.0,0.0,0.0,0.0,0.0,0.0,0.0,0.0,0.0,0.0,0.0,0.0,0.0,0.0,0.0,0.0,0.0,0.0,0.0,0.0,0.0,0.0,0.0,0.0,0.0,0.0,0.0,0.0,0.0,0.0,-5.5996,-5.7753,-5.8868,-5.9888,-6.0633,-5.8252,-5.5656,0.0,0.0,0.0,0.0,0.0,0.0,0.0,0.0,0.0,0.0,0.0,0.0,0.0,0.0,0.0,0.0,0.0,0.0,0.0,0.0,0.0,0.0,0.0,0.0,0.0,0.0,0.0,0.0,0.0,0.0,0.0,0.0,0.0,0.0,0.0,0.0,0.0,0.0,0.0,0.0,0.0,0.0,0.0,0.0,0.0,0.0,0.0,0.0,0.0,0.0,0.0,0.0,0.0,0.0,0.0,0.0,0.0,0.0,0.0,0.0,0.0,0.0,0.0,0.0,0.0,0.0,0.0,0.0,0.0,0.0,0.0,0.0,0.0,0.0,0.0,0.0,0.0,0.0,0.0,0.0,0.0,0.0,0.0,0.0,0.0,0.0,0.0,0.0,0.0,0.0,0.0,0.0,0.0,0.0,0.0,0.0,0.0,0.0,0.0,0.0,0.0,0.0,0.0,0.0,0.0,0.0,0.0,-5.2758,-5.5214,-5.7492,-5.8319,-5.9028,-5.9661,-5.8451,-5.628,-5.32,0.0,0.0,0.0,0.0,0.0,0.0,0.0,0.0,0.0,0.0,0.0,0.0,0.0,0.0,0.0,0.0,0.0,0.0,0.0,0.0,0.0,0.0,0.0,0.0,0.0,0.0,0.0,0.0,0.0,0.0,0.0,0.0,0.0,0.0,0.0,0.0,0.0,0.0,-4.0681,-4.2147,0.0,0.0,0.0,0.0,0.0,0.0,0.0,0.0,-4.1465,0.0,0.0,0.0,0.0,0.0,0.0,0.0,0.0,0.0,0.0,0.0,0.0,0.0,0.0,0.0,0.0,0.0,0.0,0.0,0.0,0.0,0.0,0.0,0.0,0.0,0.0,0.0,0.0,0.0,0.0,0.0,0.0,0.0,0.0,0.0,0.0,0.0,0.0,0.0,0.0,0.0,0.0,0.0,0.0,0.0,0.0,0.0,0.0,0.0,0.0,0.0,0.0,0.0,0.0,0.0,0.0,-5.2543,-5.2634,-5.4355,-5.7802,-5.8431,-5.8439,-5.796,-5.7734,-5.574,-5.184,0.0,0.0,0.0,0.0,0.0,0.0,0.0,0.0,0.0,0.0,0.0,0.0,0.0,0.0,0.0,0.0,0.0,0.0,0.0,0.0,0.0,0.0,0.0,0.0,0.0,0.0,0.0,0.0,0.0,0.0,0.0,0.0,0.0,0.0,0.0,0.0,0.0,0.0,0.0,-4.404,-4.4991,0.0,0.0,0.0,0.0,0.0,0.0,0.0,0.0,-4.1365,0.0,0.0,0.0,0.0,0.0,0.0,0.0,0.0,0.0,0.0,0.0,0.0,0.0,0.0,0.0,0.0,0.0,0.0,0.0,0.0,0.0,0.0,0.0,0.0,0.0,0.0,0.0,0.0,0.0,0.0,0.0,0.0,0.0,0.0,0.0,0.0,0.0,0.0,0.0,0.0,0.0,0.0,0.0,0.0,0.0,0.0,0.0,0.0,0.0,0.0,0.0,0.0,0.0,0.0,0.0,-5.1187,-5.2348,-5.4352,-5.7291,-5.7645,-5.7696,-5.7465,-5.6438,-5.4458,0.0,0.0,0.0,0.0,0.0,0.0,0.0,0.0,0.0,0.0,0.0,0.0,0.0,0.0,0.0,0.0,0.0,0.0,0.0,0.0,0.0,0.0,0.0,0.0,0.0,0.0,0.0,0.0,0.0,0.0,0.0,0.0,0.0,0.0,0.0,0.0,0.0,0.0,0.0,0.0,-4.3802,-4.4352,-4.5312,0.0,0.0,0.0,0.0,0.0,0.0,-4.1116,-4.0214,0.0,0.0,0.0,0.0,0.0,0.0,0.0,0.0,0.0,0.0,0.0,0.0,0.0,0.0,0.0,0.0,0.0,0.0,0.0,0.0,0.0,0.0,0.0,0.0,0.0,0.0,0.0,0.0,0.0,0.0,0.0,0.0,0.0,0.0,0.0,0.0,0.0,0.0,0.0,0.0,0.0,0.0,0.0,0.0,0.0,0.0,0.0,0.0,0.0,0.0,0.0,0.0,0.0,0.0,0.0,-4.9218,-5.1367,-5.378,-5.6283,-5.6299,-5.6437,-5.6839,-5.5007,-5.2908,0.0,0.0,0.0,0.0,0.0,0.0,0.0,0.0,0.0,0.0,0.0,0.0,0.0,0.0,0.0,0.0,0.0,0.0,0.0,0.0,0.0,0.0,0.0,0.0,0.0,0.0,0.0,0.0,0.0,0.0,0.0,0.0,0.0,0.0,0.0,0.0,0.0,0.0,0.0,0.0,0.0,-4.4048,-4.4829,-4.4097,0.0,0.0,0.0,0.0,-4.195,-4.0708,0.0,0.0,0.0,0.0,0.0,0.0,0.0,0.0,0.0,0.0,0.0,0.0,0.0,0.0,0.0,0.0,0.0,0.0,0.0,0.0,0.0,0.0,0.0,0.0,0.0,0.0,0.0,0.0,0.0,0.0,0.0,0.0,0.0,0.0,0.0,0.0,0.0,0.0,0.0,0.0,0.0,0.0,0.0,0.0,0.0,0.0,0.0,0.0,0.0,0.0,0.0,0.0,0.0,0.0,0.0,0.0,-4.7819,-4.8969,-5.1257,-5.4622,-5.4215,-5.4212,-5.481,-5.3628,-5.1452,0.0,0.0,0.0,0.0,0.0,0.0,0.0,0.0,0.0,0.0,0.0,0.0,0.0,0.0,0.0,0.0,0.0,0.0,0.0,0.0,0.0,0.0,0.0,0.0,0.0,0.0,0.0,0.0,0.0,0.0,0.0,0.0,0.0,0.0,0.0,0.0,0.0,0.0,0.0,0.0,0.0,-4.6006,-4.4383,-4.4016,-4.3731,0.0,0.0,-4.2032,-4.2229,-4.2257,0.0,0.0,0.0,0.0,0.0,0.0,0.0,0.0,0.0,0.0,0.0,0.0,0.0,0.0,0.0,0.0,0.0,0.0,0.0,0.0,0.0,0.0,0.0,0.0,0.0,0.0,0.0,0.0,0.0,0.0,0.0,0.0,0.0,0.0,0.0,0.0,0.0,0.0,0.0,0.0,0.0,0.0,0.0,0.0,0.0,0.0,0.0,0.0,0.0,0.0,0.0,0.0,0.0,0.0,0.0,-4.4877,-4.6985,-4.8741,-5.0851,-5.3241,-5.3041,-5.2992,-5.3233,-5.1667,-4.9656,0.0,0.0,0.0,0.0,0.0,0.0,0.0,0.0,0.0,0.0,0.0,0.0,0.0,0.0,0.0,0.0,0.0,0.0,0.0,0.0,0.0,0.0,0.0,0.0,0.0,0.0,0.0,0.0,0.0,0.0,0.0,0.0,0.0,0.0,0.0,0.0,0.0,0.0,0.0,0.0,0.0,0.0,-4.4428,-4.3822,0.0,0.0,0.0,-4.1651,-4.2085,0.0,0.0,0.0,0.0,0.0,0.0,0.0,0.0,0.0,0.0,0.0,0.0,0.0,0.0,0.0,0.0,0.0,0.0,0.0,0.0,0.0,0.0,0.0,0.0,0.0,0.0,0.0,0.0,0.0,0.0,0.0,0.0,0.0,0.0,0.0,0.0,0.0,0.0,0.0,0.0,0.0,0.0,0.0,0.0,0.0,0.0,0.0,0.0,0.0,0.0,0.0,0.0,0.0,0.0,0.0,0.0,0.0,-4.6048,-4.8545,-5.0478,-5.1757,-5.1632,-5.1605,-5.1686,-4.9891,0.0,0.0,0.0,0.0,0.0,0.0,0.0,0.0,0.0,0.0,0.0,0.0,0.0,0.0,0.0,0.0,0.0,0.0,0.0,0.0,0.0,0.0,0.0,0.0,0.0,0.0,0.0,-3.5692,0.0,0.0,0.0,0.0,0.0,0.0,0.0,0.0,0.0,0.0,0.0,0.0,0.0,0.0,-4.3135,-4.3991,-4.3402,-4.2875,0.0,0.0,-4.1267,-4.1698,-4.1143,-4.0053,0.0,0.0,0.0,0.0,0.0,0.0,0.0,0.0,0.0,0.0,0.0,0.0,0.0,0.0,0.0,0.0,0.0,0.0,0.0,0.0,0.0,0.0,0.0,0.0,0.0,0.0,0.0,0.0,0.0,0.0,0.0,0.0,0.0,0.0,0.0,0.0,0.0,0.0,0.0,0.0,0.0,0.0,0.0,0.0,0.0,0.0,0.0,0.0,0.0,0.0,0.0,0.0,0.0,0.0,0.0,-4.4789,-4.7594,-4.9424,-5.0195,-4.9585,-4.9509,-5.0113,-4.8615,-4.6347,0.0,0.0,0.0,0.0,0.0,0.0,0.0,0.0,0.0,0.0,0.0,0.0,0.0,0.0,0.0,0.0,0.0,0.0,0.0,0.0,0.0,0.0,0.0,0.0,0.0,0.0,0.0,0.0,0.0,0.0,0.0,0.0,0.0,0.0,0.0,0.0,0.0,0.0,0.0,0.0,0.0,-4.265,-4.2474,-4.2596,-4.2886,0.0,0.0,-4.1128,-4.1158,-4.1337,-4.0526,-3.7661,0.0,0.0,0.0,0.0,0.0,0.0,0.0,0.0,0.0,0.0,0.0,0.0,0.0,0.0,0.0,0.0,0.0,0.0,0.0,0.0,0.0,0.0,0.0,0.0,0.0,0.0,0.0,0.0,0.0,0.0,0.0,0.0,0.0,0.0,0.0,0.0,0.0,0.0,0.0,0.0,0.0,0.0,0.0,0.0,0.0,0.0,0.0,0.0,0.0,0.0,0.0,0.0,0.0,-4.2043,-4.3643,-4.5646,-4.6995,-4.765,-4.742,-4.7473,-4.7819,-4.6811,-4.5258,0.0,0.0,0.0,0.0,0.0,0.0,0.0,0.0,0.0,0.0,0.0,0.0,0.0,0.0,0.0,0.0,0.0,0.0,0.0,0.0,0.0,0.0,0.0,0.0,0.0,0.0,0.0,0.0,-3.7758,-3.7854,-3.7405,0.0,0.0,0.0,0.0,0.0,0.0,0.0,0.0,0.0,0.0,-4.1046,-4.1886,-4.193,0.0,0.0,-4.1934,-4.1279,-4.1772,-4.0685,-3.9231,-3.7603,-3.7031,0.0,0.0,0.0,0.0,0.0,0.0,0.0,0.0,0.0,0.0,0.0,0.0,0.0,0.0,0.0,0.0,0.0,0.0,0.0,0.0,0.0,0.0,0.0,0.0,0.0,0.0,0.0,0.0,0.0,0.0,0.0,0.0,0.0,0.0,0.0,0.0,0.0,0.0,0.0,0.0,0.0,0.0,0.0,0.0,0.0,0.0,0.0,0.0,0.0,0.0,0.0,0.0,-4.0848,-4.2805,-4.4204,-4.5122,-4.5568,-4.5584,-4.5572,-4.5489,-4.4967,-4.3806,0.0,0.0,0.0,0.0,0.0,0.0,0.0,0.0,0.0,0.0,0.0,0.0,0.0,0.0,0.0,0.0,0.0,0.0,0.0,0.0,0.0,0.0,0.0,0.0,0.0,0.0,0.0,0.0,-3.8189,-3.7849,-3.6864,0.0,0.0,0.0,0.0,0.0,0.0,0.0,0.0,0.0,0.0,-3.9453,-4.0908,-4.0949,-4.1058,-4.1707,-4.1053,-4.0641,-4.1085,-3.9624,-3.8131,-3.7191,0.0,0.0,0.0,0.0,0.0,0.0,0.0,0.0,0.0,0.0,0.0,0.0,0.0,0.0,0.0,0.0,0.0,0.0,0.0,0.0,0.0,0.0,0.0,0.0,0.0,0.0,0.0,0.0,0.0,0.0,0.0,0.0,0.0,0.0,0.0,0.0,0.0,0.0,0.0,0.0,0.0,0.0,0.0,0.0,0.0,0.0,0.0,0.0,0.0,0.0,0.0,0.0,0.0,-4.0651,-4.219,-4.3477,-4.4177,-4.4225,-4.4226,-4.3904,-4.3232,-4.3152,-4.1821,-3.9017,0.0,0.0,0.0,0.0,0.0,0.0,0.0,0.0,0.0,0.0,0.0,0.0,0.0,0.0,0.0,0.0,0.0,0.0,0.0,0.0,0.0,0.0,0.0,0.0,0.0,0.0,-3.7548,-3.6813,-3.6013,0.0,0.0,0.0,0.0,0.0,0.0,0.0,0.0,0.0,0.0,-3.7408,-3.807,-3.9436,-3.9585,-3.9603,-3.968,-3.9388,-3.8996,-3.8621,-3.8169,-3.7449,0.0,0.0,0.0,0.0,0.0,0.0,0.0,0.0,0.0,0.0,0.0,0.0,0.0,0.0,0.0,0.0,0.0,0.0,0.0,0.0,0.0,0.0,0.0,0.0,0.0,0.0,0.0,-4.1885,-4.0622,0.0,0.0,0.0,0.0,0.0,0.0,0.0,0.0,0.0,0.0,0.0,-3.7236,-3.7401,0.0,0.0,0.0,0.0,0.0,0.0,0.0,0.0,0.0,0.0,0.0,0.0,-3.9275,-4.1095,-4.1507,-4.1873,-4.2303,-4.2333,-4.2283,-4.2178,-4.2163,-4.0873,-3.8182,0.0,0.0,0.0,0.0,0.0,0.0,0.0,0.0,0.0,0.0,0.0,0.0,0.0,0.0,0.0,0.0,0.0,0.0,0.0,0.0,0.0,0.0,0.0,0.0,0.0,-3.738,0.0,0.0,0.0,0.0,0.0,0.0,0.0,0.0,0.0,0.0,0.0,-3.563,-3.6501,-3.6853,-3.7382,-3.8344,-3.8773,-3.8978,0.0,0.0,0.0,0.0,0.0,0.0,0.0,0.0,0.0,0.0,0.0,0.0,0.0,0.0,-3.3427,-3.2509,-3.2045,-3.1512,-3.0715,0.0,0.0,0.0,0.0,0.0,0.0,0.0,0.0,0.0,0.0,0.0,0.0,0.0,0.0,0.0,0.0,-4.0642,0.0,0.0,0.0,0.0,0.0,0.0,0.0,0.0,-3.7706,-3.7564,-3.6619,-3.703,-3.6851,0.0,-3.5871,-3.5993,0.0,0.0,0.0,0.0,0.0,0.0,0.0,0.0,-3.8291,-3.9881,-4.003,-4.0262,-4.0681,-4.0711,-4.0766,-4.0908,-4.0683,-3.9735,-3.8053,-3.783,-3.6983,0.0,0.0,0.0,0.0,0.0,0.0,0.0,0.0,0.0,0.0,0.0,0.0,0.0,0.0,0.0,0.0,0.0,0.0,0.0,0.0,0.0,0.0,0.0,-3.6648,0.0,0.0,0.0,0.0,0.0,0.0,0.0,0.0,0.0,-3.4033,-3.4577,-3.5145,-3.5968,-3.627,-3.6552,-3.7019,0.0,0.0,0.0,0.0,0.0,0.0,0.0,-3.5163,-3.4636,-3.3864,-3.3068,-3.2387,-3.2295,-3.2357,-3.2501,0.0,0.0,-3.2292,-3.2014,-3.1613,-3.082,-3.0932,-3.0819,-2.9691,-2.9999,-3.0345,0.0,0.0,0.0,0.0,0.0,0.0,0.0,0.0,-3.9864,-4.017,0.0,-4.0088,0.0,0.0,0.0,0.0,0.0,0.0,0.0,0.0,-3.8212,-3.8473,-3.7825,-3.7783,-3.7798,-3.7798,-3.7181,-3.6658,-3.6073,-3.5318,0.0,0.0,0.0,0.0,0.0,0.0,-3.7882,-3.8671,-3.9158,-3.9388,-3.9418,-3.9403,-3.9439,-3.9409,-3.8831,-3.8489,-3.8446,-3.7326,-3.6609,-3.6571,-3.5649,0.0,0.0,0.0,0.0,0.0,0.0,0.0,0.0,0.0,0.0,0.0,0.0,0.0,0.0,0.0,0.0,0.0,0.0,0.0,0.0,-3.5915,0.0,0.0,0.0,0.0,0.0,0.0,0.0,0.0,0.0,0.0,-3.4833,-3.4559,-3.4504,-3.5414,0.0,0.0,0.0,0.0,-3.6178,-3.5667,-3.6028,-3.6203,-3.5711,-3.5964,-3.5769,-3.431,0.0,0.0,-3.2122,-3.1487,-3.1334,-3.1715,-3.1809,-3.188,-3.2165,-3.1799,-3.1213,-3.038,-2.9717,-2.909,-2.901,-2.9265,-2.945,-4.2202,0.0,0.0,0.0,0.0,-3.9575,-3.9719,-4.047,-4.0473,-3.9909,-3.8978,-3.9102,0.0,0.0,0.0,0.0,0.0,0.0,-3.7729,-3.7053,-3.7443,-3.7337,-3.6845,-3.6845,-3.658,-3.618,-3.5626,-3.5478,-3.5621,-3.4578,-3.4256,-3.4623,0.0,0.0,0.0,0.0,-3.8098,-3.9223,-3.937,-3.9388,-3.9388,-3.9388,-3.9388,-3.9388,-3.923,-3.8902,-3.8454,-3.8619,-3.8027,-3.6611,-3.5849,0.0,0.0,0.0,0.0,0.0,0.0,0.0,0.0,0.0,0.0,0.0,0.0,0.0,0.0,0.0,0.0,0.0,0.0,0.0,-3.4162,-3.4048,-3.3828,0.0,0.0,0.0,0.0,0.0,0.0,0.0,0.0,0.0,-3.3835,-3.3893,-3.3876,0.0,0.0,-3.4178,-3.4178,-3.4719,-3.5048,-3.4918,0.0,0.0,0.0,-3.4856,-3.4112,-3.3649,-3.2838,-3.2023,-3.1477,-3.1271,-3.1249,-3.1353,-3.1192,-3.0906,-3.0469,-3.1195,-3.137,-3.0467,-3.0008,-2.9647,-2.9145,-2.9067,-2.9093,-4.2358,-4.1629,-4.0435,-4.0156,-4.0453,-3.9608,-3.9588,-4.0153,-4.0394,-4.0181,-3.955,-3.9738,-3.92,-3.8058,-3.7564,0.0,0.0,0.0,-3.7861,-3.7154,-3.7154,-3.6874,-3.6405,-3.6417,-3.6182,-3.5843,-3.5303,-3.5098,-3.5158,-3.4211,-3.3794,-3.3836,0.0,0.0,-3.5707,-3.6698,-3.765,-3.8482,-3.9107,-3.9388,-3.9388,-3.9388,-3.9388,-3.9388,-3.9388,-3.9215,-3.8826,-3.9001,-3.8588,-3.7388,-3.6465,-3.5157,0.0,0.0,0.0,0.0,0.0,0.0,0.0,0.0,0.0,0.0,0.0,-3.1579,-3.0754,0.0,0.0,0.0,-3.212,-3.2828,-3.3486,-3.3123,0.0,0.0,0.0,0.0,0.0,0.0,0.0,-3.2593,-3.1959,-3.1781,-3.2656,-3.2756,-3.2971,-3.3531,-3.3608,-3.3608,-3.3608,0.0,-3.4309,-3.4552,-3.4712,-3.4905,-3.511,-3.4202,-3.3347,-3.2992,-3.1985,-3.1089,-3.0801,-3.0768,-3.0666,-3.0383,-3.0183,-2.9833,-2.9177,-2.991,-3.0391,-2.9657,-2.9631,-2.9555,-2.9078,-2.8987,-2.8913,-4.2275,-4.2196,-4.1142,-4.0703,-4.0566,-3.9499,-3.8756,-3.834,-3.9848,-4.0556,-4.0694,-4.1119,-4.1297,-4.1128,-3.9915,0.0,0.0,-3.8286,-3.8166,-3.7249,-3.7211,-3.691,-3.648,-3.643,-3.6417,-3.638,-3.5793,-3.5219,-3.4713,-3.4161,-3.3806,-3.3655,-3.4039,-3.4265,-3.4455,-3.5906,-3.6716,-3.6773,-3.8436,-3.9316,-3.9388,-3.9388,-3.9388,-3.9388,-3.9379,-3.932,-3.932,-3.8676,-3.8368,-3.8387,-3.7139,-3.5836,-3.4562,0.0,0.0,0.0,0.0,0.0,0.0,0.0,0.0,0.0,0.0,0.0,0.0,0.0,0.0,0.0,-3.209,0.0,-3.3457,-3.2848,0.0,0.0,0.0,-3.0787,-3.1369,-3.0937,-3.0774,-3.1355,0.0,0.0,0.0,0.0,-3.1964,-3.3245,-3.3443,-3.3427,-3.3427,-3.3469,-3.3735,-3.4284,-3.3922,-3.3738,-3.4163,-3.3694,-3.2995,-3.2309,-3.1596,-3.0852,-3.0277,-3.0023,-2.9736,-2.923,-2.8959,-2.8813,-2.8421,-2.8415,-2.8307,-2.8376,-2.8639,-2.8893,-2.8789,-2.8764,-2.8537,-4.2841,-4.2753,-4.2068,-4.1529,-4.1058,-4.0404,-4.0049,-3.9898,-3.9905,-3.969,-3.9383,-3.9479,-3.9257,-3.8807,-3.8515,-3.8151,-3.7814,-3.8083,-3.8034,-3.7776,-3.7374,-3.7111,-3.7021,-3.6619,-3.6417,-3.638,-3.5805,-3.5207,-3.4713,-3.4161,-3.3676,-3.3263,-3.3338,-3.3962,-3.5033,-3.5464,-3.5896,-3.6328,-3.7539,-3.8583,-3.9352,-3.9388,-3.9388,-3.9388,-3.8901,-3.8631,-3.8631,-3.8003,-3.7447,-3.7002,-3.6202,-3.5134,-3.3817,-3.2419,0.0,0.0,0.0,0.0,0.0,0.0,0.0,0.0,0.0,-3.1022,-3.0013,0.0,-3.081,0.0,-3.2175,-3.2643,-3.2826,-3.2148,0.0,0.0,-3.173,-3.1263,-3.146,-3.1351,-3.1314,-3.147,-3.1477,-3.1496,-3.1496,-3.1496,-3.1611,-3.1979,-3.1992,-3.1977,-3.1992,-3.2489,-3.2895,-3.3029,-3.293,-3.2883,-3.2926,-3.2407,-3.1812,-3.1516,-3.0835,-3.0311,-3.0125,-2.9617,-2.9196,-2.8993,-2.8484,-2.8096,-2.7946,-2.7738,-2.7577,-2.7595,-2.7894,-2.8044,-2.7712,-2.7628,-2.7501,-4.2986,-4.2949,-4.2647,-4.2346,-4.1995,-4.1216,-4.0699,-4.0501,-4.0187,-3.976,-3.9233,-3.9233,-3.9069,-3.8768,-3.8755,-3.8755,-3.8755,-3.8743,-3.8617,-3.8366,-3.7814,-3.7425,-3.7161,-3.6669,-3.6417,-3.6405,-3.6056,-3.5629,-3.5077,-3.4525,-3.3985,-3.3432,-3.3206,-3.3517,-3.4324,-3.4808,-3.5209,-3.5547,-3.654,-3.7381,-3.7965,-3.8457,-3.8546,-3.8252,-3.8359,-3.8052,-3.7337,-3.7377,-3.6767,-3.548,-3.5439,-3.4756,-3.314,-3.1688,-3.0623,0.0,0.0,0.0,0.0,0.0,0.0,0.0,0.0,0.0,0.0,0.0,-3.0697,0.0,-3.1982,0.0,-3.2562,-3.214,-3.2079,-3.2516,-3.1909,-3.147,-3.1495,-3.1496,-3.1496,-3.1496,-3.1496,-3.1496,-3.1496,-3.1496,-3.1496,-3.1496,-3.1496,-3.1496,-3.1495,-3.1639,-3.1757,-3.2095,-3.1653,-3.1242,-3.1212,-3.1073,-3.0782,-3.0389,-3.0191,-2.9903,-2.921,-2.8755,-2.8366,-2.801,-2.7604,-2.7317,-2.73,-2.7181,-2.695,-2.6639,-2.6709,-2.6877,-2.6987,-2.6842,-2.6561,-4.2986,-4.2986,-4.2986,-4.2986,-4.2911,-4.1944,-4.1137,-4.0614,-4.0551,-4.0199,-3.9697,-3.9697,-3.9697,-3.9697,-3.9697,-3.9697,-3.9697,-3.9697,-3.9433,-3.8944,-3.8304,-3.7751,-3.7274,-3.6646,-3.6417,-3.6417,-3.6417,-3.6081,-3.5495,-3.4944,-3.4437,-3.3897,-3.3345,-3.3124,-3.3167,-3.4024,-3.4553,-3.4705,-3.5547,-3.6093,-3.6198,-3.7098,-3.7286,-3.6693,-3.7461,-3.7195,-3.5813,-3.6377,-3.5854,-3.3997,-3.4658,-3.4317,-3.2493,-3.1047,-2.9945,0.0,-2.7851,0.0,0.0,0.0,0.0,0.0,0.0,0.0,0.0,-3.0625,-3.0478,-3.0696,-3.1767,-3.2482,-3.2497,-3.2497,-3.2467,-3.2377,-3.1854,-3.1496,-3.1496,-3.1496,-3.1496,-3.1496,-3.1496,-3.1496,-3.1496,-3.1496,-3.1496,-3.1481,-3.1376,-3.1301,-3.1301,-3.0896,-3.08,-3.1301,-3.0281,-2.9602,-2.954,-2.9735,-2.9721,-2.9256,-2.9346,-2.9216,-2.7845,-2.7651,-2.7435,-2.6843,-2.6725,-2.6725,-2.6708,-2.664,-2.6352,-2.5793,-2.5504,-2.5548,-2.61,-2.5999,-2.5566,-4.2986,-4.2986,-4.2986,-4.2986,-4.3017,-4.276,-4.2108,-4.11,-4.0701,-4.0199,-3.971,-3.9697,-3.9697,-3.9697,-3.9697,-3.9697,-3.9697,-3.9697,-3.9634,-3.9509,-3.8479,-3.7952,-3.7801,-3.687,-3.6417,-3.6417,-3.6417,-3.6069,-3.5483,-3.4989,-3.4437,-3.3897,-3.3357,-3.3124,0.0,0.0,0.0,0.0,-3.491,-3.54,-3.6158,-3.6408,-3.6248,-3.5662,-3.5335,0.0,-3.41,-3.3718,-3.3304,-3.2904,-3.3031,0.0,0.0,0.0,0.0,0.0,0.0,0.0,0.0,0.0,0.0,0.0,-2.8773,-2.8989,-2.8695,-2.9431,-3.0436,-3.1659,-3.2043,-3.2253,-3.2482,-3.2497,-3.2302,-3.175,-3.1585,-3.1496,-3.1496,-3.1496,-3.1496,-3.1496,-3.1496,-3.1496,-3.1496,-3.1496,-3.1496,-3.1466,-3.1032,-3.0731,-3.0702,-3.0552,-3.0353,-3.0009,-2.9282,-2.8766,-2.87,-2.8357,-2.8323,-2.8372,-2.7994,-2.7443,-2.6801,-2.6776,-2.6757,-2.6244,-2.6436,-2.6691,-2.6674,-2.6234,-2.5795,-2.5625,-2.4644,-2.3947,-2.4341,-2.4386,-2.4182,-4.2986,0.0,-4.2986,-4.2986,0.0,-4.2986,-4.2509,-4.1706,-4.1166,-4.0463,-3.9697,-3.9697,-3.9697,-3.9697,-3.9697,-3.9697,-3.9697,-3.9697,-3.9697,-3.9634,-3.853,-3.8002,-3.7977,-3.692,-3.6417,-3.6417,-3.6417,-3.6279,-3.5918,-3.5115,-3.4587,-3.4286,-3.3495,-3.3124,-3.3124,-3.3124,-3.3356,-3.3924,-3.3924,-3.4191,-3.4678,-3.5197,-3.5008,-3.4143,0.0,0.0,0.0,0.0,0.0,0.0,0.0,0.0,0.0,0.0,0.0,-2.9187,-2.8146,-2.7531,-2.7531,-2.7531,-2.7696,-2.8031,-2.8307,-2.8705,-2.9232,-2.9833,-3.0533,-3.1269,-3.1411,-3.1513,-3.1645,-3.1423,-3.1292,-3.1306,-3.1087,-3.1058,-3.1409,-3.1496,-3.1496,-3.1496,-3.1496,-3.1496,-3.1496,-3.1496,-3.1496,-3.1466,-3.0913,-3.0372,-3.0088,-2.9759,-2.934,-2.8738,-2.8364,-2.8121,-2.8039,-2.7781,-2.7378,-2.7381,-2.7024,-2.6487,-2.5853,-2.5861,-2.5961,-2.5979,-2.6209,-2.6318,-2.6168,-2.5829,-2.539,-2.4661,-2.3917,-2.3316,-2.3192,-2.3219,-2.3254,-4.2986,-4.2986,-4.2986,-4.2986,-4.2986,-4.2986,-4.261,-4.2024,0.0,0.0,0.0,-3.9697,-3.9697,-3.9697,-3.9697,-3.9697,-3.9697,-3.9697,-3.9697,-3.9634,-3.853,-3.8002,-3.7952,-3.6872,-3.6417,-3.6417,-3.6417,-3.6355,-3.6229,-3.5203,-3.463,-3.4487,-3.3571,-3.3124,-3.3124,-3.3124,-3.3124,-3.3124,-3.3124,-3.3124,-3.3124,-3.3953,-3.3876,-3.2684,-3.3428,-3.2993,-3.1204,-3.175,-3.1504,-3.0228,-3.0851,-3.0972,-3.0335,-2.968,-2.9265,-2.9161,-2.852,-2.8109,-2.8109,-2.8109,-2.8147,-2.8247,-2.826,-2.8828,-3.0212,-3.022,-3.0276,-3.0508,-3.0576,-3.0588,-3.0646,-3.0256,-3.0201,-3.0754,-3.0373,-3.0389,-3.1117,-3.1131,-3.1087,-3.1424,-3.1351,-3.1351,-3.1467,-3.1496,-3.1496,-3.1406,-3.0793,-3.0028,-2.9382,-2.8771,-2.8334,-2.7824,-2.772,-2.7615,-2.757,-2.7263,-2.6934,-2.6388,-2.6104,-2.5715,-2.5163,-2.5086,-2.5335,-2.5577,-2.5779,-2.5735,-2.5531,-2.5295,-2.4837,-2.3632,-2.3274,-2.3038,-2.2494,-2.2477,-2.263,-4.2986,-4.2986,-4.2986,-4.2986,-4.2986,-4.2986,-4.2409,-4.1376,-4.0865,-4.0275,-3.9697,-3.9697,-3.9697,-3.9697,-3.9697,-3.9697,-3.9697,-3.9697,-3.9697,0.0,-3.853,-3.8002,-3.7939,-3.692,-3.6417,-3.6417,-3.6417,-3.6119,-3.5596,-3.4981,-3.4487,-3.401,-3.3382,-3.3124,-3.3124,-3.3124,-3.3124,-3.3124,-3.3124,-3.3124,-3.3124,-3.324,-3.2997,-3.2322,-3.2021,-3.15,-3.0732,-3.0406,-3.0114,-2.9897,-2.9999,-2.977,-2.9211,-2.9061,-2.8772,-2.8317,-2.8182,-2.8109,-2.8122,-2.8109,-2.831,-2.8725,-2.8775,-2.8925,-2.911,-2.8715,-2.8988,-3.0209,-2.9967,-2.9814,-3.0074,-2.9974,-2.9698,-2.9382,-2.9247,-2.9535,-3.0329,-2.9844,-2.9936,-3.119,-3.0866,-3.0748,-3.1307,-3.1438,-3.1423,-3.1316,-3.0432,-2.9307,-2.8319,-2.7809,-2.772,-2.7615,-2.7585,-2.7585,-2.7445,-2.6561,-2.5997,-2.5746,-2.5139,-2.4575,-2.4078,-2.4572,-2.4969,-2.4732,-2.5031,-2.5158,-2.497,-2.438,-2.3932,-2.3377,-2.2926,-2.2465,-2.2313,-2.2363,-2.2391,-4.2986,-4.2986,-4.2986,-4.2986,-4.2986,-4.2986,-4.2346,-4.13,-4.1078,-4.0475,-3.9722,-3.9697,-3.9697,-3.9697,-3.9697,-3.9697,-3.9697,-3.9697,-3.9521,-3.9195,-3.8391,-3.7839,-3.7513,-3.6795,-3.6417,-3.6417,-3.6417,-3.6279,-3.5918,-3.5127,-3.46,-3.4299,-3.3508,-3.3124,-3.3124,-3.3124,-3.3124,-3.3124,-3.3124,-3.3124,-3.3124,-3.3124,-3.2805,-3.2227,-3.1964,-3.1449,-3.0645,-3.0369,-3.0105,-2.9804,-2.9779,-2.9666,-2.9428,-2.9402,-2.9277,-2.9038,-2.9026,-2.9013,-2.9026,-2.9013,-2.9126,-2.9377,-2.939,-2.9402,-2.9402,-2.9176,-2.9164,-2.9534,-2.9081,-2.8657,-2.8544,-2.8283,-2.8146,-2.832,-2.8312,-2.8652,-2.9366,-2.9272,-2.9303,-2.9995,-2.9827,-2.9919,-3.0748,-3.0866,-3.0881,-3.0842,-2.9864,-2.8682,-2.775,-2.7585,-2.7585,-2.7585,-2.7585,-2.742,-2.7106,-2.6258,-2.5516,-2.5151,-2.4452,-2.3934,-2.3638,-2.4095,-2.4302,-2.441,-2.4617,-2.4629,-2.4438,-2.4043,-2.3555,-2.302,-2.2639,-2.2336,-2.2313,-2.2313,-2.2313,-4.2986,-4.2986,-4.2986,-4.2986,-4.2986,-4.2986,-4.2421,-4.1555,-4.1338,-4.0736,-3.9936,-3.976,-3.9697,-3.9697,-3.9697,-3.9697,-3.9697,-3.9697,-3.9396,-3.8856,-3.8266,-3.7713,-3.7174,-3.6669,-3.6417,-3.6417,-3.6417,-3.6355,-3.6081,-3.519,-3.4587,-3.4299,-3.3495,-3.3124,-3.3124,-3.3124,-3.3124,-3.3124,-3.3124,-3.3124,-3.3124,-3.3124,-3.2867,-3.2441,-3.2139,-3.165,-3.0846,-3.0557,-3.0231,-2.9829,-2.9779,-2.9779,-2.9779,-2.9779,-2.9779,-2.9779,-2.9779,-2.9779,-2.9779,-2.9779,-2.9779,-2.9779,-2.9779,-2.9779,-2.9779,-2.9779,-2.9553,-2.8976,-2.8334,-2.7744,-2.74,-2.6895,-2.6748,-2.7351,-2.7404,-2.7789,-2.8524,-2.857,-2.8652,-2.8876,-2.8844,-2.9034,-2.9737,-2.9883,-2.9707,-2.9358,-2.8825,-2.8118,-2.752,-2.7458,-2.7585,-2.7585,-2.7585,-2.7435,-2.6866,-2.6123,-2.548,-2.4859,-2.4133,-2.3736,-2.3616,-2.3595,-2.3745,-2.4095,-2.4204,-2.4022,-2.3778,-2.3629,-2.321,-2.2569,-2.2308,-2.2313,-2.2313,-2.2313,-2.2313,-4.2986,-4.2986,-4.2986,-4.2986,-4.2986,-4.2986,-4.2622,-4.2087,-4.1501,-4.0949,-4.0388,-3.991,-3.9697,-3.9697,-3.9697,-3.9697,-3.9697,-3.9697,-3.9396,-3.8831,-3.8278,-3.7713,-3.7149,-3.6656,-3.6417,-3.6417,-3.6417,-3.6132,-3.5692,-3.4994,-3.4223,-3.3332,-3.3162,-3.3124,-3.3124,-3.3124,-3.3124,-3.3124,-3.3124,-3.3124,-3.3124,-3.3124,-3.3086,-3.3036,-3.2001,-3.1436,-3.1273,-3.0382,-2.9854,-2.9804,-2.9779,-2.9779,-2.9779,-2.9779,-2.9779,-2.9779,-2.9779,-2.9779,-2.9779,-2.9779,-2.9779,-2.9779,-2.9779,-2.9779,-2.9779,-2.9779,-2.9553,-2.895,-2.7996,-2.7431,-2.7291,-2.6801,-2.6555,-2.6679,-2.6679,-2.6939,-2.7571,-2.7162,-2.7284,-2.8876,-2.8233,-2.8136,-2.8898,-2.8764,-2.8047,-2.7314,-2.7423,-2.7321,-2.6905,-2.7137,-2.7534,-2.756,-2.7585,-2.7555,-2.727,-2.6393,-2.563,-2.536,-2.4403,-2.3759,-2.3595,-2.3595,-2.3638,-2.3752,-2.373,-2.3496,-2.3053,-2.271,-2.2756,-2.2215,-2.2096,-2.2268,-2.2282,-2.2296,-2.2282,-4.2986,-4.2986,-4.2986,-4.2986,-4.2986,-4.2986,-4.266,-4.2175,-4.158,-4.0974,-4.0488,-3.9936,-3.9697,-3.9697,-3.9697,-3.9697,-3.9697,-3.9697,-3.9207,-3.8404,-3.8103,-3.755,-3.6782,-3.6518,-3.6417,-3.6417,-3.6417,-3.6304,-3.5918,-3.5152,-3.4161,-3.3237,-3.3124,-3.3124,-3.3124,-3.3124,-3.3124,-3.3124,-3.3124,-3.3124,-3.3124,-3.3124,-3.3124,-3.3036,-3.229,-3.1712,-3.1361,-3.0658,-3.0131,-2.9829,-2.9779,-2.9779,-2.9779,-2.9779,-2.9779,-2.9779,-2.9779,-2.9779,-2.9779,-2.9779,-2.9779,-2.9779,-2.9779,-2.9779,-2.9779,-2.9779,-2.9679,-2.9365,-2.8411,-2.7544,-2.6964,-2.6625,-2.6487,-2.6487,-2.6487,-2.6645,-2.6905,-2.6714,-2.685,-2.7404,-2.7217,-2.7317,-2.7983,-2.7882,-2.7292,-2.6506,-2.6414,-2.6255,-2.6418,-2.6774,-2.7086,-2.7484,-2.7585,-2.7405,-2.7061,-2.6258,-2.5555,-2.4978,-2.4238,-2.361,-2.3595,-2.3595,-2.3595,-2.3595,-2.3595,-2.3503,-2.3256,-2.2671,-2.2404,-2.1996,-2.1758,-2.1825,-2.1584,-2.1961,-2.2152,-4.2986,-4.2986,-4.2986,-4.2986,-4.2986,-4.2986,-4.2803,-4.2308,-4.1643,-4.1062,-4.0636,-4.0011,-3.9697,-3.9697,-3.9697,-3.9697,-3.9697,-3.9697,-3.9082,-3.809,-3.8002,-3.7412,-3.6493,-3.6417,-3.6417,-3.6417,-3.6417,-3.6241,-3.5855,-3.4977,-3.401,-3.3206,-3.3124,-3.3124,-3.3124,-3.3124,-3.3124,-3.3124,-3.3124,-3.3124,-3.3124,-3.3124,-3.3124,-3.3061,-3.2365,-3.1788,-3.1399,-3.0746,-3.0218,-2.9817,-2.9779,-2.9779,-2.9779,-2.9779,-2.9779,-2.9779,-2.9779,-2.9779,-2.9779,-2.9779,-2.9779,-2.9779,-2.9779,-2.9779,-2.9779,-2.9779,-2.9716,-2.9478,-2.88,-2.7921,-2.714,-2.6675,-2.6499,-2.6487,-2.6487,-2.6487,-2.6521,-2.6487,-2.6487,-2.6487,-2.6611,-2.654,-2.6804,-2.6648,-2.6227,-2.545,-2.5208,-2.5231,-2.5837,-2.6203,-2.6669,-2.6982,-2.7265,-2.733,-2.6716,-2.6048,-2.5367,-2.4709,-2.4059,-2.361,-2.3595,-2.3595,-2.3595,-2.3595,-2.3595,-2.3443,-2.3143,-2.2665,-2.2329,-2.2142,-2.1788,-2.1385,-2.1166,-2.16,-2.1705,-4.2986,-4.2986,-4.2986,-4.2986,-4.2986,-4.2986,-4.2961,-4.2811,-4.1794,-4.1263,-4.1062,-4.0162,-3.9697,-3.9697,-3.9697,-3.9697,-3.9697,-3.9697,-3.9094,-3.8065,-3.8002,-3.7425,-3.6455,-3.6417,-3.6417,-3.6417,-3.6417,-3.5902,-3.4889,-3.4248,-3.3646,-3.3149,-3.3124,-3.3124,-3.3124,-3.3124,-3.3124,-3.3124,-3.3124,-3.3124,-3.3124,-3.3124,-3.3124,-3.3023,-3.2039,-3.1486,-3.1286,-3.0394,-2.9829,-2.9792,-2.9779,-2.9779,-2.9779,-2.9779,-2.9779,-2.9779,-2.9779,-2.9779,-2.9779,-2.9779,-2.9779,-2.9779,-2.9779,-2.9779,-2.9779,-2.9779,-2.9603,-2.9051,-2.8913,-2.8561,-2.7946,-2.7067,-2.6562,-2.6487,-2.6487,-2.6487,-2.6487,-2.6487,-2.6487,-2.6487,-2.6449,-2.6101,-2.5194,-2.4922,-2.4538,-2.3952,-2.394,-2.4436,-2.4738,-2.5646,-2.6027,-2.6054,-2.657,-2.735,-2.6667,-2.6033,-2.539,-2.4693,-2.4082,-2.361,-2.3595,-2.3595,-2.3595,-2.3595,-2.3595,-2.3392,-2.2996,-2.2686,-2.2446,-2.2066,-2.1378,-2.0974,-2.0715,-2.0926,-2.1055,-4.2986,-4.2986,-4.2986,-4.2986,-4.2986,-4.2986,-4.2986,-4.2861,-4.1806,-4.1275,-4.1087,-4.0174,-3.9697,-3.9697,-3.9697,-3.9697,-3.9697,-3.9697,-3.9082,-3.809,-3.8002,-3.7412,-3.6493,-3.6417,-3.6417,-3.6417,-3.6405,-3.5793,-3.4776,-3.4161,-3.3608,-3.3212,-3.3124,-3.3124,-3.3124,-3.3124,-3.3124,-3.3124,-3.3124,-3.3124,-3.3124,-3.3124,-3.3124,-3.3086,-3.2328,-3.175,-3.1399,-3.0696,-3.0168,-2.9804,-2.9779,-2.9779,-2.9779,-2.9779,-2.9779,-2.9779,-2.9779,-2.9779,-2.9779,-2.9779,-2.9779,-2.9779,-2.9779,-2.9779,-2.9779,-2.9779,-2.9704,-2.9478,-2.9063,-2.8662,-2.8134,-2.7419,-2.6876,-2.6562,-2.6487,-2.6487,-2.6487,-2.6487,-2.6487,-2.6436,-2.6197,-2.5598,-2.5008,-2.4487,-2.3991,-2.3314,-2.3365,-2.375,-2.4234,-2.4823,-2.5175,-2.5398,-2.5809,-2.5961,-2.5294,-2.5546,-2.5365,-2.4693,-2.4084,-2.374,-2.3595,-2.3595,-2.3595,-2.3595,-2.3595,-2.3475,-2.311,-2.2325,-2.2114,-2.1139,-2.0502,-2.0495,-2.0208,-2.0531,-2.0649,-4.2986,-4.2986,-4.2986,-4.2986,-4.2986,-4.2986,-4.2986,-4.2848,-4.1819,-4.1275,-4.1075,-4.0187,-3.9697,-3.9697,-3.9697,-3.9697,-3.9697,-3.9685,-3.9082,-3.8065,-3.8002,-3.7425,-3.6556,-3.6417,-3.6417,-3.6342,-3.5968,-3.5416,-3.4713,-3.3985,-3.3458,-3.3093,-3.3124,-3.3124,-3.3124,-3.3124,-3.3124,-3.3124,-3.3124,-3.3124,-3.3124,-3.3124,-3.3124,-3.3074,-3.2704,-3.2227,-3.1662,-3.0984,-3.0457,-3.0105,-2.9892,-2.9779,-2.9779,-2.9779,-2.9779,-2.9779,-2.9779,-2.9779,-2.9779,-2.9779,-2.9779,-2.9779,-2.9779,-2.9779,-2.9779,-2.9779,-2.9779,-2.9704,-2.9478,-2.8938,-2.8235,-2.7758,-2.7291,-2.6663,-2.6487,-2.6487,-2.6487,-2.6487,-2.6487,-2.6411,-2.5996,-2.5423,-2.4883,-2.4343,-2.3803,-2.3183,-2.3095,-2.3365,-2.3767,-2.4176,-2.4279,-2.4667,-2.5147,-2.4955,-2.445,-2.4457,-2.4655,-2.4095,-2.3699,-2.3489,-2.3595,-2.3595,-2.3595,-2.3595,-2.355,-2.3475,-2.2981,-2.2128,-2.1205,-2.0202,-1.9992,-2.0067,-2.005,-2.0174,-2.026,-4.2986,-4.2986,-4.2986,-4.2986,-4.2986,-4.2986,-4.2986,-4.2798,-4.1806,-4.1275,-4.1137,-4.0174,-3.9697,-3.9697,-3.9697,-3.9697,-3.9697,-3.9697,-3.9132,-3.8153,-3.8027,-3.745,-3.6518,-3.6443,-3.6417,-3.6355,-3.5303,-3.4768,-3.463,-3.3759,-3.3194,-3.3149,-3.3124,-3.3124,-3.3124,-3.3124,-3.3124,-3.3124,-3.3124,-3.3124,-3.3124,-3.3124,-3.3124,-3.3124,-3.3074,-3.2767,-3.2215,-3.1248,-3.0733,-3.057,-3.0156,-2.9842,-2.9867,-2.9817,-2.9779,-2.9779,-2.9779,-2.9779,-2.9779,-2.9779,-2.9779,-2.9779,-2.9779,-2.9779,-2.9779,-2.9779,-2.9779,-2.9767,-2.9716,-2.9327,-2.8411,-2.8084,-2.7607,-2.67,-2.6487,-2.6487,-2.6487,-2.6487,-2.6487,-2.6399,-2.5946,-2.5385,-2.487,-2.4255,-2.369,-2.3246,-2.3095,-2.3125,-2.3305,-2.3767,-2.3826,-2.3679,-2.4121,-2.4374,-2.3819,-2.3357,-2.3458,-2.3443,-2.3143,-2.2942,-2.3443,-2.3595,-2.3595,-2.3595,-2.3595,-2.3475,-2.2637,-2.1814,-2.1156,-2.0352,-2.0125,-1.98,-1.9871,-1.996,-1.9871,-4.2986,-4.2986,-4.2986,-4.2986,-4.2986,-4.2986,-4.2986,-4.2861,-4.1806,-4.1288,-4.1075,-4.0174,-3.9697,-3.9697,-3.9697,-3.9697,-3.9697,-3.9672,-3.9295,-3.8642,-3.8203,-3.7626,-3.696,-3.6581,-3.6417,-3.6304,-3.5642,-3.5031,-3.4663,-3.3985,-3.347,-3.3156,-3.3124,-3.3124,-3.3124,-3.3124,-3.3124,-3.3124,-3.3124,-3.3124,-3.3124,-3.3124,-3.3124,-3.3124,-3.3124,-3.298,-3.2792,-3.2102,-3.1549,-3.1173,-3.0984,-3.0733,-3.0382,-2.9993,-2.9792,-2.9779,-2.9779,-2.9779,-2.9779,-2.9779,-2.9779,-2.9779,-2.9779,-2.9779,-2.9779,-2.9779,-2.9779,-2.9779,-2.9779,-2.9453,-2.88,-2.831,-2.7645,-2.6612,-2.6487,-2.6487,-2.6487,-2.6487,-2.6487,-2.6386,-2.5649,-2.5046,-2.4707,-2.4073,-2.3409,-2.3183,-2.3095,-2.3095,-2.3155,-2.3335,-2.3442,-2.3245,-2.3695,-2.3917,-2.347,-2.2951,-2.2736,-2.2791,-2.2608,-2.2526,-2.3017,-2.3465,-2.3486,-2.3565,-2.3565,-2.3131,-2.2293,-2.159,-2.0961,-2.0348,-1.9894,-1.9744,-1.9708,-1.9723,-1.9723,-4.2986,-4.2986,-4.2986,-4.2986,-4.2986,-4.2986,-4.2986,-4.2811,-4.1819,-4.1275,-4.1062,-4.0187,-3.9697,-3.9697,-3.9697,-3.9697,-3.9697,-3.9697,-3.9521,-3.9069,-3.8329,-3.7726,-3.7174,-3.6669,-3.6417,-3.6317,-3.5805,-3.5332,-3.4956,-3.4274,-3.3721,-3.342,-3.3237,-3.3124,-3.3124,-3.3124,-3.3124,-3.3124,-3.3124,-3.3124,-3.3124,-3.3124,-3.3124,-3.3124,-3.3124,-3.3124,-3.3056,-3.2717,-3.2277,-3.1763,-3.1512,-3.1223,-3.0896,-3.0407,-3.0093,-3.0055,-2.9905,-2.9779,-2.9779,-2.9779,-2.9779,-2.9779,-2.9779,-2.9779,-2.9779,-2.9779,-2.9779,-2.9779,-2.9779,-2.9553,-2.8988,-2.8436,-2.7708,-2.6914,-2.6612,-2.6512,-2.6487,-2.6487,-2.6487,-2.6323,-2.5686,-2.5134,-2.4637,-2.4086,-2.3346,-2.3183,-2.3095,-2.3095,-2.3095,-2.3095,-2.3095,-2.3095,-2.3245,-2.328,-2.311,-2.2656,-2.2145,-2.2102,-2.2088,-2.213,-2.2409,-2.2928,-2.3157,-2.3352,-2.3415,-2.2802,-2.2009,-2.147,-2.0872,-2.0288,-1.9723,-1.9723,-1.9723,-1.9723,-1.9723,-4.2986,-4.2986,-4.2986,-4.2986,-4.2986,-4.2986,-4.2986,-4.2811,-4.1806,-4.1275,-4.105,-4.0174,-3.9697,-3.9697,-3.9697,-3.9697,-3.9697,-3.9697,-3.9517,-3.9064,-3.8278,-3.7369,-3.6733,-3.626,-3.6168,-3.6282,-3.5868,-3.5558,-3.5357,-3.4512,-3.3922,-3.3796,-3.3332,-3.3124,-3.3124,-3.3124,-3.3124,-3.3124,-3.3124,-3.3124,-3.3124,-3.3124,-3.3124,-3.3124,-3.3124,-3.3124,-3.3111,-3.3048,-3.278,-3.2277,-3.1788,-3.1486,-3.1348,-3.0934,-3.0658,-3.0633,-3.0143,-2.9942,-2.9867,-2.9817,-2.9779,-2.9779,-2.9779,-2.9779,-2.9779,-2.9779,-2.9779,-2.9779,-2.9779,-2.9591,-2.9063,-2.8549,-2.7946,-2.7344,-2.6801,-2.6524,-2.6487,-2.6487,-2.6487,-2.6399,-2.595,-2.5423,-2.4946,-2.4356,-2.3735,-2.3371,-2.3183,-2.3095,-2.3095,-2.3095,-2.3095,-2.3095,-2.3095,-2.3083,-2.3045,-2.2636,-2.2103,-2.177,-2.1706,-2.1715,-2.1964,-2.2483,-2.3068,-2.3229,-2.3223,-2.2557,-2.1919,-2.144,-2.0752,-2.0037,-1.9738,-1.9723,-1.9723,-1.9723,-1.9723,-4.2986,-4.2986,-4.2986,-4.2986,-4.2986,-4.2986,-4.2986,-4.2836,-4.1752,-4.1168,-4.105,-4.0187,-3.9645,-3.9697,-3.9697,-3.9697,-3.9697,-3.9697,-3.9025,-3.8008,-3.7025,-3.6033,-3.5295,-3.5066,-3.5475,-3.6178,-3.6075,-3.5943,-3.547,-3.4657,-3.419,-3.3884,-3.3233,-3.305,-3.3124,-3.305,-3.3124,-3.3124,-3.3081,-3.3025,-3.2982,-3.2982,-3.3124,-3.3124,-3.3081,-3.3081,-3.3124,-3.3124,-3.3074,-3.2842,-3.2303,-3.1989,-3.1951,-3.1499,-3.1198,-3.111,-3.0721,-3.0394,-3.0306,-3.003,-2.9817,-2.9779,-2.9804,-2.9779,-2.9779,-2.9792,-2.9792,-2.9779,-2.9779,-2.9729,-2.9478,-2.9026,-2.8323,-2.7442,-2.6851,-2.6524,-2.6487,-2.6487,-2.6487,-2.6424,-2.5937,-2.5598,-2.5247,-2.4632,-2.3979,-2.3728,-2.3384,-2.3095,-2.3095,-2.3095,-2.3095,-2.3095,-2.3095,-2.3095,-2.297,-2.2569,-2.2124,-2.1643,-2.1388,-2.1235,-2.1645,-2.223,-2.286,-2.3398,-2.3317,-2.2812,-2.2172,-2.1605,-2.0756,-2.0022,-1.9753,-1.9705,-1.9723,-1.9723,-1.9723,-4.2986,-4.2986,-4.2986,-4.2986,-4.2986,-4.2986,-4.2986,-4.2637,-4.1138,-4.036,-4.0114,-3.9259,-3.8752,-3.8856,-3.9413,-3.9697,-3.9697,-3.9697,-3.8856,-3.7298,-3.5212,-3.4016,-3.3684,-3.403,-3.4836,-3.5475,-3.5571,-3.5351,-3.4831,-3.3931,-3.3204,-3.2753,-3.2151,-3.2095,-3.2538,-3.2381,-3.2326,-3.2283,-3.2283,-3.2096,-3.1601,-3.1557,-3.1921,-3.2152,-3.2339,-3.2469,-3.2982,-3.3124,-3.3124,-3.3048,-3.2754,-3.2579,-3.2528,-3.2051,-3.1738,-3.1712,-3.1248,-3.0859,-3.0608,-3.0294,-3.0156,-3.008,-2.9967,-2.9942,-3.003,-2.9967,-2.9779,-2.9779,-2.9779,-2.9779,-2.9704,-2.9277,-2.8448,-2.7482,-2.7027,-2.6738,-2.6549,-2.6487,-2.6487,-2.6411,-2.621,-2.5858,-2.5636,-2.4845,-2.4343,-2.3954,-2.3452,-2.3221,-2.3095,-2.3095,-2.3095,-2.3095,-2.3095,-2.3095,-2.3095,-2.2794,-2.2418,-2.1898,-2.1266,-2.1068,-2.1239,-2.1817,-2.2346,-2.2838,-2.3076,-2.3039,-2.2346,-2.1739,-2.1171,-2.0561,-2.0064,-1.972,-1.9723,-1.9723,-1.9723,-4.2986,-4.2986,-4.2986,-4.2986,-4.2986,-4.2986,-4.2986,-4.2538,-4.0347,-3.9256,-3.9029,-3.8036,-3.7767,-3.7583,-3.8739,-3.9426,-3.9362,-3.8921,-3.7887,-3.5883,-3.3438,-3.1625,-3.1823,-3.2905,-3.3723,-3.4117,-3.4178,-3.4166,-3.3758,-3.2385,-3.169,-3.1558,-3.0773,-3.0753,-3.1422,-3.1262,-3.1083,-3.1045,-3.1045,-3.0631,-3.0,-2.9852,-3.0271,-3.0911,-3.1045,-3.1645,-3.2426,-3.2797,-3.2797,-3.2896,-3.3038,-3.292,-3.287,-3.2347,-3.234,-3.2202,-3.18,-3.1298,-3.0896,-3.0821,-3.0696,-3.0633,-3.0269,-3.0105,-3.0407,-3.0181,-2.993,-2.9792,-2.9779,-2.9779,-2.9716,-2.9277,-2.8599,-2.777,-2.7457,-2.703,-2.6713,-2.6524,-2.6487,-2.6487,-2.6487,-2.6223,-2.5795,-2.5222,-2.472,-2.4318,-2.3791,-2.3384,-2.3208,-2.3095,-2.3095,-2.3095,-2.3095,-2.3095,-2.3095,-2.3058,-2.2681,-2.2246,-2.1446,-2.1034,-2.0849,-2.1265,-2.1664,-2.2044,-2.24,-2.257,-2.2412,-2.1865,-2.1406,-2.0902,-2.0285,-1.9959,-1.9753,-1.9723,-1.9723,-4.2986,-4.2986,-4.2986,-4.2986,-4.2986,-4.2986,-4.2986,-4.2693,-4.0168,-3.8911,-3.8785,-3.7929,-3.7382,-3.7412,-3.7743,-3.7967,-3.7743,-3.6806,-3.5136,-3.2847,-3.0704,-2.9429,-2.9584,-3.068,-3.1796,-3.2482,-3.2744,-3.2744,-3.2469,-3.1867,-3.1455,-3.1278,-3.0535,-3.0457,-3.0345,-3.0247,-3.0078,-2.984,-2.9772,-2.9636,-2.9315,-2.9131,-2.9361,-2.9772,-2.9818,-3.0451,-3.1311,-3.1589,-3.1589,-3.1821,-3.237,-3.2469,-3.2016,-3.2463,-3.2787,-3.2717,-3.2353,-3.1976,-3.18,-3.1449,-3.1223,-3.1198,-3.1035,-3.0922,-3.0595,-3.052,-3.0206,-2.993,-2.9779,-2.9779,-2.9741,-2.9277,-2.88,-2.8411,-2.7821,-2.7341,-2.7115,-2.6738,-2.6512,-2.6487,-2.6487,-2.6449,-2.6251,-2.5711,-2.5184,-2.4695,-2.4167,-2.3653,-2.3371,-2.3183,-2.3095,-2.3095,-2.3095,-2.3095,-2.3095,-2.3058,-2.2794,-2.2456,-2.1769,-2.1169,-2.1,-2.0809,-2.1253,-2.1557,-2.1828,-2.1931,-2.2047,-2.1945,-2.1485,-2.0995,-2.0542,-2.0229,-1.9972,-1.9859,-1.9723,-4.2986,-4.2986,-4.2986,-4.2986,-4.2986,-4.2986,-4.2557,-4.1452,-3.9181,-3.7643,-3.6793,-3.5869,-3.5453,-3.5497,-3.6097,-3.6487,-3.6094,-3.468,-3.3246,-3.1625,-2.9858,-2.8755,-2.8413,-2.9059,-3.0068,-3.1173,-3.1378,-3.1378,-3.1138,-3.0538,-2.9868,-2.9928,-2.94,-2.9133,-2.9284,-2.9124,-2.878,-2.8595,-2.8541,-2.8308,-2.7757,-2.7673,-2.8075,-2.8634,-2.9039,-2.9772,-3.0316,-3.0361,-3.0045,-3.0,-3.0732,-3.1424,-3.15,-3.2382,-3.3025,-3.3048,-3.2842,-3.2441,-3.2202,-3.1964,-3.1775,-3.1763,-3.1562,-3.1449,-3.1173,-3.0959,-3.0507,-3.0206,-2.9967,-2.9779,-2.9779,-2.9591,-2.9277,-2.885,-2.8423,-2.7971,-2.762,-2.7002,-2.6487,-2.6487,-2.6487,-2.6487,-2.6311,-2.5984,-2.5624,-2.5109,-2.4343,-2.3841,-2.3622,-2.3421,-2.3158,-2.3095,-2.3095,-2.3095,-2.3095,-2.3007,-2.2832,-2.2518,-2.2092,-2.1606,-2.1304,-2.1053,-2.0873,-2.1143,-2.1375,-2.1574,-2.1657,-2.1589,-2.1504,-2.1076,-2.0682,-2.0445,-2.0241,-2.0108,-1.9908,-4.2986,-4.2986,-4.2986,-4.2986,-4.2986,-4.2986,-4.215,-4.0437,-3.7954,-3.6263,-3.4604,-3.3534,-3.3575,-3.3473,-3.4459,-3.4847,-3.4151,-3.2968,-3.1578,-3.1049,-2.951,-2.8667,-2.8393,-2.8548,-2.8953,-2.9911,-3.0016,-3.0016,-2.9713,-2.8943,-2.8714,-2.8304,-2.7731,-2.7975,-2.8272,-2.7921,-2.7533,-2.7357,-2.7258,-2.6935,-2.6197,-2.6014,-2.6524,-2.7258,-2.7981,-2.8727,-2.9004,-2.9085,-2.8727,-2.7778,-2.8901,-3.0,-3.0899,-3.2052,-3.2797,-3.2797,-3.2834,-3.2646,-3.2164,-3.2184,-3.234,-3.2328,-3.1976,-3.1838,-3.1876,-3.1461,-3.1022,-3.0633,-3.0344,-2.993,-2.9817,-2.9729,-2.9515,-2.9151,-2.8976,-2.8675,-2.8185,-2.7268,-2.6776,-2.665,-2.6575,-2.6487,-2.6386,-2.6147,-2.5871,-2.5485,-2.472,-2.4142,-2.3966,-2.3697,-2.3471,-2.3221,-2.3233,-2.312,-2.3095,-2.3095,-2.2895,-2.2744,-2.2393,-2.208,-2.1694,-2.1359,-2.1092,-2.0759,-2.0891,-2.1053,-2.1257,-2.1309,-2.1185,-2.0981,-2.0857,-2.0667,-2.0494,-2.0338,-2.011,-4.2986,-4.2986,-4.2986,-4.2986,-4.2986,-4.2986,-4.2081,-4.0356,-3.7897,-3.5975,-3.4412,-3.3487,-3.2975,-3.3134,-3.3247,-3.2815,-3.193,-3.091,-3.0272,-3.0013,-2.8957,-2.8359,-2.833,-2.8291,-2.8495,-2.8548,-2.8751,-2.8804,-2.8751,-2.8398,-2.8301,-2.8262,-2.8076,-2.7947,-2.7507,-2.7141,-2.6784,-2.6385,-2.6275,-2.5965,-2.5771,-2.5732,-2.5781,-2.6245,-2.661,-2.7078,-2.772,-2.7908,-2.7778,-2.7814,-2.9715,-3.0181,-3.0169,-3.0956,-3.15,-3.1865,-3.2612,-3.2654,-3.1758,-3.237,-3.2819,-3.2905,-3.2742,-3.2478,-3.2303,-3.2001,-3.1587,-3.116,-3.0733,-3.0281,-2.9829,-2.9804,-2.9767,-2.9528,-2.9239,-2.8913,-2.8599,-2.7959,-2.7253,-2.7178,-2.6864,-2.6487,-2.6386,-2.6298,-2.6122,-2.5858,-2.5322,-2.4833,-2.4619,-2.428,-2.3916,-2.3634,-2.3396,-2.3246,-2.3095,-2.3095,-2.3032,-2.3007,-2.2794,-2.2619,-2.2221,-2.1707,-2.1357,-2.1024,-2.0579,-2.0409,-2.0641,-2.0914,-2.0884,-2.0684,-2.0762,-2.0879,-2.0543,-2.0264,-2.0371,-4.2986,-4.2986,-4.2986,-4.2986,-4.2986,-4.2986,-4.1602,-3.9313,-3.7575,-3.5522,-3.3613,-3.2413,-3.1988,-3.1988,-3.1988,-3.1488,-3.0818,-2.9971,-2.9609,-2.9385,-2.873,-2.8301,-2.8301,-2.8301,-2.8291,-2.8291,-2.8291,-2.8301,-2.8291,-2.8301,-2.8301,-2.8232,-2.8105,-2.7744,-2.7324,-2.6906,-2.6533,-2.6074,-2.582,-2.5693,-2.5684,-2.5684,-2.5684,-2.5684,-2.5684,-2.6062,-2.638,-2.661,-2.662,-2.6802,-2.7709,-2.8623,-2.9361,-2.9954,-3.0586,-3.1223,-3.2326,-3.2513,-3.1689,-3.2326,-3.3056,-3.3111,-3.3124,-3.3011,-3.2667,-3.2365,-3.2001,-3.1461,-3.0934,-3.048,-3.0256,-2.998,-2.9804,-2.9741,-2.9515,-2.9377,-2.9176,-2.8561,-2.8109,-2.7657,-2.7027,-2.6625,-2.6487,-2.6399,-2.6323,-2.6109,-2.5799,-2.5536,-2.5259,-2.482,-2.4381,-2.3954,-2.3622,-2.3358,-2.3195,-2.3133,-2.3108,-2.3095,-2.307,-2.2907,-2.2669,-2.2159,-2.171,-2.1314,-2.0786,-2.0168,-2.0207,-2.0517,-2.0458,-2.0499,-2.0806,-2.0937,-2.0474,-2.0237,-2.0337,-4.2986,-4.2986,-4.2986,-4.2986,-4.2974,-4.2625,-4.0808,-3.8263,-3.6872,-3.4769,-3.2215,-3.1329,-3.1005,-3.0947,-3.0947,-3.0937,-3.0801,-2.9971,-2.9609,-2.9394,-2.8701,-2.8301,-2.8301,-2.8301,-2.8301,-2.8301,-2.8301,-2.8301,-2.8301,-2.8301,-2.8301,-2.8242,-2.7939,-2.7787,-2.7529,-2.7109,-2.667,-2.6299,-2.6084,-2.581,-2.5703,-2.5684,-2.5684,-2.5684,-2.5684,-2.5732,-2.582,-2.5868,-2.5868,-2.5965,-2.639,-2.7115,-2.8727,-2.9498,-3.0,-3.0643,-3.2064,-3.2196,-3.1877,-3.2382,-3.3124,-3.3124,-3.3124,-3.3111,-3.3023,-3.2629,-3.2202,-3.1612,-3.1273,-3.0794,-3.057,-3.0231,-2.9955,-2.9779,-2.9779,-2.9729,-2.9566,-2.9164,-2.8612,-2.8034,-2.7216,-2.6776,-2.6637,-2.6487,-2.6399,-2.6386,-2.6122,-2.6059,-2.5737,-2.5297,-2.4788,-2.4268,-2.3847,-2.3521,-2.3321,-2.3183,-2.3145,-2.3095,-2.3095,-2.302,-2.2832,-2.2569,-2.2121,-2.1606,-2.0805,-2.0267,-2.0233,-2.0131,-2.0142,-2.0354,-2.0888,-2.0984,-2.058,-2.0332,-2.0318,-4.2986,-4.2986,-4.2986,-4.2986,-4.2737,-4.1533,-3.9673,-3.7551,-3.5633,-3.3633,-3.1621,-3.1143,-3.0898,-3.0898,-3.0898,-3.0898,-3.0625,-3.0029,-2.9636,-2.9434,-2.8711,-2.8301,-2.8301,-2.8301,-2.8301,-2.8301,-2.8301,-2.8301,-2.8301,-2.8301,-2.8301,-2.8252,-2.8203,-2.8057,-2.7796,-2.7513,-2.718,-2.6543,-2.6348,-2.6123,-2.5781,-2.5703,-2.5684,-2.5684,-2.5684,-2.5684,-2.5684,-2.5684,-2.5684,-2.583,-2.6754,-2.74,-2.8132,-2.9943,-2.9498,-2.9681,-3.0687,-3.2556,-3.1545,-3.2339,-3.3124,-3.3124,-3.3124,-3.3124,-3.3074,-3.298,-3.2654,-3.2177,-3.1976,-3.1587,-3.0959,-3.0583,-3.0269,-3.0005,-2.9829,-2.9804,-2.9704,-2.9528,-2.9051,-2.8612,-2.7833,-2.719,-2.6788,-2.6625,-2.6487,-2.6474,-2.6449,-2.6373,-2.6172,-2.5649,-2.5277,-2.4782,-2.4274,-2.3948,-2.371,-2.3534,-2.3346,-2.3233,-2.312,-2.312,-2.297,-2.2769,-2.2498,-2.1895,-2.1091,-2.044,-2.0217,-2.0091,-1.9964,-2.008,-2.0408,-2.0633,-2.0743,-2.0532,-2.0227,-4.2986,-4.2986,-4.2986,-4.2432,-4.1566,-4.0661,-3.87,-3.6306,-3.4769,-3.3161,-3.1692,-3.1084,-3.0898,-3.0898,-3.0898,-3.0898,-3.0693,-3.0037,-2.9646,-2.9394,-2.876,-2.8301,-2.8301,-2.8301,-2.8301,-2.8301,-2.8301,-2.8301,-2.8301,-2.8301,-2.8301,-2.8301,-2.8291,-2.8223,-2.7959,-2.7826,-2.7542,-2.708,-2.668,-2.6309,-2.6094,-2.584,-2.5693,-2.5684,-2.5693,-2.5684,-2.5684,-2.5684,-2.5684,-2.5781,-2.6342,-2.6897,-2.7531,-2.8541,-2.8773,-2.9177,-3.0676,-3.1323,-3.0586,-3.2108,-3.2853,-3.3124,-3.3124,-3.3124,-3.3124,-3.3111,-3.3018,-3.2729,-3.239,-3.1964,-3.1461,-3.0959,-3.0595,-3.0281,-3.0005,-2.9842,-2.9767,-2.9628,-2.934,-2.8925,-2.8499,-2.7871,-2.7243,-2.6914,-2.6725,-2.6587,-2.6524,-2.6436,-2.6235,-2.585,-2.5561,-2.5322,-2.4883,-2.4449,-2.4236,-2.4048,-2.3803,-2.3615,-2.3195,-2.317,-2.3095,-2.2895,-2.2631,-2.2422,-2.1882,-2.1192,-2.0489,-2.0088,-1.9976,-1.9874,-1.9824,-2.0105,-2.0346,-2.0206,-2.0022,-4.2375,-4.2444,-4.2388,-4.1488,-3.9954,-3.9162,-3.7347,-3.5079,-3.3727,-3.2527,-3.1584,-3.1035,-3.0898,-3.0898,-3.0898,-3.0889,-3.081,-2.9971,-2.9704,-2.9287,-2.8799,-2.835,-2.8301,-2.8301,-2.8301,-2.8301,-2.8301,-2.8301,-2.8301,-2.8301,-2.8301,-2.8301,-2.8301,-2.8271,-2.8213,-2.8027,-2.7764,-2.7581,-2.6914,-2.6602,-2.6475,-2.6133,-2.5927,-2.584,-2.5762,-2.5684,-2.5684,-2.5684,-2.5684,-2.5732,-2.5781,-2.6294,-2.6945,-2.7589,-2.8132,-2.8855,-3.0361,-3.0989,-3.0956,-3.1833,-3.2853,-3.3124,-3.3124,-3.3124,-3.3124,-3.3124,-3.3111,-3.3048,-3.2742,-3.2441,-3.2089,-3.1436,-3.1009,-3.0633,-3.0256,-3.003,-2.9817,-2.9704,-2.9603,-2.9327,-2.8976,-2.8624,-2.8034,-2.7369,-2.7027,-2.6763,-2.6625,-2.6524,-2.6298,-2.6013,-2.5925,-2.5762,-2.5385,-2.5021,-2.487,-2.4632,-2.4343,-2.3954,-2.3534,-2.3221,-2.3133,-2.307,-2.2907,-2.2656,-2.2418,-2.1995,-2.1292,-2.0602,-1.9974,-1.9874,-1.9798,-1.9798,-1.9875,-1.9798,-1.9837,-4.0777,-4.0777,-4.0719,-3.9744,-3.8216,-3.6334,-3.5219,-3.4157,-3.2494,-3.1505,-3.1064,-3.0908,-3.0898,-3.0898,-3.0898,-3.0898,-3.085,-2.9971,-2.9678,-2.9316,-2.8769,-2.8398,-2.832,-2.8301,-2.8301,-2.8301,-2.8301,-2.8301,-2.8301,-2.8301,-2.8301,-2.8301,-2.8301,-2.8301,-2.8281,-2.8193,-2.8008,-2.7796,-2.7226,-2.7002,-2.6855,-2.6602,-2.6357,-2.625,-2.5937,-2.5693,-2.5693,-2.5693,-2.5684,-2.5684,-2.5684,-2.5732,-2.6245,-2.6849,-2.7437,-2.8319,-2.9863,-3.0631,-3.1178,-3.2064,-3.2896,-3.3124,-3.3124,-3.3124,-3.3124,-3.3124,-3.3124,-3.3124,-3.2918,-3.2717,-3.2428,-3.2051,-3.1499,-3.1072,-3.0658,-3.0281,-3.0043,-2.9817,-2.9716,-2.9628,-2.9415,-2.9101,-2.8775,-2.816,-2.7582,-2.7329,-2.6839,-2.6725,-2.6524,-2.6311,-2.6348,-2.621,-2.5824,-2.5573,-2.5498,-2.5197,-2.4732,-2.4305,-2.3904,-2.3471,-2.3158,-2.3095,-2.3032,-2.292,-2.2669,-2.238,-2.2083,-2.1368,-2.069,-2.0075,-1.9798,-1.9798,-1.9798,-1.9798,-1.9798,-3.9452,-3.7664,-3.7664,-3.7128,-3.6318,-3.5191,-3.3989,-3.2632,-3.1594,-3.1064,-3.0898,-3.0898,-3.0898,-3.0898,-3.0898,-3.0898,-3.081,-3.0273,-2.9863,-2.9453,-2.8984,-2.8574,-2.8418,-2.8301,-2.8301,-2.8301,-2.8301,-2.8301,-2.8301,-2.8301,-2.8301,-2.8301,-2.8301,-2.8301,-2.8301,-2.8301,-2.8184,-2.8008,-2.7656,-2.7422,-2.7324,-2.7012,-2.6768,-2.6738,-2.6367,-2.6162,-2.6103,-2.5801,-2.5723,-2.5684,-2.5684,-2.5684,-2.5684,-2.6284,-2.6945,-2.7683,-2.9407,-3.0451,-3.14,-3.237,-3.3081,-3.3124,-3.3124,-3.3124,-3.3124,-3.3124,-3.3124,-3.3124,-3.3124,-3.2893,-3.2817,-3.2416,-3.1938,-3.1537,-3.1122,-3.0683,-3.0294,-3.0043,-2.9817,-2.9729,-2.9679,-2.9528,-2.9252,-2.8938,-2.8386,-2.7871,-2.7331,-2.6901,-2.6713,-2.6499,-2.6487,-2.6487,-2.616,-2.6084,-2.5996,-2.5561,-2.5096,-2.4682,-2.4255,-2.3816,-2.3384,-2.3133,-2.3058,-2.2995,-2.2932,-2.2656,-2.233,-2.197,-2.1343,-2.0541,-2.0063,-1.9798,-1.9798,-1.9798,-1.9798,-3.7832,-3.5785,-3.519,-3.4718,-3.4449,-3.3996,-3.2943,-3.1603,-3.1084,-3.0898,-3.0898,-3.0898,-3.0898,-3.0898,-3.0898,-3.0898,-3.0771,-3.0391,-2.9971,-2.9531,-2.9101,-2.8701,-2.8428,-2.8301,-2.8301,-2.8301,-2.8301,-2.8301,-2.8301,-2.8301,-2.8301,-2.8301,-2.8301,-2.8301,-2.8301,-2.8301,-2.8301,-2.8203,-2.8047,-2.7904,-2.7793,-2.7441,-2.7207,-2.71,-2.667,-2.6367,-2.6221,-2.5977,-2.5703,-2.5684,-2.5684,-2.5684,-2.5684,-2.5917,-2.661,-2.7814,-2.8958,-3.009,-3.1545,-3.2457,-3.3124,-3.3124,-3.3124,-3.3124,-3.3124,-3.3124,-3.3124,-3.3124,-3.3124,-3.3124,-3.3099,-3.2729,-3.2353,-3.1964,-3.1662,-3.1235,-3.0658,-3.0294,-3.003,-2.9817,-2.9767,-2.9716,-2.9616,-2.9315,-2.8787,-2.8185,-2.7494,-2.7092,-2.6952,-2.6725,-2.6487,-2.6487,-2.6411,-2.6411,-2.6424,-2.6047,-2.5624,-2.5134,-2.4682,-2.4117,-2.3715,-2.3396,-2.3133,-2.3058,-2.2982,-2.2869,-2.2619,-2.2309,-2.1619,-2.0869,-2.0377,-1.9874,-1.9798,-1.9798,-1.9798,-3.5918,-3.557,-3.3755,-3.2917,-3.2903,-3.2446,-3.1945,-3.1435,-3.1064,-3.0898,-3.0898,-3.0898,-3.0898,-3.0898,-3.0898,-3.0898,-3.081,-3.0459,-3.0019,-2.957,-2.9219,-2.875,-2.8437,-2.8301,-2.8301,-2.8301,-2.8301,-2.8301,-2.8301,-2.8301,-2.8301,-2.8301,-2.8301,-2.8301,-2.8301,-2.8301,-2.8301,-2.8291,-2.8242,-2.8213,-2.8115,-2.7812,-2.7685,-2.749,-2.6982,-2.665,-2.6562,-2.6123,-2.5898,-2.582,-2.5723,-2.5693,-2.5684,-2.5684,-2.6744,-2.8716,-2.9189,-3.0553,-3.2667,-3.2982,-3.3025,-3.2939,-3.2797,-3.2982,-3.3025,-3.3081,-3.3124,-3.3124,-3.3124,-3.3124,-3.3111,-3.3006,-3.2679,-3.2416,-3.2114,-3.165,-3.1047,-3.052,-3.0244,-2.9892,-2.9804,-2.9779,-2.9779,-2.9616,-2.9114,-2.8486,-2.772,-2.7331,-2.7168,-2.6977,-2.6713,-2.6487,-2.6487,-2.6487,-2.6487,-2.6487,-2.6185,-2.5649,-2.5109,-2.4544,-2.4004,-2.3615,-2.3358,-2.3183,-2.3058,-2.2982,-2.2819,-2.2631,-2.1945,-2.1282,-2.044,-1.9949,-1.9861,-1.9798,-1.9798,-3.5036,-3.3765,-3.308,-3.2461,-3.1973,-3.1807,-3.1494,-3.1123,-3.0957,-3.0898,-3.0898,-3.0898,-3.0898,-3.0898,-3.0898,-3.0898,-3.085,-3.0791,-3.0351,-2.96,-2.9375,-2.8896,-2.8516,-2.8301,-2.8301,-2.8301,-2.8301,-2.8301,-2.8301,-2.8301,-2.8301,-2.8301,-2.8301,-2.8301,-2.8301,-2.8301,-2.8301,-2.8301,-2.8291,-2.8281,-2.8271,-2.8144,-2.8047,-2.8027,-2.7461,-2.7168,-2.71,-2.6514,-2.6201,-2.6113,-2.5996,-2.5742,-2.5723,-2.5713,-2.6514,-2.8179,-2.8819,-3.0553,-3.2339,-3.3025,-3.2655,-3.2463,-3.2624,-3.2711,-3.2096,-3.2754,-3.2939,-3.3124,-3.3124,-3.3124,-3.3111,-3.3111,-3.2867,-3.278,-3.2453,-3.1888,-3.1323,-3.0821,-3.0419,-2.9993,-2.9779,-2.9779,-2.9779,-2.9779,-2.939,-2.9189,-2.8549,-2.7808,-2.7519,-2.7256,-2.7014,-2.6637,-2.6487,-2.6487,-2.6487,-2.6487,-2.6336,-2.5824,-2.5398,-2.4958,-2.4431,-2.3929,-2.3552,-2.3333,-2.3208,-2.3083,-2.2932,-2.2732,-2.2318,-2.1707,-2.0978,-2.025,-1.9974,-1.9874,-1.9798,-3.398,-3.2835,-3.2471,-3.2041,-3.1562,-3.1514,-3.1279,-3.0947,-3.0898,-3.0898,-3.0898,-3.0898,-3.0898,-3.0898,-3.0898,-3.0898,-3.0898,-3.0869,-3.041,-2.9724,-2.957,-2.9014,-2.8525,-2.8301,-2.8301,-2.8301,-2.8301,-2.8301,-2.8301,-2.8301,-2.8301,-2.8301,-2.8301,-2.8301,-2.8301,-2.8301,-2.8301,-2.8301,-2.8301,-2.8291,-2.8291,-2.8262,-2.8271,-2.8154,-2.7891,-2.7689,-2.7461,-2.708,-2.6602,-2.6484,-2.625,-2.5927,-2.5888,-2.5918,-2.642,-2.7542,-2.9269,-3.0859,-3.2264,-3.3308,-3.2913,-3.2193,-3.2753,-3.2636,-3.2096,-3.2754,-3.2982,-3.3124,-3.3124,-3.3124,-3.3124,-3.3124,-3.3086,-3.2986,-3.2797,-3.219,-3.1725,-3.1223,-3.0746,-3.0306,-2.9867,-2.9854,-2.9779,-2.9779,-2.9666,-2.9566,-2.9415,-2.8674,-2.7921,-2.762,-2.7306,-2.6939,-2.665,-2.665,-2.6587,-2.6487,-2.6285,-2.595,-2.5624,-2.531,-2.487,-2.4368,-2.3929,-2.3459,-2.3283,-2.3133,-2.3045,-2.2819,-2.2531,-2.2192,-2.1732,-2.1004,-2.0289,-2.0037,-1.9974,-3.2773,-3.2637,-3.1865,-3.1533,-3.1484,-3.1445,-3.124,-3.0898,-3.0898,-3.0898,-3.0898,-3.0898,-3.0898,-3.0898,-3.0898,-3.0898,-3.084,-3.084,-3.0283,-2.9746,-2.9492,-2.8916,-2.8525,-2.8301,-2.8301,-2.8301,-2.8301,-2.8301,-2.8301,-2.8301,-2.8301,-2.8301,-2.8301,-2.8301,-2.8301,-2.8301,-2.8301,-2.8301,-2.8301,-2.8301,-2.8301,-2.8301,-2.8301,-2.8193,-2.7988,-2.7822,-2.7627,-2.7314,-2.71,-2.6894,-2.6641,-2.6455,-2.625,-2.5977,-2.6625,-2.7767,-2.9772,-3.0845,-3.2169,-3.3128,-3.3538,-3.3004,-3.3093,-3.3108,-3.2959,-3.2884,-3.3081,-3.3124,-3.3124,-3.3124,-3.3124,-3.3124,-3.3124,-3.3099,-3.3099,-3.2629,-3.2177,-3.17,-3.1223,-3.0733,-3.0206,-2.998,-2.9817,-2.9779,-2.9779,-2.9729,-2.9616,-2.9415,-2.8687,-2.8072,-2.7708,-2.7241,-2.7002,-2.6864,-2.6751,-2.6537,-2.6436,-2.6197,-2.595,-2.5636,-2.5209,-2.4757,-2.4243,-2.3747,-2.3384,-2.317,-2.3083,-2.2982,-2.2857,-2.2506,-2.2184,-2.1443,-2.0629,-2.0376,-2.0263,-3.2432,-3.1865,-3.1611,-3.1348,-3.1094,-3.1074,-3.0996,-3.0908,-3.0898,-3.0898,-3.0898,-3.0898,-3.0898,-3.0898,-3.0898,-3.0898,-3.0752,-3.0518,-3.0078,-2.9658,-2.9268,-2.8789,-2.8467,-2.8301,-2.8301,-2.8301,-2.8301,-2.8301,-2.8301,-2.8301,-2.8301,-2.8301,-2.8301,-2.8301,-2.8301,-2.8301,-2.8301,-2.8301,-2.8301,-2.8301,-2.8301,-2.8301,-2.8301,-2.8213,-2.8164,-2.8057,-2.7959,-2.7685,-2.751,-2.7402,-2.7051,-2.6758,-2.6357,-2.629,-2.6703,-2.7473,-2.8719,-2.9789,-3.1689,-3.2697,-3.331,-3.382,-3.3876,-3.3096,-3.283,-3.2897,-3.3144,-3.3124,-3.3124,-3.3124,-3.3124,-3.3124,-3.3124,-3.3124,-3.3099,-3.283,-3.2403,-3.2064,-3.1574,-3.0959,-3.0444,-3.0093,-2.9917,-2.9779,-2.9779,-2.9779,-2.9741,-2.9628,-2.9402,-2.8775,-2.821,-2.7708,-2.7266,-2.7115,-2.6763,-2.6524,-2.6499,-2.6424,-2.621,-2.595,-2.5573,-2.5096,-2.4531,-2.4004,-2.3471,-2.3233,-2.3108,-2.3032,-2.297,-2.2844,-2.2523,-2.1732,-2.1094,-2.0853,-2.0589,-3.1982,-3.1523,-3.1338,-3.1123,-3.0918,-3.0898,-3.0898,-3.0898,-3.0898,-3.0898,-3.0898,-3.0898,-3.0898,-3.0898,-3.0889,-3.0791,-3.0557,-3.0342,-2.9902,-2.9297,-2.9033,-2.8691,-2.8428,-2.8301,-2.8301,-2.8301,-2.8301,-2.8301,-2.8301,-2.8301,-2.8301,-2.8301,-2.8301,-2.8301,-2.8301,-2.8301,-2.8301,-2.8301,-2.8301,-2.8301,-2.8301,-2.8301,-2.8301,-2.8301,-2.8301,-2.8301,-2.8281,-2.7978,-2.793,-2.7851,-2.749,-2.7187,-2.6797,-2.6671,-2.633,-2.7023,-2.7881,-2.9015,-3.0589,-3.2371,-3.3384,-3.424,-3.4438,-3.416,-3.3516,-3.332,-3.3238,-3.3124,-3.3124,-3.3124,-3.3124,-3.3124,-3.3124,-3.3124,-3.3048,-3.293,-3.2641,-3.2365,-3.18,-3.116,-3.0696,-3.0306,-3.0055,-2.9892,-2.9779,-2.9779,-2.9779,-2.9741,-2.9641,-2.9352,-2.8825,-2.8335,-2.7733,-2.7281,-2.6952,-2.6612,-2.6512,-2.6487,-2.6424,-2.6185,-2.5862,-2.5435,-2.487,-2.4192,-2.3514,-2.3296,-2.312,-2.3108,-2.3045,-2.2932,-2.2819,-2.2334,-2.1744,-2.1395,-2.1066,-3.1504,-3.1426,-3.1055,-3.0918,-3.0898,-3.0898,-3.0898,-3.0898,-3.0898,-3.0898,-3.0898,-3.0898,-3.0898,-3.0898,-3.0889,-3.0625,-3.0361,-3.0117,-2.9668,-2.8935,-2.8818,-2.8574,-2.8389,-2.8301,-2.8301,-2.8301,-2.8301,-2.8301,-2.8301,-2.8301,-2.8301,-2.8301,-2.8301,-2.8301,-2.8301,-2.8301,-2.8301,-2.8301,-2.8301,-2.8301,-2.8301,-2.8301,-2.8301,-2.8301,-2.8301,-2.8301,-2.8301,-2.8281,-2.8291,-2.8154,-2.7988,-2.7757,-2.7236,-2.6787,-2.6329,-2.6379,-2.7244,-2.8355,-2.9726,-3.1398,-3.314,-3.4138,-3.4818,-3.4629,-3.409,-3.3601,-3.3432,-3.3162,-3.3124,-3.3124,-3.3124,-3.3124,-3.3124,-3.3124,-3.3086,-3.3048,-3.288,-3.2554,-3.2077,-3.1474,-3.0997,-3.057,-2.9967,-2.9779,-2.9779,-2.9779,-2.9779,-2.9779,-2.9741,-2.9641,-2.9289,-2.8787,-2.7984,-2.7369,-2.7165,-2.6839,-2.6562,-2.6487,-2.6487,-2.6449,-2.621,-2.5724,-2.5197,-2.4431,-2.3653,-2.3333,-2.3158,-2.3133,-2.3108,-2.307,-2.2957,-2.2832,-2.2472,-2.2008,-2.1543,-3.1328,-3.1035,-3.0937,-3.0898,-3.0898,-3.0898,-3.0898,-3.0898,-3.0898,-3.0898,-3.0898,-3.0898,-3.0898,-3.0898,-3.0889,-3.0625,-3.0205,-2.9873,-2.9424,-2.8926,-2.8633,-2.8486,-2.831,-2.8301,-2.8301,-2.8301,-2.8301,-2.8301,-2.8301,-2.8301,-2.8301,-2.8301,-2.8301,-2.8301,-2.8301,-2.8301,-2.8301,-2.8301,-2.8301,-2.8301,-2.8301,-2.8301,-2.8301,-2.8301,-2.8301,-2.8301,-2.8301,-2.8301,-2.8301,-2.8242,-2.8213,-2.7812,-2.7187,-2.668,-2.6211,-2.6006,-2.6804,-2.7783,-2.8992,-3.0471,-3.2068,-3.3183,-3.3752,-3.4137,-3.4176,-3.3918,-3.3608,-3.335,-3.3124,-3.3124,-3.3124,-3.3124,-3.3124,-3.3124,-3.3124,-3.3124,-3.3124,-3.2717,-3.2303,-3.1825,-3.1323,-3.0746,-3.0118,-2.9817,-2.9792,-2.9779,-2.9779,-2.9779,-2.9779,-2.9704,-2.949,-2.8938,-2.7971,-2.7406,-2.7243,-2.7027,-2.6738,-2.6524,-2.6487,-2.6487,-2.6487,-2.5933,-2.5285,-2.4519,-2.3841,-2.3577,-2.3308,-2.3133,-2.3108,-2.3108,-2.3083,-2.2957,-2.2957,-2.2648,-2.2146,-3.1103,-3.0898,-3.0898,-3.0898,-3.0898,-3.0898,-3.0898,-3.0898,-3.0898,-3.0898,-3.0898,-3.0898,-3.0898,-3.0898,-3.0889,-3.0508,-3.0019,-2.9753,-2.917,-2.8701,-2.8476,-2.8359,-2.8301,-2.8301,-2.8301,-2.8301,-2.8301,-2.8301,-2.8301,-2.8301,-2.8301,-2.8301,-2.8301,-2.8301,-2.8301,-2.8301,-2.8301,-2.8301,-2.8301,-2.8301,-2.8301,-2.8301,-2.8301,-2.8301,-2.8301,-2.8301,-2.8301,-2.8301,-2.8301,-2.8301,-2.8271,-2.7793,-2.7246,-2.6836,-2.6475,-2.6348,-2.6702,-2.7396,-2.8452,-2.9671,-3.0906,-3.1805,-3.3377,-3.403,-3.4123,-3.3949,-3.4191,-3.3884,-3.3194,-3.3136,-3.3124,-3.3124,-3.3124,-3.3124,-3.3124,-3.3124,-3.3124,-3.2973,-3.2503,-3.2051,-3.1625,-3.1273,-3.0696,-3.0269,-3.0156,-2.9779,-2.9779,-2.9779,-2.9779,-2.9779,-2.9566,-2.9252,-2.8398,-2.7833,-2.7708,-2.7331,-2.6841,-2.67,-2.6537,-2.6487,-2.6436,-2.5925,-2.5347,-2.482,-2.4318,-2.3879,-2.364,-2.3358,-2.3145,-2.3108,-2.3095,-2.3083,-2.3095,-2.3095,-2.2694,-3.0898,-3.0898,-3.0898,-3.0898,-3.0898,-3.0898,-3.0898,-3.0898,-3.0898,-3.0898,-3.0898,-3.0898,-3.0898,-3.0898,-3.0859,-3.0293,-2.9863,-2.9668,-2.9082,-2.8623,-2.8359,-2.831,-2.8301,-2.8301,-2.8301,-2.8301,-2.8301,-2.8301,-2.8301,-2.8301,-2.8301,-2.8301,-2.8301,-2.8301,-2.8301,-2.8301,-2.8301,-2.8301,-2.8301,-2.8301,-2.8301,-2.8301,-2.8301,-2.8301,-2.8301,-2.8301,-2.8301,-2.8301,-2.8301,-2.8301,-2.8252,-2.7754,-2.7393,-2.7041,-2.6748,-2.6621,-2.6865,-2.7388,-2.8024,-2.9051,-2.9881,-3.0906,-3.2805,-3.3574,-3.3467,-3.3671,-3.39,-3.3801,-3.312,-3.3014,-3.3002,-3.3081,-3.3038,-3.3124,-3.3124,-3.3124,-3.3124,-3.3111,-3.2692,-3.2265,-3.1964,-3.1637,-3.1122,-3.0696,-3.0357,-2.9967,-2.9779,-2.9779,-2.9779,-2.9779,-2.9691,-2.9553,-2.9139,-2.8662,-2.8285,-2.7645,-2.7092,-2.6851,-2.67,-2.6575,-2.6343,-2.5782,-2.545,-2.5382,-2.4913,-2.424,-2.3879,-2.3597,-2.3396,-2.3183,-2.3095,-2.3095,-2.3095,-2.3095,-2.3095,-3.0898,-3.0898,-3.0898,-3.0898,-3.0898,-3.0898,-3.0898,-3.0898,-3.0898,-3.0898,-3.0898,-3.0898,-3.0898,-3.0898,-3.0898,-3.0527,-3.0039,-2.9766,-2.9336,-2.8857,-2.8525,-2.8369,-2.831,-2.833,-2.8301,-2.8301,-2.8301,-2.8301,-2.8301,-2.8301,-2.8301,-2.8301,-2.8301,-2.8301,-2.8301,-2.8301,-2.8301,-2.8301,-2.8301,-2.8301,-2.8301,-2.8301,-2.8301,-2.8301,-2.8301,-2.8301,-2.8301,-2.8301,-2.8301,-2.8301,-2.8252,-2.7803,-2.748,-2.7285,-2.708,-2.6894,-2.7148,-2.748,-2.8137,-2.8562,-2.9167,-2.9964,-3.1286,-3.1316,-3.1405,-3.1771,-3.2062,-3.2418,-3.214,-3.2543,-3.2628,-3.2804,-3.2884,-3.3038,-3.3124,-3.3124,-3.3124,-3.3061,-3.2817,-3.2503,-3.224,-3.1662,-3.0947,-3.0633,-3.0432,-3.008,-2.9792,-2.9779,-2.9779,-2.9779,-2.9779,-2.9704,-2.9603,-2.9327,-2.885,-2.7971,-2.7381,-2.7128,-2.6813,-2.6612,-2.6233,-2.5569,-2.5336,-2.561,-2.5082,-2.4361,-2.4057,-2.3991,-2.3584,-2.3371,-2.317,-2.3095,-2.3095,-2.3005,-2.2914]},{"header":{"parameterUnit":"m.s-1","parameterCategory":1,"la1":31.0,"la2":29.5877,"lo1":-88.7671,"lo2":-86.6584,"dy":0.0162,"dx":0.0185,"nx":115,"ny":88,"refTime":"2026-05-17T12:00:00:Z","depth":0,"parameterNumber":3,"parameterNumberName":"V-component_of_WINDS"},"data":[0.0,0.0,0.0,0.0,0.0,0.0,0.0,0.0,0.0,0.0,0.0,0.0,0.0,0.0,0.0,0.0,0.0,0.0,0.0,0.0,0.0,0.0,0.0,0.0,0.0,0.0,0.0,0.0,0.0,0.0,0.0,0.0,0.0,0.0,0.0,0.0,0.0,0.0,0.0,0.0,0.0,0.0,0.0,0.0,0.0,0.0,0.0,0.0,0.0,0.0,0.0,0.0,0.0,0.0,0.0,0.0,0.0,0.0,0.0,0.0,0.0,0.0,0.0,0.0,0.0,0.0,0.0,0.0,0.0,0.0,0.0,0.0,0.0,0.0,0.0,0.0,0.0,0.0,0.0,0.0,0.0,0.0,0.0,0.0,0.0,0.0,0.0,0.0,0.0,0.0,0.0,0.0,0.0,0.0,0.0,0.0,0.0,0.0,0.0,0.0,0.0,0.0,0.0,0.0,0.0,0.0,0.0,0.0,0.0,0.0,0.0,0.0,0.0,0.0,0.0,0.0,0.0,0.0,0.0,0.0,0.0,0.0,0.0,0.0,0.0,0.0,0.0,0.0,0.0,0.0,0.0,0.0,0.0,0.0,0.0,0.0,0.0,0.0,0.0,0.0,0.0,0.0,0.0,0.0,0.0,0.0,0.0,0.0,0.0,0.0,0.0,0.0,0.0,0.0,0.0,0.0,0.0,0.0,0.0,0.0,0.0,0.0,0.0,0.0,0.0,0.0,0.0,0.0,0.0,0.0,0.0,0.0,0.0,0.0,0.0,0.0,0.0,0.0,0.0,0.0,0.0,0.0,0.0,0.0,0.0,0.0,0.0,0.0,0.0,0.0,0.0,0.0,0.0,0.0,0.0,0.0,0.0,0.0,0.0,0.0,0.0,0.0,0.0,0.0,0.0,0.0,0.0,0.0,0.0,0.0,0.0,0.0,0.0,0.0,0.0,0.0,0.0,0.0,0.0,0.0,0.0,0.0,0.0,0.0,0.0,0.0,0.0,0.0,0.0,0.0,0.0,0.0,0.0,0.0,0.0,0.0,0.0,0.0,0.0,0.0,0.0,0.0,0.0,0.0,0.0,0.0,0.0,0.0,0.0,0.0,0.0,0.0,0.0,0.0,0.0,0.0,0.0,0.0,0.0,0.0,0.0,0.0,0.0,0.0,0.0,0.0,0.0,0.0,0.0,0.0,0.0,0.0,0.0,0.0,0.0,0.0,0.0,0.0,0.0,0.0,0.0,0.0,0.0,0.0,0.0,0.0,0.0,0.0,0.0,0.0,0.0,0.0,0.0,0.0,0.0,0.0,0.0,0.0,0.0,0.0,0.0,0.0,0.0,0.0,0.0,0.0,0.0,0.0,0.0,0.0,0.0,0.0,0.0,0.0,0.0,0.0,0.0,0.0,0.0,0.0,0.0,0.0,0.0,0.0,0.0,0.0,0.0,0.0,0.0,0.0,0.0,0.0,0.0,0.0,0.0,0.0,0.0,0.0,0.0,0.0,0.0,0.0,0.0,0.0,0.0,0.0,0.0,0.0,0.0,0.0,0.0,0.0,0.0,0.0,0.0,0.0,0.0,0.0,0.0,0.0,0.0,0.0,0.0,0.0,0.0,0.0,0.0,0.0,0.0,0.0,0.0,0.0,0.0,0.0,0.0,0.0,0.0,0.0,0.0,0.0,0.0,0.0,0.0,0.0,0.0,0.0,0.0,0.0,0.0,0.0,0.0,0.0,0.0,0.0,0.0,0.0,0.0,0.0,0.0,0.0,0.0,0.0,0.0,0.0,0.0,0.0,0.0,0.0,0.0,0.0,0.0,0.0,0.0,0.0,0.0,0.0,0.0,0.0,0.0,0.0,0.0,0.0,0.0,0.0,0.0,0.0,0.0,0.0,0.0,0.0,0.0,0.0,0.0,0.0,0.0,0.0,0.0,0.0,0.0,0.0,0.0,0.0,0.0,0.0,0.0,0.0,0.0,0.0,0.0,0.0,0.0,0.0,0.0,0.0,0.0,0.0,0.0,0.0,0.0,0.0,0.0,0.0,0.0,0.0,0.0,0.0,0.0,0.0,0.0,0.0,0.0,0.0,0.0,0.0,0.0,0.0,0.0,0.0,0.0,0.0,0.0,0.0,0.0,0.0,0.0,0.0,0.0,0.0,0.0,0.0,0.0,0.0,0.0,0.0,0.0,0.0,0.0,0.0,0.0,0.0,0.0,0.0,0.0,0.0,0.0,0.0,0.0,0.0,0.0,0.0,0.0,0.0,0.0,0.0,0.0,0.0,0.0,0.0,0.0,0.0,0.0,0.0,0.0,0.0,0.0,0.0,0.0,0.0,0.0,0.0,0.0,0.0,0.0,0.0,0.0,0.0,0.0,0.0,0.0,0.0,0.0,0.0,0.0,0.0,0.0,0.0,0.0,0.0,0.0,0.0,0.0,0.0,0.0,0.0,0.0,0.0,0.0,0.0,0.0,0.0,0.0,0.0,0.0,0.0,0.0,0.0,0.0,0.0,0.0,0.0,0.0,0.0,0.0,0.0,0.0,0.0,0.0,0.0,0.0,0.0,0.0,0.0,0.0,0.0,0.0,0.0,0.0,0.0,0.0,0.0,0.0,0.0,0.0,0.0,0.0,0.0,0.0,0.0,0.0,0.0,0.0,0.0,0.0,0.0,0.0,0.0,0.0,0.0,0.0,0.0,0.0,0.0,0.0,0.0,0.0,0.0,0.0,0.0,0.0,0.0,0.0,0.0,0.0,0.0,0.0,0.0,0.0,0.0,0.0,0.0,0.0,0.0,0.0,0.0,0.0,0.0,0.0,0.0,0.0,0.0,0.0,0.0,0.0,0.0,0.0,0.0,0.0,0.0,0.0,0.0,0.0,0.0,0.0,0.0,0.0,0.0,0.0,0.0,0.0,0.0,0.0,0.0,0.0,0.0,0.0,0.0,0.0,0.0,0.0,0.0,0.0,0.0,0.0,0.0,0.0,0.0,0.0,0.0,0.0,0.0,0.0,0.0,0.0,0.0,0.0,0.0,0.0,0.0,0.0,0.0,0.0,0.0,0.0,0.0,0.0,0.0,0.0,0.0,0.0,0.0,0.0,0.0,0.0,0.0,0.0,0.0,0.0,0.0,0.0,0.0,0.0,0.0,0.0,0.0,0.0,0.0,0.0,0.0,0.0,0.0,0.0,0.0,0.0,0.0,0.0,0.0,0.0,0.0,0.0,0.0,0.0,0.0,0.0,0.0,0.0,0.0,0.0,0.0,0.0,0.0,0.0,0.0,0.0,0.0,0.0,0.0,0.0,0.0,0.0,0.0,0.0,0.0,0.0,0.0,0.0,0.0,0.0,0.0,0.0,0.0,0.0,0.0,0.0,0.0,0.0,0.0,0.0,0.0,0.0,0.0,0.0,0.0,0.0,0.0,0.0,0.0,0.0,0.0,0.0,0.0,0.0,0.0,0.0,0.0,0.0,0.0,0.0,0.0,0.0,0.0,0.0,0.0,0.0,0.0,0.0,0.0,0.0,0.0,0.0,0.0,0.0,0.0,0.0,0.0,0.0,0.0,0.0,0.0,0.0,0.0,0.0,0.0,0.0,0.0,0.0,0.0,0.0,0.0,0.0,0.0,0.0,0.0,0.0,0.0,0.0,0.0,0.0,0.0,0.0,0.0,0.0,0.0,0.0,0.0,0.0,0.0,0.0,0.0,0.0,0.0,0.0,0.0,0.0,0.0,0.0,0.0,0.0,0.0,0.0,0.0,0.0,0.0,0.0,0.0,0.0,0.0,0.0,0.0,0.0,0.0,0.0,0.0,0.0,0.0,0.0,0.0,0.0,0.0,0.0,0.0,0.0,0.0,0.0,0.0,0.0,0.0,0.0,0.0,0.0,0.0,0.0,0.0,0.0,0.0,0.0,0.0,0.0,0.0,0.0,0.0,0.0,0.0,0.0,0.0,0.0,0.0,0.0,0.0,0.0,0.0,0.0,0.0,0.0,0.0,0.0,0.0,0.0,0.0,0.0,0.0,0.0,0.0,0.0,0.0,0.0,0.0,0.0,0.0,0.0,0.0,0.0,0.0,0.0,0.0,0.0,0.0,0.0,0.0,0.0,0.0,0.0,0.0,0.0,0.0,0.0,0.0,0.0,0.0,0.0,0.0,0.0,0.0,0.0,0.0,0.0,0.0,0.0,0.0,0.0,0.0,0.0,0.0,0.0,0.0,0.0,0.0,0.0,0.0,0.0,0.0,0.0,0.0,0.0,0.0,0.0,0.0,-0.3454,0.0,0.0,0.0,0.0,0.0,0.0,0.0,0.0,0.0,0.0,0.0,0.0,0.0,0.0,0.0,0.0,0.0,0.0,0.0,0.0,0.0,0.0,0.0,0.0,0.0,0.0,0.0,0.0,0.0,0.0,0.0,0.0,0.0,0.0,0.0,0.0,0.0,0.0,0.0,0.0,0.0,0.0,0.0,0.0,0.0,0.0,0.0,0.0,0.0,0.0,0.0,0.0,0.0,0.0,0.0,0.0,0.0,0.0,0.0,0.0,0.0,0.0,0.0,0.0,0.0,0.0,0.0,0.0,0.0,0.0,0.0,0.0,0.0,0.0,0.0,0.0,0.0,0.0,0.0,0.0,0.0,0.0,0.0,0.0,0.0,0.0,0.0,0.0,0.0,0.0,0.0,0.0,0.0,0.0,0.0,0.0,0.0,0.0,0.0,0.0,0.0,0.0,0.0,0.0,0.0,0.0,0.0,0.0,0.0,0.0,0.3393,0.2126,0.0728,-0.1118,-0.3475,0.0,0.0,0.0,0.0,0.0,0.0,0.0,0.0,0.0,0.0,0.0,0.0,0.0,0.0,0.0,0.0,0.0,0.0,0.0,0.0,0.0,0.0,0.0,0.0,0.0,0.0,0.0,0.0,0.0,0.0,0.0,0.0,0.0,0.0,0.0,0.0,0.0,0.0,0.0,0.0,0.0,0.0,0.0,0.0,0.0,0.0,0.0,0.0,0.0,0.0,0.0,0.0,0.0,0.0,0.0,0.0,0.0,0.0,0.0,0.0,0.0,0.0,0.0,0.0,0.0,0.0,0.0,0.0,0.0,0.0,0.0,0.0,0.0,0.0,0.0,0.0,0.0,0.0,0.0,0.0,0.0,0.0,0.0,0.0,0.0,0.0,0.0,0.0,0.0,0.0,0.0,0.0,0.0,0.0,0.0,0.0,0.0,0.0,0.0,0.0,0.0,0.0,0.0,0.0,0.0,0.0,0.0,0.0,0.0,0.0,0.0,0.0,0.0808,-0.1097,-0.3406,0.0,0.0,0.0,0.0,0.0,0.0,0.0,0.0,0.0,0.0,0.0,0.0,0.0,0.0,0.0,0.0,0.0,0.0,0.0,0.0,0.0,0.0,0.0,0.0,0.0,0.0,0.0,0.0,0.0,0.0,0.0,0.0,0.0,0.0,0.0,0.0,0.0,0.0,0.0,0.0,0.0,0.0,0.0,0.0,0.0,0.0,0.0,0.0,0.0,0.0,0.0,0.0,0.0,0.0,0.0,0.0,0.0,0.0,0.0,0.0,0.0,0.0,0.0,0.0,0.0,0.0,0.0,0.0,0.0,0.0,0.0,0.0,0.0,0.0,0.0,0.0,0.0,0.0,0.0,0.0,0.0,0.0,0.0,0.0,0.0,0.0,0.0,0.0,0.0,0.0,0.0,0.0,0.0,0.0,0.0,0.0,0.0,0.0,0.0,0.0,0.0,0.0,0.0,0.0,0.0,0.0,0.0,0.0,0.0,0.0,0.3554,0.2668,0.0892,0.0,-0.3122,0.0,0.0,0.0,0.0,0.0,0.0,0.0,0.0,0.0,0.0,0.0,0.0,0.0,0.0,0.0,0.0,0.0,0.0,0.0,0.0,0.0,0.0,0.0,0.0,0.0,0.0,0.0,0.0,0.0,0.0,0.0,0.0,0.0,0.0,0.0,0.0,0.0,0.0,0.0,0.0,0.0,0.0,0.0,0.0,0.0,0.0,0.0,0.0,0.0,0.0,0.0,0.0,0.0,0.0,0.0,0.0,0.0,0.0,0.0,0.0,0.0,0.0,0.0,0.0,0.0,0.0,0.0,0.0,0.0,0.0,0.0,0.0,0.0,0.0,0.0,0.0,0.0,0.0,0.0,0.0,0.0,0.0,0.0,0.0,0.0,0.0,0.0,0.0,0.0,0.0,0.0,0.0,0.0,0.0,0.0,0.0,0.0,0.0,0.0,0.0,0.0,0.0,0.0,0.0,0.0,0.0,0.0,0.0,0.0,0.0,0.3984,0.3737,-0.0055,-0.2425,0.0,0.0,0.0,0.0,0.0,0.0,0.0,0.0,0.0,0.0,0.0,0.0,0.0,0.0,0.0,0.0,0.0,0.0,0.0,0.0,0.0,0.0,0.0,0.0,0.0,0.0,0.0,0.0,0.0,0.0,0.0,0.0,0.0,0.0,0.0,0.0,0.0,0.0,0.0,0.0,0.0,0.0,0.0,0.0,0.0,0.0,0.0,0.0,0.0,0.0,0.0,0.0,0.0,0.0,0.0,0.0,0.0,0.0,0.0,0.0,0.0,0.0,0.0,0.0,0.0,0.0,0.0,0.0,0.0,0.0,0.0,0.0,0.0,0.0,0.0,0.0,0.0,0.0,0.0,0.0,0.0,0.0,0.0,0.0,0.0,0.0,0.0,0.0,0.0,0.0,0.0,0.0,0.0,0.0,0.0,0.0,0.0,0.0,0.0,0.0,0.0,0.0,0.0,0.0,0.0,0.0,0.0,0.0,0.0,0.0,0.576,0.3886,0.308,-0.1425,-0.3722,-0.3147,0.0,0.0,0.0,0.0,0.0,0.0,0.0,0.0,0.0,0.0,0.0,0.0,0.0,0.0,0.0,0.0,0.0,0.0,0.0,0.0,0.0,0.0,0.0,0.0,0.0,0.0,0.0,0.0,0.0,0.0,0.0,0.0,0.0,0.0,0.0,0.0,0.0,0.0,0.0,0.0,0.0,0.0,0.0,0.0,0.0,0.0,0.0,0.0,0.0,0.0,0.0,0.0,0.0,0.0,0.0,0.0,0.0,0.0,0.0,0.0,0.0,0.0,0.0,0.0,0.0,0.0,0.0,0.0,0.0,0.0,0.0,0.0,0.0,0.0,0.0,0.0,0.0,0.0,0.0,0.0,0.0,0.0,0.0,0.0,0.0,0.0,0.0,0.0,0.0,0.0,0.0,0.0,0.0,0.0,0.0,0.0,0.0,0.0,0.0,0.0,0.0,0.0,0.0,0.0,0.0,0.0,0.0,0.0,0.9225,0.5951,0.2931,0.0345,-0.3072,-0.4284,0.0,0.0,0.0,0.0,0.0,0.0,0.0,0.0,0.0,0.0,0.0,0.0,0.0,0.0,0.0,0.0,0.0,0.0,0.0,0.0,0.0,0.0,0.0,0.0,0.0,0.0,0.0,0.0,0.0,0.0,0.0,0.0,0.0,0.0,0.0,0.0,0.0,0.0,0.0,0.0,0.0,0.0,0.0,0.0,0.0,0.0,0.0,0.0,0.0,0.0,0.0,0.0,0.0,0.0,0.0,0.0,0.0,0.0,0.0,0.0,0.0,0.0,0.0,0.0,0.0,0.0,0.0,0.0,0.0,0.0,0.0,0.0,0.0,0.0,0.0,0.0,0.0,0.0,0.0,0.0,0.0,0.0,0.0,0.0,0.0,0.0,0.0,0.0,0.0,0.0,0.0,0.0,0.0,0.0,0.0,0.0,0.0,0.0,0.0,0.0,0.0,0.0,0.0,0.0,0.0,0.0,0.0,0.0,0.0,0.8682,0.5888,0.2991,0.0059,-0.2631,-0.3737,0.0,0.0,0.0,0.0,0.0,0.0,0.0,0.0,0.0,0.0,0.0,0.0,0.0,0.0,0.0,0.0,0.0,0.0,0.0,0.0,0.0,0.0,0.0,0.0,0.0,0.0,0.0,0.0,0.0,0.0,0.0,0.0,0.0,0.0,0.0,0.0,0.0,0.0,0.0,0.0,0.0,0.0,0.0,0.0,0.0,0.0,0.0,0.0,0.0,0.0,0.0,0.0,0.0,0.0,0.0,0.0,0.0,0.0,0.0,0.0,0.0,0.0,0.0,0.0,0.0,0.0,0.0,0.0,0.0,0.0,0.0,0.0,0.0,0.0,0.0,0.0,0.0,0.0,0.0,0.0,0.0,0.0,0.0,0.0,0.0,0.0,0.0,0.0,0.0,0.0,0.0,0.0,0.0,0.0,0.0,0.0,0.0,0.0,0.0,0.0,0.0,0.0,0.0,0.0,0.0,0.0,0.0,0.0,0.0,0.7121,0.0,0.3244,0.0059,-0.248,-0.356,0.0,0.0,0.0,0.0,0.0,0.0,0.0,0.0,0.0,0.0,0.0,0.0,0.0,0.0,0.0,0.0,0.0,0.0,0.0,0.0,0.0,0.0,0.0,0.0,0.0,0.0,0.0,0.0,0.0,0.0,0.0,0.0,0.0,0.0,0.0,0.0,0.0,0.0,0.0,0.0,0.0,0.0,0.0,0.0,0.0,0.0,0.0,0.0,0.0,0.0,0.0,0.0,0.0,0.0,0.0,0.0,0.0,0.0,0.0,0.0,0.0,0.0,0.0,0.0,0.0,0.0,0.0,0.0,0.0,0.0,0.0,0.0,0.0,0.0,0.0,0.0,0.0,0.0,0.0,0.0,0.0,0.0,0.0,0.0,0.0,0.0,0.0,0.0,0.0,0.0,0.0,0.0,0.0,0.0,0.0,0.0,0.0,0.0,0.0,0.0,0.0,0.0,0.0,0.0,0.0,0.0,0.0,0.0,0.7063,0.4453,0.5035,0.3688,0.0113,-0.2625,-0.382,0.0,0.0,0.0,0.0,0.0,0.0,0.0,0.0,0.0,0.0,0.0,0.0,0.0,0.0,0.0,0.0,0.0,0.0,0.0,0.0,0.0,0.0,0.0,0.0,0.0,0.0,0.0,0.0,0.0,0.0,0.0,0.0,0.0,0.0,0.0,0.0,0.0,0.0,0.0,0.0,0.0,0.0,0.0,0.0,0.0,0.0,0.0,0.0,0.0,0.0,0.0,0.0,0.0,0.0,0.0,0.0,0.0,0.0,0.0,0.0,0.0,0.0,0.0,0.0,0.0,0.0,0.0,0.0,0.0,0.0,0.0,0.0,0.0,0.0,0.0,0.0,0.0,0.0,0.0,0.0,0.0,0.0,0.0,0.0,0.0,0.0,0.0,0.0,0.0,0.0,0.0,0.0,0.0,0.0,0.0,0.0,0.0,0.0,0.0,0.0,0.0,0.0,0.0,0.0,0.0,0.0,0.0,0.0,0.0,0.5868,0.5249,0.3894,0.1732,-0.1064,-0.2803,0.0,0.0,0.0,0.0,0.0,0.0,0.0,0.0,0.0,0.0,0.0,0.0,0.0,0.0,0.0,0.0,0.0,0.0,0.0,0.0,0.0,0.0,0.0,0.0,0.0,0.0,0.0,0.0,0.0,0.0,0.0,0.0,0.0,0.0,0.0,0.0,0.0,0.0,0.0,0.0,0.0,0.0,0.0,0.0,0.0,0.0,0.0,0.0,0.0,0.0,0.0,0.0,0.0,0.0,0.0,0.0,0.0,0.0,0.0,0.0,0.0,0.0,0.0,0.0,0.0,0.0,0.0,0.0,0.0,0.0,0.0,0.0,0.0,0.0,0.0,0.0,0.0,0.0,0.0,0.0,0.0,0.0,0.0,0.0,0.0,0.0,0.0,0.0,0.0,0.0,0.0,0.0,0.0,0.0,0.0,0.0,0.0,0.0,0.0,0.0,0.0,0.0,0.0,0.0,0.0,0.0,0.0,0.0,0.0,0.7709,0.582,0.4134,0.2625,-0.0283,-0.2081,-0.2681,0.0,0.0,0.0,0.0,0.0,0.0,0.0,0.0,0.0,0.0,0.0,0.0,0.0,0.0,0.0,0.0,0.0,0.0,0.0,0.0,0.0,0.0,0.0,0.0,0.0,0.0,0.0,0.0,0.0,0.0,0.0,0.0,0.0,0.0,0.0,0.0,0.0,0.0,0.0,0.0,0.0,0.0,0.0,0.0,0.0,0.0,0.0,0.0,0.0,0.0,0.0,0.0,0.0,0.0,0.0,0.0,0.0,0.0,0.0,0.0,0.0,0.0,0.0,0.0,0.0,0.0,0.0,0.0,0.0,0.0,0.0,0.0,0.0,0.0,0.0,0.0,0.0,0.0,0.0,0.0,0.0,0.0,0.0,0.0,0.0,0.0,0.0,0.0,0.0,0.0,0.0,0.0,0.0,0.0,0.0,0.0,0.0,0.0,0.0,0.0,0.0,0.0,0.0,0.0,0.0,0.0,0.0,0.0,0.9825,0.6832,0.4478,0.2913,0.0058,-0.1565,0.0,0.0,0.0,0.0,0.0,0.0,0.0,0.0,0.0,0.0,0.0,0.0,0.0,0.0,0.0,0.0,0.0,0.0,0.0,0.0,0.0,0.0,0.0,0.0,0.0,0.0,0.0,0.0,0.0,0.0,0.0,0.0,0.0,0.0,0.0,0.0,0.0,0.0,0.0,0.0,0.0,0.0,0.0,0.0,0.0,0.0,0.0,0.0,0.0,0.0,0.0,0.0,0.0,0.0,0.0,0.0,0.0,0.0,0.0,0.0,0.0,0.0,0.0,0.0,0.0,0.0,0.0,0.0,0.0,0.0,0.0,0.0,0.0,0.0,0.0,0.0,0.0,0.0,0.0,0.0,0.0,0.0,0.0,0.0,0.0,0.0,0.0,0.0,0.0,0.0,0.0,0.0,0.0,0.0,0.0,0.0,0.0,0.0,0.0,0.0,0.0,0.0,0.0,0.0,0.0,0.0,0.0,0.0,0.0,0.9851,0.8095,0.6326,0.4753,0.2633,0.0504,0.0,0.0,0.0,0.0,0.0,0.0,0.0,0.0,0.0,0.0,0.0,0.0,0.0,0.0,0.0,0.0,0.0,0.0,0.0,0.0,0.0,0.0,0.0,0.0,0.0,0.0,0.0,0.0,0.0,0.0,0.0,0.0,0.0,0.0,0.0,0.0,0.0,0.0,0.0,0.0,0.0,0.0,0.0,0.0,0.0,0.0,0.0,0.0,0.0,0.0,0.0,0.0,0.0,0.0,0.0,0.0,0.0,0.0,0.0,0.0,0.0,0.0,0.0,0.0,0.0,0.0,0.0,0.0,0.0,0.0,0.0,0.0,0.0,0.0,0.0,0.0,0.0,0.0,0.0,0.0,0.0,0.0,0.0,0.0,0.0,0.0,0.0,0.0,0.0,0.0,0.0,0.0,0.0,0.0,0.0,0.0,0.0,0.0,0.0,0.0,0.0,0.0,0.0,0.0,0.0,0.0,0.0,0.0,1.1439,1.1225,1.0504,0.8973,0.6688,0.4058,0.1929,0.0,0.0,0.0,0.0,0.0,0.0,0.0,0.0,0.0,0.0,0.0,0.0,0.0,0.0,0.0,0.0,0.0,0.0,0.0,0.0,0.0,0.0,0.0,0.0,0.0,0.0,0.0,0.0,0.0,0.0,0.0,0.0,0.0,0.0,0.0,0.0,0.0,0.0,0.0,0.0,0.0,0.0,0.0,0.0,0.0,0.0,0.0,0.0,0.0,0.0,0.0,0.0,0.0,0.0,0.0,0.0,0.0,0.0,0.0,0.0,0.0,0.0,0.0,0.0,0.0,0.0,0.0,0.0,0.0,0.0,0.0,0.0,0.0,0.0,0.0,0.0,0.0,0.0,0.0,0.0,0.0,0.0,0.0,0.0,0.0,0.0,0.0,0.0,0.0,0.0,0.0,0.0,0.0,0.0,0.0,0.0,0.0,0.0,0.0,0.0,0.0,0.0,0.0,0.0,0.0,0.0,0.0,0.0,1.4079,1.3225,1.3227,1.1884,0.8858,0.5042,0.285,0.0,0.0,0.0,0.0,0.0,0.0,0.0,0.0,0.0,0.0,0.0,0.0,0.0,0.0,0.0,0.0,0.0,0.0,0.0,0.0,0.0,0.0,0.0,0.0,0.0,0.0,0.0,0.0,0.0,0.0,0.0,0.0,0.0,0.0,0.0,0.0,0.0,0.0,0.0,0.0,0.0,0.0,0.0,0.0,0.0,0.0,0.0,0.0,0.0,0.0,0.0,0.0,0.0,0.0,0.0,0.0,0.0,0.0,0.0,0.0,0.0,0.0,0.0,0.0,0.0,0.0,0.0,0.0,0.0,0.0,0.0,0.0,0.0,0.0,0.0,0.0,0.0,0.0,0.0,0.0,0.0,0.0,0.0,0.0,0.0,0.0,0.0,0.0,0.0,0.0,0.0,0.0,0.0,0.0,0.0,0.0,0.0,0.0,0.0,0.0,0.0,0.0,0.0,0.0,0.0,0.0,0.0,0.0,1.4983,1.5062,1.3933,1.3013,1.2381,0.7473,0.4155,0.0,0.0,0.0,0.0,0.0,0.0,0.0,0.0,0.0,0.0,0.0,0.0,0.0,0.0,0.0,0.0,0.0,0.0,0.0,0.0,0.0,0.0,0.0,0.0,0.0,0.0,0.0,0.0,0.0,0.0,0.0,0.0,0.0,0.0,0.0,0.0,0.0,0.0,0.0,0.0,0.0,0.0,0.0,0.0,0.0,0.0,0.0,0.0,-0.1967,0.0,0.0,0.0,0.0,0.0,0.0,0.0,0.0,0.0,0.0,0.0,0.0,0.0,0.0,0.0,0.0,0.0,0.0,0.0,0.0,0.0,0.0,0.0,0.0,0.0,0.0,0.0,0.0,0.0,0.0,0.0,0.0,0.0,0.0,0.0,0.0,0.0,0.0,0.0,0.0,0.0,0.0,0.0,0.0,0.0,0.0,0.0,0.0,0.0,0.0,0.0,0.0,0.0,0.0,0.0,0.0,0.0,0.0,0.0,1.712,1.6833,1.6118,1.5001,1.3373,0.9748,0.6834,0.0,0.0,0.0,0.0,0.0,0.0,0.0,0.0,0.0,0.0,0.0,0.0,0.0,0.0,0.0,0.0,0.0,0.0,0.0,0.0,0.0,0.0,0.0,0.0,0.0,0.0,0.0,0.0,0.0,0.0,0.0,0.0,0.0,0.0,0.0,0.0,0.0,0.0,0.0,0.0,0.0,0.0,0.0,0.0,0.0,0.0,0.0,0.0,0.0,0.0,0.0,0.0,0.0,0.0,0.0,0.0,0.0,0.0,0.0,0.0,0.0,0.0,0.0,0.0,0.0,0.0,0.0,0.0,0.0,0.0,0.0,0.0,0.0,0.0,0.0,0.0,0.0,0.0,0.0,0.0,0.0,0.0,0.0,0.0,0.0,0.0,0.0,0.0,0.0,0.0,0.0,0.0,0.0,0.0,0.0,0.0,0.0,0.0,0.0,0.0,0.0,0.0,0.0,0.0,0.0,0.0,0.0,1.9398,1.9552,1.8611,1.8528,1.7065,1.4117,1.1892,0.9924,0.8069,0.0,0.0,0.0,0.0,0.0,0.0,0.0,0.0,0.0,0.0,0.0,0.0,0.0,0.0,0.0,0.0,0.0,0.0,0.0,0.0,0.0,0.0,0.0,0.0,0.0,0.0,0.0,0.0,0.0,0.0,0.0,0.0,0.0,0.0,0.0,0.0,0.0,0.0,1.3022,1.3441,0.0,0.0,0.0,0.0,0.0,0.0,0.0,0.0,0.0136,0.0,0.0,0.0,0.0,0.0,0.0,0.0,0.0,0.0,0.0,0.0,0.0,0.0,0.0,0.0,0.0,0.0,0.0,0.0,0.0,0.0,0.0,0.0,0.0,0.0,0.0,0.0,0.0,0.0,0.0,0.0,0.0,0.0,0.0,0.0,0.0,0.0,0.0,0.0,0.0,0.0,0.0,0.0,0.0,0.0,0.0,0.0,0.0,0.0,0.0,0.0,0.0,0.0,0.0,0.0,0.0,1.9189,2.0336,2.0865,2.0611,1.9197,1.8146,1.7237,1.4194,1.1975,1.0783,0.0,0.0,0.0,0.0,0.0,0.0,0.0,0.0,0.0,0.0,0.0,0.0,0.0,0.0,0.0,0.0,0.0,0.0,0.0,0.0,0.0,0.0,0.0,0.0,0.0,0.0,0.0,0.0,0.0,0.0,0.0,0.0,0.0,0.0,0.0,0.0,0.0,0.0,0.0,1.4629,1.3702,0.0,0.0,0.0,0.0,0.0,0.0,0.0,0.0,-0.0406,0.0,0.0,0.0,0.0,0.0,0.0,0.0,0.0,0.0,0.0,0.0,0.0,0.0,0.0,0.0,0.0,0.0,0.0,0.0,0.0,0.0,0.0,0.0,0.0,0.0,0.0,0.0,0.0,0.0,0.0,0.0,0.0,0.0,0.0,0.0,0.0,0.0,0.0,0.0,0.0,0.0,0.0,0.0,0.0,0.0,0.0,0.0,0.0,0.0,0.0,0.0,0.0,0.0,0.0,0.0,2.0228,2.2086,2.2862,2.2423,2.1553,2.0148,1.8119,1.5453,1.32,0.0,0.0,0.0,0.0,0.0,0.0,0.0,0.0,0.0,0.0,0.0,0.0,0.0,0.0,0.0,0.0,0.0,0.0,0.0,0.0,0.0,0.0,0.0,0.0,0.0,0.0,0.0,0.0,0.0,0.0,0.0,0.0,0.0,0.0,0.0,0.0,0.0,0.0,0.0,0.0,1.4603,1.3719,1.3584,0.0,0.0,0.0,0.0,0.0,0.0,0.3778,0.2812,0.0,0.0,0.0,0.0,0.0,0.0,0.0,0.0,0.0,0.0,0.0,0.0,0.0,0.0,0.0,0.0,0.0,0.0,0.0,0.0,0.0,0.0,0.0,0.0,0.0,0.0,0.0,0.0,0.0,0.0,0.0,0.0,0.0,0.0,0.0,0.0,0.0,0.0,0.0,0.0,0.0,0.0,0.0,0.0,0.0,0.0,0.0,0.0,0.0,0.0,0.0,0.0,0.0,0.0,0.0,2.1209,2.368,2.4651,2.3963,2.3825,2.2302,1.9156,1.6949,1.4735,0.0,0.0,0.0,0.0,0.0,0.0,0.0,0.0,0.0,0.0,0.0,0.0,0.0,0.0,0.0,0.0,0.0,0.0,0.0,0.0,0.0,0.0,0.0,0.0,0.0,0.0,0.0,0.0,0.0,0.0,0.0,0.0,0.0,0.0,0.0,0.0,0.0,0.0,0.0,0.0,0.0,1.41,1.435,1.301,0.0,0.0,0.0,0.0,0.6691,0.6903,0.0,0.0,0.0,0.0,0.0,0.0,0.0,0.0,0.0,0.0,0.0,0.0,0.0,0.0,0.0,0.0,0.0,0.0,0.0,0.0,0.0,0.0,0.0,0.0,0.0,0.0,0.0,0.0,0.0,0.0,0.0,0.0,0.0,0.0,0.0,0.0,0.0,0.0,0.0,0.0,0.0,0.0,0.0,0.0,0.0,0.0,0.0,0.0,0.0,0.0,0.0,0.0,0.0,0.0,0.0,0.0,2.2045,2.4082,2.5138,2.5109,2.4779,2.3783,2.2214,1.9917,1.7466,0.0,0.0,0.0,0.0,0.0,0.0,0.0,0.0,0.0,0.0,0.0,0.0,0.0,0.0,0.0,0.0,0.0,0.0,0.0,0.0,0.0,0.0,0.0,0.0,0.0,0.0,0.0,0.0,0.0,0.0,0.0,0.0,0.0,0.0,0.0,0.0,0.0,0.0,0.0,0.0,0.0,1.6066,1.4207,1.3878,1.3214,0.0,0.0,1.0724,0.9121,0.831,0.0,0.0,0.0,0.0,0.0,0.0,0.0,0.0,0.0,0.0,0.0,0.0,0.0,0.0,0.0,0.0,0.0,0.0,0.0,0.0,0.0,0.0,0.0,0.0,0.0,0.0,0.0,0.0,0.0,0.0,0.0,0.0,0.0,0.0,0.0,0.0,0.0,0.0,0.0,0.0,0.0,0.0,0.0,0.0,0.0,0.0,0.0,0.0,0.0,0.0,0.0,0.0,0.0,0.0,0.0,2.3175,2.3554,2.5984,2.6967,2.6328,2.6157,2.5276,2.3631,2.1335,1.8937,0.0,0.0,0.0,0.0,0.0,0.0,0.0,0.0,0.0,0.0,0.0,0.0,0.0,0.0,0.0,0.0,0.0,0.0,0.0,0.0,0.0,0.0,0.0,0.0,0.0,0.0,0.0,0.0,0.0,0.0,0.0,0.0,0.0,0.0,0.0,0.0,0.0,0.0,0.0,0.0,0.0,0.0,1.519,1.4292,0.0,0.0,0.0,1.2734,1.0835,0.0,0.0,0.0,0.0,0.0,0.0,0.0,0.0,0.0,0.0,0.0,0.0,0.0,0.0,0.0,0.0,0.0,0.0,0.0,0.0,0.0,0.0,0.0,0.0,0.0,0.0,0.0,0.0,0.0,0.0,0.0,0.0,0.0,0.0,0.0,0.0,0.0,0.0,0.0,0.0,0.0,0.0,0.0,0.0,0.0,0.0,0.0,0.0,0.0,0.0,0.0,0.0,0.0,0.0,0.0,0.0,0.0,2.4807,2.7396,2.8342,2.7592,2.7453,2.6578,2.4791,2.2868,0.0,0.0,0.0,0.0,0.0,0.0,0.0,0.0,0.0,0.0,0.0,0.0,0.0,0.0,0.0,0.0,0.0,0.0,0.0,0.0,0.0,0.0,0.0,0.0,0.0,0.0,0.0,0.7749,0.0,0.0,0.0,0.0,0.0,0.0,0.0,0.0,0.0,0.0,0.0,0.0,0.0,0.0,1.4747,1.5903,1.505,1.4294,0.0,0.0,1.4411,1.2649,1.2726,1.215,0.0,0.0,0.0,0.0,0.0,0.0,0.0,0.0,0.0,0.0,0.0,0.0,0.0,0.0,0.0,0.0,0.0,0.0,0.0,0.0,0.0,0.0,0.0,0.0,0.0,0.0,0.0,0.0,0.0,0.0,0.0,0.0,0.0,0.0,0.0,0.0,0.0,0.0,0.0,0.0,0.0,0.0,0.0,0.0,0.0,0.0,0.0,0.0,0.0,0.0,0.0,0.0,0.0,0.0,0.0,2.5664,2.7409,2.8535,2.8762,2.8412,2.7514,2.6018,2.5173,2.3171,0.0,0.0,0.0,0.0,0.0,0.0,0.0,0.0,0.0,0.0,0.0,0.0,0.0,0.0,0.0,0.0,0.0,0.0,0.0,0.0,0.0,0.0,0.0,0.0,0.0,0.0,0.0,0.0,0.0,0.0,0.0,0.0,0.0,0.0,0.0,0.0,0.0,0.0,0.0,0.0,0.0,1.6908,1.5617,1.6565,1.6947,0.0,0.0,1.4918,1.4777,1.3781,1.2342,1.0444,0.0,0.0,0.0,0.0,0.0,0.0,0.0,0.0,0.0,0.0,0.0,0.0,0.0,0.0,0.0,0.0,0.0,0.0,0.0,0.0,0.0,0.0,0.0,0.0,0.0,0.0,0.0,0.0,0.0,0.0,0.0,0.0,0.0,0.0,0.0,0.0,0.0,0.0,0.0,0.0,0.0,0.0,0.0,0.0,0.0,0.0,0.0,0.0,0.0,0.0,0.0,0.0,0.0,2.589,2.6941,2.915,3.0519,3.0944,3.0868,2.9953,2.8378,2.778,2.5671,0.0,0.0,0.0,0.0,0.0,0.0,0.0,0.0,0.0,0.0,0.0,0.0,0.0,0.0,0.0,0.0,0.0,0.0,0.0,0.0,0.0,0.0,0.0,0.0,0.0,0.0,0.0,0.0,1.0604,1.1258,1.2109,0.0,0.0,0.0,0.0,0.0,0.0,0.0,0.0,0.0,0.0,1.8061,1.7941,1.7637,0.0,0.0,1.5835,1.5075,1.5204,1.4358,1.3365,1.2445,1.1145,0.0,0.0,0.0,0.0,0.0,0.0,0.0,0.0,0.0,0.0,0.0,0.0,0.0,0.0,0.0,0.0,0.0,0.0,0.0,0.0,0.0,0.0,0.0,0.0,0.0,0.0,0.0,0.0,0.0,0.0,0.0,0.0,0.0,0.0,0.0,0.0,0.0,0.0,0.0,0.0,0.0,0.0,0.0,0.0,0.0,0.0,0.0,0.0,0.0,0.0,0.0,0.0,2.6212,2.7467,2.9956,3.1448,3.1833,3.1844,3.1175,2.9824,2.9481,2.7639,0.0,0.0,0.0,0.0,0.0,0.0,0.0,0.0,0.0,0.0,0.0,0.0,0.0,0.0,0.0,0.0,0.0,0.0,0.0,0.0,0.0,0.0,0.0,0.0,0.0,0.0,0.0,0.0,1.2224,1.294,1.3326,0.0,0.0,0.0,0.0,0.0,0.0,0.0,0.0,0.0,0.0,1.8818,1.9076,1.8232,1.764,1.7811,1.643,1.5499,1.6029,1.526,1.4351,1.3628,0.0,0.0,0.0,0.0,0.0,0.0,0.0,0.0,0.0,0.0,0.0,0.0,0.0,0.0,0.0,0.0,0.0,0.0,0.0,0.0,0.0,0.0,0.0,0.0,0.0,0.0,0.0,0.0,0.0,0.0,0.0,0.0,0.0,0.0,0.0,0.0,0.0,0.0,0.0,0.0,0.0,0.0,0.0,0.0,0.0,0.0,0.0,0.0,0.0,0.0,0.0,0.0,0.0,2.6085,2.6942,2.9533,3.0789,3.0823,3.0752,3.06,3.0061,3.0005,2.908,2.7193,0.0,0.0,0.0,0.0,0.0,0.0,0.0,0.0,0.0,0.0,0.0,0.0,0.0,0.0,0.0,0.0,0.0,0.0,0.0,0.0,0.0,0.0,0.0,0.0,0.0,0.0,1.3389,1.3353,1.3152,0.0,0.0,0.0,0.0,0.0,0.0,0.0,0.0,0.0,0.0,1.86,1.9241,1.8442,1.8354,1.8362,1.824,1.7024,1.6452,1.755,1.6547,1.5131,0.0,0.0,0.0,0.0,0.0,0.0,0.0,0.0,0.0,0.0,0.0,0.0,0.0,0.0,0.0,0.0,0.0,0.0,0.0,0.0,0.0,0.0,0.0,0.0,0.0,0.0,0.0,2.9397,2.851,0.0,0.0,0.0,0.0,0.0,0.0,0.0,0.0,0.0,0.0,0.0,3.3748,3.3973,0.0,0.0,0.0,0.0,0.0,0.0,0.0,0.0,0.0,0.0,0.0,0.0,2.6993,2.831,3.1278,3.301,3.3349,3.3373,3.2739,3.1424,3.1413,2.997,2.6922,0.0,0.0,0.0,0.0,0.0,0.0,0.0,0.0,0.0,0.0,0.0,0.0,0.0,0.0,0.0,0.0,0.0,0.0,0.0,0.0,0.0,0.0,0.0,0.0,0.0,1.5198,0.0,0.0,0.0,0.0,0.0,0.0,0.0,0.0,0.0,0.0,0.0,1.7571,1.8448,1.9802,2.0668,2.0657,1.9969,1.9434,0.0,0.0,0.0,0.0,0.0,0.0,0.0,0.0,0.0,0.0,0.0,0.0,0.0,0.0,0.9192,0.7655,0.7582,0.7711,0.7516,0.0,0.0,0.0,0.0,0.0,0.0,0.0,0.0,0.0,0.0,0.0,0.0,0.0,0.0,0.0,0.0,3.0835,0.0,0.0,0.0,0.0,0.0,0.0,0.0,0.0,3.5939,3.6593,3.7183,3.7518,3.7256,0.0,3.5251,3.2909,0.0,0.0,0.0,0.0,0.0,0.0,0.0,0.0,2.814,2.9309,3.2127,3.3784,3.4135,3.4161,3.3605,3.2467,3.2216,3.0766,2.7838,2.5818,2.4132,0.0,0.0,0.0,0.0,0.0,0.0,0.0,0.0,0.0,0.0,0.0,0.0,0.0,0.0,0.0,0.0,0.0,0.0,0.0,0.0,0.0,0.0,0.0,1.6557,0.0,0.0,0.0,0.0,0.0,0.0,0.0,0.0,0.0,1.6922,1.8048,1.9182,1.9631,2.0416,2.1103,2.1427,0.0,0.0,0.0,0.0,0.0,0.0,0.0,1.7103,1.6846,1.6107,1.5552,1.5665,1.5361,1.5045,1.4683,0.0,0.0,1.0337,0.9788,0.9627,0.9349,0.876,0.8438,0.883,0.8179,0.7707,0.0,0.0,0.0,0.0,0.0,0.0,0.0,0.0,3.7665,3.7052,0.0,3.4771,0.0,0.0,0.0,0.0,0.0,0.0,0.0,0.0,3.8547,3.881,3.8407,3.8449,3.8379,3.8297,3.7671,3.6979,3.6073,3.0701,0.0,0.0,0.0,0.0,0.0,0.0,2.9331,2.9875,3.1994,3.3124,3.3149,3.3136,3.3093,3.3068,3.2511,3.1517,3.0037,2.8901,2.6966,2.3977,2.2007,0.0,0.0,0.0,0.0,0.0,0.0,0.0,0.0,0.0,0.0,0.0,0.0,0.0,0.0,0.0,0.0,0.0,0.0,0.0,0.0,1.6795,0.0,0.0,0.0,0.0,0.0,0.0,0.0,0.0,0.0,0.0,1.9061,1.9553,2.0274,2.0653,0.0,0.0,0.0,0.0,1.949,2.0489,1.9766,1.9402,2.0411,1.9679,1.8719,1.8052,0.0,0.0,1.6588,1.7364,1.7638,1.6819,1.6471,1.5592,1.2508,1.1653,1.1322,1.0983,1.0633,1.0588,1.0523,0.9792,0.9285,4.3416,0.0,0.0,0.0,0.0,3.9835,4.0243,4.0736,4.0209,3.939,3.8387,3.7925,0.0,0.0,0.0,0.0,0.0,0.0,3.831,3.9822,4.0153,4.0836,4.1829,4.1829,4.162,4.1165,4.0534,3.9489,3.8033,3.5573,3.2793,2.9833,0.0,0.0,0.0,0.0,2.9499,3.0438,3.2167,3.3124,3.3124,3.3124,3.3124,3.3124,3.2918,3.2426,3.1559,3.0513,2.9047,2.7029,2.5044,0.0,0.0,0.0,0.0,0.0,0.0,0.0,0.0,0.0,0.0,0.0,0.0,0.0,0.0,0.0,0.0,0.0,0.0,0.0,2.0123,1.9068,1.8415,0.0,0.0,0.0,0.0,0.0,0.0,0.0,0.0,0.0,2.2236,2.2327,2.2529,0.0,0.0,2.2675,2.2675,2.18,2.1268,2.1555,0.0,0.0,0.0,1.9821,1.9153,1.8941,1.8109,1.7523,1.7583,1.7828,1.7906,1.7604,1.676,1.5705,1.4696,1.3483,1.2396,1.1315,1.0922,1.0827,1.0608,1.0364,1.0231,4.725,4.5035,4.289,4.2131,4.2442,4.2567,4.2826,4.3154,4.266,4.1973,4.1225,4.0526,3.963,3.8644,3.8226,0.0,0.0,0.0,4.0778,4.2181,4.2181,4.2607,4.329,4.3305,4.312,4.2716,4.2073,4.1095,3.9827,3.8839,3.6718,3.3615,0.0,0.0,3.0699,3.0861,3.1244,3.1863,3.2669,3.3124,3.3124,3.3124,3.3124,3.3124,3.3124,3.2905,3.2579,3.1723,3.0489,2.8949,2.7292,2.5543,0.0,0.0,0.0,0.0,0.0,0.0,0.0,0.0,0.0,0.0,0.0,1.9304,1.9593,0.0,0.0,0.0,2.2024,2.2615,2.2269,2.1254,0.0,0.0,0.0,0.0,0.0,0.0,0.0,2.3789,2.4634,2.5054,2.472,2.4684,2.4397,2.3588,2.3478,2.3478,2.3478,0.0,2.244,2.2065,2.1849,2.139,2.0476,2.0247,1.9889,1.9144,1.8467,1.7949,1.7783,1.7764,1.7705,1.7453,1.6774,1.603,1.5392,1.4507,1.3372,1.1682,1.1042,1.0794,1.062,1.0586,1.0559,5.027,4.9954,4.6502,4.5008,4.5053,4.6043,4.6085,4.549,4.504,4.4746,4.4409,4.286,4.2116,4.2035,4.1063,0.0,0.0,4.337,4.3424,4.4392,4.4347,4.3988,4.3379,4.3319,4.3305,4.326,4.2656,4.2066,4.1369,4.0711,3.9321,3.7214,3.5713,3.4868,3.4681,3.4148,3.394,3.3993,3.3486,3.321,3.3124,3.3124,3.3124,3.3124,3.3043,3.2993,3.2993,3.2453,3.1418,2.9923,2.8951,2.725,2.4767,0.0,0.0,0.0,0.0,0.0,0.0,0.0,0.0,0.0,0.0,0.0,0.0,0.0,0.0,0.0,2.2784,0.0,2.359,2.3268,0.0,0.0,0.0,2.3305,2.2583,2.4389,2.5369,2.4552,0.0,0.0,0.0,0.0,2.5826,2.3988,2.3745,2.3734,2.3734,2.3708,2.3294,2.2478,2.2881,2.2596,2.0731,2.0749,2.0468,1.8842,1.8242,1.7812,1.748,1.7334,1.7168,1.6833,1.6677,1.6343,1.5191,1.491,1.4268,1.2375,1.1389,1.0839,1.0728,1.0683,1.0563,5.0943,5.0838,4.9474,4.8624,4.8179,4.7939,4.7728,4.7549,4.6929,4.6368,4.5808,4.5415,4.4961,4.4446,4.4209,4.4472,4.5065,4.4787,4.4828,4.502,4.4541,4.4227,4.4022,4.3544,4.3305,4.326,4.2671,4.2051,4.1369,4.0711,3.9868,3.886,3.8435,3.7226,3.5263,3.5079,3.5198,3.5622,3.4776,3.3911,3.3167,3.3124,3.3124,3.3124,3.2641,3.2416,3.2416,3.1888,3.1213,3.0434,2.9777,2.877,2.7262,2.5158,0.0,0.0,0.0,0.0,0.0,0.0,0.0,0.0,0.0,2.1722,2.2057,0.0,2.3112,0.0,2.419,2.4542,2.4624,2.4225,0.0,0.0,2.4292,2.448,2.5362,2.5959,2.6217,2.5999,2.6296,2.6487,2.6487,2.6487,2.6349,2.5838,2.5791,2.5779,2.5791,2.5099,2.4564,2.4218,2.3489,2.2706,2.2053,2.0995,1.9782,1.838,1.7803,1.75,1.7393,1.71,1.6814,1.6697,1.6445,1.614,1.5851,1.506,1.4279,1.3683,1.297,1.2158,1.1337,1.1128,1.0868,5.1229,5.1184,5.0825,5.0466,5.0047,4.9119,4.861,4.8267,4.7893,4.7384,4.6756,4.6756,4.6561,4.6202,4.6187,4.6187,4.6187,4.6172,4.6022,4.5723,4.5065,4.4601,4.4287,4.3604,4.3305,4.329,4.297,4.2462,4.1803,4.1145,4.0502,3.9843,3.9574,3.8642,3.7212,3.6679,3.662,3.6891,3.5908,3.5088,3.4485,3.4024,3.3656,3.3399,3.2617,3.2285,3.2457,3.1782,3.1263,3.0842,3.0201,2.9164,2.7808,2.6531,2.5582,0.0,0.0,0.0,0.0,0.0,0.0,0.0,0.0,0.0,0.0,0.0,2.4472,0.0,2.5554,0.0,2.6017,2.5795,2.5746,2.5981,2.5552,2.5598,2.6427,2.6487,2.6487,2.6487,2.6487,2.6487,2.6487,2.6487,2.6487,2.6487,2.6487,2.6487,2.6427,2.5793,2.5147,2.4683,2.407,2.3383,2.2833,2.0959,1.9328,1.8441,1.7784,1.7308,1.6907,1.6602,1.6377,1.6172,1.5937,1.5771,1.5762,1.5261,1.4709,1.4464,1.4127,1.3327,1.2086,1.1394,1.0799,5.1229,5.1229,5.1229,5.1229,5.1139,4.9987,4.9134,4.8401,4.8327,4.7908,4.7309,4.7309,4.7309,4.7309,4.7309,4.7309,4.7309,4.7309,4.6995,4.6411,4.5648,4.499,4.4421,4.3673,4.3305,4.3305,4.3305,4.3,4.2396,4.1737,4.104,4.0397,3.9738,3.9388,3.9352,3.8457,3.7956,3.7791,3.6891,3.633,3.6198,3.5359,3.4618,3.3993,3.2998,3.262,3.2816,3.2042,3.1513,3.1357,3.0595,2.944,2.7936,2.7954,2.7741,0.0,2.725,0.0,0.0,0.0,0.0,0.0,0.0,0.0,0.0,2.564,2.6146,2.6101,2.7012,2.7498,2.7329,2.7329,2.7243,2.7168,2.6788,2.6487,2.6487,2.6487,2.6487,2.6487,2.6487,2.6487,2.6487,2.6487,2.6487,2.6474,2.6386,2.6323,2.6323,2.5925,2.5277,2.44,2.4521,2.4025,2.2718,2.0869,1.9393,1.8818,1.7939,1.7167,1.6607,1.6207,1.5919,1.5654,1.5546,1.543,1.542,1.5381,1.5176,1.4817,1.4614,1.4016,1.2695,1.1712,1.0852,5.1229,5.1229,5.1229,5.1229,5.1152,5.096,5.0182,4.909,4.8506,4.7908,4.7324,4.7309,4.7309,4.7309,4.7309,4.7309,4.7309,4.7309,4.7234,4.7085,4.5858,4.5229,4.505,4.3843,4.3305,4.3305,4.3305,4.2985,4.2381,4.1698,4.104,4.0397,3.9753,3.9388,0.0,0.0,0.0,0.0,3.7601,3.706,3.6237,3.6013,3.562,3.5045,3.4347,0.0,3.3291,3.2704,3.2373,3.2335,3.2177,0.0,0.0,0.0,0.0,0.0,0.0,0.0,0.0,0.0,0.0,0.0,2.8152,2.7872,2.753,2.8483,2.9072,2.882,2.8978,2.8598,2.7437,2.7329,2.7105,2.67,2.6562,2.6487,2.6487,2.6487,2.6487,2.6487,2.6487,2.6487,2.6487,2.6487,2.6487,2.6461,2.6097,2.5787,2.5762,2.5636,2.5357,2.4793,2.4354,2.366,2.2272,2.1272,2.0296,1.9545,1.8179,1.7483,1.7613,1.6489,1.584,1.6122,1.5806,1.541,1.54,1.5146,1.4893,1.4795,1.4228,1.348,1.2671,1.2325,1.186,5.1229,0.0,5.1229,5.1229,0.0,5.1229,5.0661,4.9703,4.906,4.8222,4.7309,4.7309,4.7309,4.7309,4.7309,4.7309,4.7309,4.7309,4.7309,4.7234,4.5918,4.5289,4.5259,4.3902,4.3305,4.3305,4.3305,4.314,4.2806,4.1848,4.122,4.0861,3.9918,3.9388,3.9388,3.9388,3.9141,3.8598,3.8598,3.8308,3.7762,3.7252,3.657,3.5667,0.0,0.0,0.0,0.0,0.0,0.0,0.0,0.0,0.0,0.0,0.0,3.0623,3.0448,3.0376,3.0376,3.0376,3.0491,3.0793,3.1096,3.0782,2.9682,3.016,3.04,3.0263,3.0201,2.9839,2.9125,2.8731,2.8237,2.7575,2.7262,2.6939,2.6589,2.6487,2.6487,2.6487,2.6487,2.6487,2.6487,2.6487,2.6487,2.6461,2.5996,2.5485,2.5247,2.4971,2.4619,2.4061,2.3747,2.3336,2.2604,2.1608,2.0819,2.0031,1.8748,1.7908,1.7935,1.7158,1.6539,1.651,1.6179,1.5813,1.5184,1.495,1.4696,1.4238,1.3809,1.3326,1.2789,1.2411,1.2009,5.1229,5.1229,5.1229,5.1229,5.1229,5.1229,5.078,4.9971,0.0,0.0,0.0,4.7309,4.7309,4.7309,4.7309,4.7309,4.7309,4.7309,4.7309,4.7234,4.5918,4.5289,4.5229,4.3943,4.3305,4.3305,4.3305,4.323,4.308,4.1953,4.1362,4.11,4.0008,3.9388,3.9388,3.9388,3.9388,3.9388,3.9388,3.9388,3.9388,3.8546,3.7541,3.6459,3.5457,3.4767,3.4428,3.3604,3.3271,3.3572,3.2867,3.2213,3.1688,3.2249,3.2573,3.2457,3.3099,3.3499,3.3499,3.3499,3.3544,3.3664,3.3679,3.309,3.1698,3.15,3.142,3.1385,3.1182,3.0924,3.0646,3.0124,2.9485,2.8678,2.8199,2.7604,2.6871,2.6884,2.6905,2.6602,2.6658,2.6658,2.6521,2.6487,2.6487,2.6411,2.5896,2.5197,2.46,2.4142,2.3722,2.3296,2.3208,2.312,2.293,2.1979,2.1043,2.0663,1.936,1.83,1.8032,1.777,1.7413,1.709,1.6821,1.6238,1.5265,1.4974,1.4557,1.3678,1.3437,1.3301,1.2954,1.2427,1.2064,5.1229,5.1229,5.1229,5.1229,5.1229,5.1229,5.0541,4.9419,4.8701,4.7997,4.7309,4.7309,4.7309,4.7309,4.7309,4.7309,4.7309,4.7309,4.7309,0.0,4.5918,4.5289,4.5214,4.3902,4.3305,4.3305,4.3305,4.3045,4.2515,4.1782,4.11,4.0531,3.9783,3.9388,3.9388,3.9388,3.9388,3.9388,3.9388,3.9388,3.9388,3.9265,3.8805,3.8096,3.7327,3.6719,3.6142,3.5444,3.5103,3.516,3.5047,3.4703,3.4051,3.4101,3.3912,3.3375,3.3438,3.3499,3.3514,3.3499,3.3739,3.4309,3.4369,3.4243,3.4008,3.3472,3.3054,3.2824,3.2276,3.1348,3.014,2.9909,2.9633,2.9064,2.8867,2.846,2.767,2.8136,2.8038,2.6816,2.7129,2.7263,2.6679,2.6555,2.6543,2.6336,2.5536,2.4537,2.371,2.3283,2.3208,2.312,2.3095,2.3095,2.2927,2.2189,2.143,2.1366,1.9818,1.8857,1.9239,1.8474,1.7934,1.8259,1.7813,1.7049,1.5985,1.542,1.4737,1.3804,1.3337,1.3003,1.2915,1.2749,1.27,5.1229,5.1229,5.1229,5.1229,5.1229,5.1229,5.0466,4.9329,4.8955,4.8237,4.7339,4.7309,4.7309,4.7309,4.7309,4.7309,4.7309,4.7309,4.71,4.6711,4.5753,4.5095,4.4706,4.3753,4.3305,4.3305,4.3305,4.314,4.2806,4.1863,4.1235,4.0876,3.9933,3.9388,3.9388,3.9388,3.9388,3.9388,3.9388,3.9388,3.9388,3.9388,3.9095,3.8407,3.8093,3.7479,3.6522,3.6193,3.5878,3.5519,3.5489,3.5355,3.507,3.504,3.4891,3.4607,3.4592,3.4577,3.4592,3.4577,3.4711,3.5011,3.5026,3.504,3.504,3.4771,3.4373,3.39,3.3233,3.2462,3.1356,3.0933,3.0448,2.9777,2.9704,2.9348,2.8607,2.8703,2.8671,2.8032,2.8182,2.8084,2.7263,2.7129,2.6785,2.611,2.5059,2.4067,2.3233,2.3095,2.3095,2.3095,2.3095,2.2957,2.2694,2.2033,2.1458,2.1104,2.0112,1.9511,1.9747,1.9123,1.8859,1.8688,1.8382,1.7771,1.6718,1.5763,1.497,1.428,1.3402,1.2993,1.2915,1.2915,1.2915,5.1229,5.1229,5.1229,5.1229,5.1229,5.1229,5.0556,4.9523,4.9374,4.8655,4.7593,4.7384,4.7309,4.7309,4.7309,4.7309,4.7309,4.7309,4.695,4.6307,4.5603,4.4945,4.4302,4.3604,4.3305,4.3305,4.3305,4.323,4.3,4.1938,4.122,4.0876,3.9918,3.9388,3.9388,3.9388,3.9388,3.9388,3.9388,3.9388,3.9388,3.9388,3.917,3.8661,3.8302,3.7719,3.6761,3.6417,3.6028,3.5549,3.5489,3.5489,3.5489,3.5489,3.5489,3.5489,3.5489,3.5489,3.5489,3.5489,3.5489,3.5489,3.5489,3.5489,3.5489,3.5489,3.522,3.4532,3.3693,3.299,3.2437,3.1841,3.1248,3.0644,3.0569,3.0194,2.9473,2.9456,2.9348,2.9129,2.916,2.8971,2.822,2.7866,2.7221,2.5974,2.4892,2.4068,2.3504,2.3245,2.3095,2.3095,2.3095,2.297,2.2493,2.192,2.138,2.0905,2.025,1.9873,1.9773,1.9798,1.9618,1.9123,1.8953,1.8391,1.7315,1.624,1.5289,1.4482,1.3537,1.2915,1.2915,1.2915,1.2915,5.1229,5.1229,5.1229,5.1229,5.1229,5.1229,5.0795,5.0046,4.9569,4.891,4.8132,4.7563,4.7309,4.7309,4.7309,4.7309,4.7309,4.7309,4.695,4.6277,4.5618,4.4945,4.4272,4.3589,4.3305,4.3305,4.3305,4.306,4.2536,4.1796,4.0786,3.9723,3.9433,3.9388,3.9388,3.9388,3.9388,3.9388,3.9388,3.9388,3.9388,3.9388,3.9343,3.9284,3.8138,3.7464,3.727,3.6207,3.5579,3.5519,3.5489,3.5489,3.5489,3.5489,3.5489,3.5489,3.5489,3.5489,3.5489,3.5489,3.5489,3.5489,3.5489,3.5489,3.5489,3.5489,3.522,3.4502,3.3365,3.2691,3.2452,3.1869,3.1438,3.1307,3.1307,3.1058,3.0419,3.0837,3.0703,2.9129,2.9752,2.9844,2.9024,2.8328,2.7441,2.6261,2.5405,2.4708,2.4119,2.359,2.3155,2.3125,2.3095,2.307,2.2832,2.2146,2.1506,2.128,2.0476,1.9936,1.9798,1.9798,1.9747,1.9579,1.9605,1.9027,1.7889,1.669,1.5786,1.4739,1.3807,1.2954,1.2929,1.2905,1.2929,5.1229,5.1229,5.1229,5.1229,5.1229,5.1229,5.084,5.0151,4.9553,4.894,4.8252,4.7593,4.7309,4.7309,4.7309,4.7309,4.7309,4.7309,4.6726,4.5768,4.5409,4.4751,4.3738,4.3424,4.3305,4.3305,4.3305,4.317,4.2806,4.1893,4.0711,3.9523,3.9388,3.9388,3.9388,3.9388,3.9388,3.9388,3.9388,3.9388,3.9388,3.9388,3.9388,3.9284,3.8482,3.7793,3.7375,3.6537,3.5908,3.5549,3.5489,3.5489,3.5489,3.5489,3.5489,3.5489,3.5489,3.5489,3.5489,3.5489,3.5489,3.5489,3.5489,3.5489,3.5489,3.5489,3.537,3.4996,3.3858,3.2826,3.2064,3.166,3.1496,3.1496,3.1496,3.1336,3.1087,3.1278,3.1161,3.0569,3.0763,3.0673,2.9746,2.8435,2.7232,2.6333,2.5675,2.5079,2.4421,2.4002,2.3649,2.3215,2.3095,2.2945,2.2656,2.2033,2.1443,2.1006,2.0338,1.9811,1.9798,1.9798,1.9798,1.9798,1.9798,1.9634,1.9044,1.7712,1.6578,1.5509,1.4333,1.3539,1.3884,1.3392,1.3113,5.1229,5.1229,5.1229,5.1229,5.1229,5.1229,5.0898,5.0421,4.9628,4.9045,4.8535,4.7683,4.7309,4.7309,4.7309,4.7309,4.7309,4.7309,4.6576,4.5394,4.5289,4.4586,4.3394,4.3305,4.3305,4.3305,4.3305,4.3095,4.2731,4.1683,4.0531,3.9574,3.9388,3.9388,3.9388,3.9388,3.9388,3.9388,3.9388,3.9388,3.9388,3.9388,3.9388,3.9313,3.8571,3.7883,3.7419,3.6641,3.6013,3.5534,3.5489,3.5489,3.5489,3.5489,3.5489,3.5489,3.5489,3.5489,3.5489,3.5489,3.5489,3.5489,3.5489,3.5489,3.5489,3.5489,3.5415,3.513,3.4322,3.3275,3.2273,3.172,3.1511,3.1496,3.1496,3.1496,3.1467,3.1496,3.1496,3.1496,3.1365,3.1143,3.0163,2.8828,2.7698,2.6819,2.6104,2.5563,2.4951,2.4595,2.4118,2.3767,2.3442,2.2882,2.2368,2.1857,2.1333,2.0779,2.0188,1.9811,1.9798,1.9798,1.9798,1.9798,1.9798,1.9584,1.912,1.8191,1.7133,1.6572,1.5398,1.4188,1.4445,1.386,1.3695,5.1229,5.1229,5.1229,5.1229,5.1229,5.1229,5.1199,5.102,4.9808,4.9284,4.9045,4.7863,4.7309,4.7309,4.7309,4.7309,4.7309,4.7309,4.6591,4.5364,4.5289,4.4601,4.3349,4.3305,4.3305,4.3305,4.3305,4.2692,4.1579,4.0816,4.0098,3.9418,3.9388,3.9388,3.9388,3.9388,3.9388,3.9388,3.9388,3.9388,3.9388,3.9388,3.9388,3.9269,3.8182,3.7524,3.7285,3.6222,3.5549,3.5504,3.5489,3.5489,3.5489,3.5489,3.5489,3.5489,3.5489,3.5489,3.5489,3.5489,3.5489,3.5489,3.5489,3.5489,3.5489,3.5489,3.528,3.4622,3.4533,3.4038,3.3305,3.2258,3.1585,3.1496,3.1496,3.1496,3.1496,3.1496,3.1496,3.1496,3.1451,3.0901,2.9826,2.957,2.8667,2.7676,2.6881,2.6377,2.6068,2.5147,2.4753,2.4724,2.4082,2.2949,2.2426,2.1845,2.1305,2.095,2.0523,1.9811,1.9798,1.9798,1.9798,1.9798,1.9798,1.9584,1.9083,1.8289,1.7301,1.6477,1.5567,1.4857,1.5085,1.4789,1.4606,5.1229,5.1229,5.1229,5.1229,5.1229,5.1229,5.1229,5.1079,4.9823,4.9299,4.9075,4.7878,4.7309,4.7309,4.7309,4.7309,4.7309,4.7309,4.6576,4.5394,4.5289,4.4586,4.3394,4.3305,4.3305,4.3305,4.329,4.2656,4.1444,4.0711,4.0053,3.9493,3.9388,3.9388,3.9388,3.9388,3.9388,3.9388,3.9388,3.9388,3.9388,3.9388,3.9388,3.9343,3.8527,3.7838,3.7419,3.6582,3.5953,3.5519,3.5489,3.5489,3.5489,3.5489,3.5489,3.5489,3.5489,3.5489,3.5489,3.5489,3.5489,3.5489,3.5489,3.5489,3.5489,3.5489,3.54,3.513,3.4713,3.4234,3.3529,3.2677,3.1959,3.1585,3.1496,3.1496,3.1496,3.1496,3.1496,3.1436,3.1152,3.0507,2.9804,2.9247,2.8592,2.7784,2.7357,2.7023,2.6563,2.5987,2.5618,2.5398,2.4924,2.4368,2.3794,2.2354,2.1426,2.1371,2.1028,2.0142,1.9798,1.9798,1.9798,1.9798,1.9798,1.9698,1.9221,1.8485,1.7472,1.6627,1.5696,1.5479,1.5788,1.5366,1.5175,5.1229,5.1229,5.1229,5.1229,5.1229,5.1229,5.1229,5.1065,4.9838,4.9299,4.906,4.7893,4.7309,4.7309,4.7309,4.7309,4.7309,4.7294,4.6576,4.5364,4.5289,4.4601,4.3469,4.3305,4.3305,4.3215,4.2865,4.2207,4.1369,4.0502,3.9873,3.9439,3.9388,3.9388,3.9388,3.9388,3.9388,3.9388,3.9388,3.9388,3.9388,3.9388,3.9388,3.9328,3.8975,3.8407,3.7734,3.6926,3.6297,3.5878,3.5624,3.5489,3.5489,3.5489,3.5489,3.5489,3.5489,3.5489,3.5489,3.5489,3.5489,3.5489,3.5489,3.5489,3.5489,3.5489,3.5489,3.54,3.513,3.4487,3.3649,3.308,3.2452,3.1705,3.1496,3.1496,3.1496,3.1496,3.1496,3.1406,3.0913,3.0298,2.9654,2.9011,2.8368,2.769,2.7585,2.7357,2.6982,2.6616,2.6496,2.6108,2.5646,2.5506,2.5044,2.3877,2.2151,2.1839,2.1199,2.0374,1.9798,1.9798,1.9798,1.9798,1.9761,1.9698,1.9284,1.8568,1.7754,1.6914,1.6371,1.5998,1.602,1.5832,1.5722,5.1229,5.1229,5.1229,5.1229,5.1229,5.1229,5.1229,5.1005,4.9823,4.9299,4.9134,4.7878,4.7309,4.7309,4.7309,4.7309,4.7309,4.7309,4.6636,4.5469,4.5319,4.4631,4.3424,4.3334,4.3305,4.323,4.2073,4.1527,4.1362,4.0232,3.9559,3.9418,3.9388,3.9388,3.9388,3.9388,3.9388,3.9388,3.9388,3.9388,3.9388,3.9388,3.9388,3.9388,3.9328,3.905,3.8392,3.724,3.6626,3.6432,3.5938,3.5564,3.5594,3.5534,3.5489,3.5489,3.5489,3.5489,3.5489,3.5489,3.5489,3.5489,3.5489,3.5489,3.5489,3.5489,3.5489,3.5474,3.5415,3.4951,3.3858,3.3469,3.2901,3.175,3.1496,3.1496,3.1496,3.1496,3.1496,3.1391,3.0853,3.0253,2.9639,2.8906,2.8233,2.7764,2.7585,2.756,2.7408,2.6982,2.693,2.706,2.6613,2.6195,2.5937,2.5434,2.3664,2.2198,2.1346,2.0522,1.9978,1.9798,1.9798,1.9798,1.9798,1.9698,1.8995,1.8304,1.7752,1.7039,1.6701,1.6358,1.6272,1.6163,1.6272,5.1229,5.1229,5.1229,5.1229,5.1229,5.1229,5.1229,5.1079,4.9823,4.9314,4.906,4.7878,4.7309,4.7309,4.7309,4.7309,4.7309,4.7279,4.683,4.6052,4.5529,4.484,4.4047,4.3499,4.3305,4.317,4.2476,4.1841,4.1309,4.0502,3.9888,3.9514,3.9388,3.9388,3.9388,3.9388,3.9388,3.9388,3.9388,3.9388,3.9388,3.9388,3.9388,3.9388,3.9388,3.9305,3.908,3.8257,3.7599,3.715,3.6926,3.6626,3.6207,3.5744,3.5504,3.5489,3.5489,3.5489,3.5489,3.5489,3.5489,3.5489,3.5489,3.5489,3.5489,3.5489,3.5489,3.5489,3.5489,3.51,3.4322,3.3739,3.2946,3.1645,3.1496,3.1496,3.1496,3.1496,3.1496,3.1376,3.0567,2.9849,2.9445,2.8753,2.7959,2.769,2.7585,2.7585,2.7534,2.7382,2.7265,2.7458,2.7019,2.6797,2.6645,2.6113,2.4757,2.3142,2.2024,2.1006,2.0408,1.9952,1.9927,1.9773,1.9773,1.9409,1.8706,1.8116,1.7589,1.7074,1.6582,1.6457,1.65,1.6513,1.6513,5.1229,5.1229,5.1229,5.1229,5.1229,5.1229,5.1229,5.102,4.9838,4.9299,4.9045,4.7893,4.7309,4.7309,4.7309,4.7309,4.7309,4.7309,4.71,4.6561,4.5678,4.496,4.4302,4.3604,4.3305,4.3185,4.2671,4.2201,4.1752,4.0846,4.0187,3.9828,3.9523,3.9388,3.9388,3.9388,3.9388,3.9388,3.9388,3.9388,3.9388,3.9388,3.9388,3.9388,3.9388,3.9388,3.9394,3.899,3.8467,3.7853,3.7554,3.721,3.6821,3.6237,3.5863,3.5818,3.5639,3.5489,3.5489,3.5489,3.5489,3.5489,3.5489,3.5489,3.5489,3.5489,3.5489,3.5489,3.5489,3.522,3.4547,3.3888,3.3021,3.2004,3.1645,3.1525,3.1496,3.1496,3.1496,3.1301,3.0612,2.9953,2.9427,2.8768,2.7884,2.769,2.7585,2.7585,2.7585,2.7585,2.7585,2.7585,2.7458,2.7378,2.7419,2.6703,2.5701,2.4279,2.2873,2.1842,2.0988,2.0509,2.0308,1.9813,1.9648,1.9133,1.8468,1.8016,1.7513,1.7024,1.6513,1.6513,1.6513,1.6513,1.6513,5.1229,5.1229,5.1229,5.1229,5.1229,5.1229,5.1229,5.102,4.9823,4.9299,4.903,4.7878,4.7309,4.7309,4.7309,4.7309,4.7309,4.7309,4.7409,4.7074,4.6127,4.5131,4.4364,4.3792,4.3488,4.324,4.2746,4.247,4.2231,4.113,4.0427,4.0277,3.9723,3.9388,3.9388,3.9388,3.9388,3.9388,3.9388,3.9388,3.9388,3.9388,3.9388,3.9388,3.9388,3.9388,3.9373,3.9298,3.9065,3.8467,3.7883,3.7524,3.736,3.6866,3.6537,3.6507,3.5923,3.5684,3.5594,3.5534,3.5489,3.5489,3.5489,3.5489,3.5489,3.5489,3.5489,3.5489,3.5489,3.5265,3.4637,3.4023,3.3305,3.2587,3.1869,3.154,3.1496,3.1496,3.1496,3.1391,3.0926,3.0298,2.9729,2.9026,2.8349,2.7914,2.769,2.7585,2.7585,2.7585,2.7585,2.7585,2.7585,2.757,2.7525,2.6976,2.5994,2.5044,2.3688,2.2635,2.1537,2.0966,2.0409,1.9927,1.9573,1.8969,1.8392,1.799,1.7413,1.6776,1.6525,1.6513,1.6513,1.6513,1.6513,5.1229,5.1229,5.1229,5.1229,5.1229,5.1229,5.1229,5.105,4.9868,4.9389,4.903,4.7893,4.7352,4.7309,4.7309,4.7309,4.7309,4.7309,4.7764,4.8105,4.6966,4.5708,4.4872,4.4481,4.4004,4.3403,4.3184,4.2836,4.2366,4.1671,4.1018,4.0382,3.9959,3.9475,3.9388,3.9475,3.9388,3.9388,3.9424,3.9445,3.9481,3.9481,3.9388,3.9388,3.9424,3.9424,3.9388,3.9388,3.9328,3.914,3.8497,3.8123,3.8078,3.7539,3.718,3.7075,3.6611,3.6222,3.6118,3.5789,3.5534,3.5489,3.5519,3.5489,3.5489,3.5504,3.5504,3.5489,3.5489,3.5429,3.513,3.4592,3.3754,3.2632,3.1929,3.154,3.1496,3.1496,3.1496,3.1421,3.0911,3.0507,3.0088,2.9355,2.8577,2.8278,2.7929,2.7585,2.7585,2.7585,2.7585,2.7585,2.7585,2.7585,2.7435,2.6956,2.6309,2.5565,2.4496,2.343,2.2268,2.1234,2.0584,1.994,1.9915,1.9483,1.8729,1.8129,1.7378,1.6763,1.6538,1.6534,1.6513,1.6513,1.6513,5.1229,5.1229,5.1229,5.1229,5.1229,5.1229,5.1229,5.1038,5.0351,4.9951,4.9647,4.848,4.7961,4.7876,4.7495,4.7309,4.7309,4.7309,4.7876,4.8608,4.8243,4.7035,4.573,4.5058,4.4488,4.4004,4.3927,4.3753,4.3495,4.3137,4.2788,4.2396,4.143,4.0804,4.0451,4.0076,3.992,3.9955,3.9955,4.008,4.0447,4.0481,4.022,4.006,3.9935,3.9829,3.9481,3.9388,3.9388,3.9298,3.9035,3.8826,3.8766,3.8197,3.7823,3.7793,3.724,3.6776,3.6477,3.6103,3.5938,3.5848,3.5714,3.5684,3.5789,3.5714,3.5489,3.5489,3.5489,3.5489,3.54,3.4891,3.3903,3.2751,3.2138,3.1795,3.157,3.1496,3.1496,3.1406,3.1167,3.0748,3.0552,2.9609,2.9011,2.8547,2.7949,2.7735,2.7585,2.7585,2.7585,2.7585,2.7585,2.7585,2.7585,2.7225,2.6776,2.604,2.5065,2.4024,2.2976,2.1769,2.1113,2.0608,2.0371,1.9939,1.9127,1.8363,1.7765,1.7215,1.6835,1.6547,1.6513,1.6513,1.6513,5.1229,5.1229,5.1229,5.1229,5.1229,5.1229,5.1229,5.1146,5.0837,5.07,5.0406,4.9347,4.8666,4.8759,4.7946,4.751,4.7538,4.7849,4.8275,4.8938,4.9111,4.8466,4.6738,4.5814,4.5264,4.4968,4.4946,4.493,4.4798,4.4985,4.5048,4.4448,4.3543,4.2718,4.1888,4.1299,4.0969,4.0826,4.0826,4.1113,4.1576,4.1658,4.1379,4.0927,4.0826,4.0413,3.9864,3.961,3.961,3.9553,3.946,3.9406,3.9346,3.8892,3.8542,3.8377,3.7898,3.73,3.6821,3.6731,3.6582,3.6507,3.6073,3.5878,3.6237,3.5968,3.5669,3.5504,3.5489,3.5489,3.5415,3.4891,3.4083,3.3095,3.2721,3.2213,3.1765,3.154,3.1496,3.1496,3.1496,3.1182,3.0673,3.0058,2.946,2.8981,2.8353,2.7929,2.772,2.7585,2.7585,2.7585,2.7585,2.7585,2.7585,2.754,2.7091,2.6512,2.5501,2.4519,2.3618,2.2605,2.1949,2.1428,2.1026,2.0322,1.9439,1.8757,1.8242,1.7539,1.7058,1.6748,1.6538,1.6513,1.6513,5.1229,5.1229,5.1229,5.1229,5.1229,5.1229,5.1229,5.1219,5.0953,5.094,5.0545,4.943,4.8938,4.8866,4.8636,4.8486,4.8636,4.9177,4.9716,4.9509,4.9859,4.9466,4.8277,4.7356,4.659,4.6067,4.5905,4.5905,4.5837,4.5616,4.5236,4.5193,4.4637,4.3599,4.2937,4.26,4.2265,4.1835,4.1739,4.1836,4.2062,4.2189,4.2029,4.1739,4.1707,4.1247,4.0622,4.0432,4.0432,4.0274,3.9884,3.9829,4.0069,3.9556,3.9161,3.899,3.8556,3.8108,3.7898,3.7479,3.721,3.718,3.6985,3.6851,3.6462,3.6372,3.5998,3.5669,3.5489,3.5489,3.5444,3.4891,3.4399,3.3858,3.3155,3.2512,3.2243,3.1795,3.1525,3.1496,3.1496,3.1451,3.1285,3.0642,3.0013,2.943,2.8801,2.8188,2.7914,2.769,2.7585,2.7585,2.7585,2.7585,2.7585,2.754,2.7225,2.6821,2.5944,2.5173,2.4264,2.3366,2.2642,2.2081,2.1592,2.0812,2.0114,1.9586,1.9134,1.8211,1.739,1.7125,1.6945,1.6775,1.6513,5.1229,5.1229,5.1229,5.1229,5.1229,5.1229,5.1511,5.188,5.1643,5.1812,5.1941,5.0872,5.0281,5.0227,4.9797,4.9536,4.9679,5.0225,5.0228,4.9882,4.9938,4.968,4.9089,4.8482,4.777,4.6986,4.685,4.685,4.6822,4.6912,4.7111,4.6864,4.5927,4.5077,4.4138,4.3587,4.2971,4.2695,4.2614,4.2769,4.3152,4.3229,4.2923,4.2552,4.2252,4.1739,4.1346,4.1313,4.1543,4.1576,4.1062,4.0585,4.05,3.99,3.9445,3.9298,3.914,3.8661,3.8377,3.8093,3.7868,3.7853,3.7614,3.7479,3.715,3.6896,3.6357,3.5998,3.5714,3.5489,3.5489,3.5265,3.4891,3.4459,3.3873,3.3335,3.2916,3.2108,3.1496,3.1496,3.1496,3.1496,3.1286,3.0898,3.0537,2.9924,2.9011,2.8412,2.8214,2.7974,2.766,2.7585,2.7585,2.7585,2.7585,2.748,2.727,2.6896,2.6387,2.5749,2.511,2.4218,2.3335,2.2772,2.2231,2.1763,2.1097,2.0577,2.0097,1.9525,1.8828,1.8009,1.7441,1.7326,1.6928,5.1229,5.1229,5.1229,5.1229,5.1229,5.1229,5.1819,5.2699,5.2479,5.2763,5.3541,5.2511,5.1578,5.1667,5.0968,5.0703,5.0869,5.0645,5.0535,5.0174,4.985,4.9528,4.9055,4.8829,4.8545,4.7868,4.7803,4.7803,4.8015,4.8528,4.8505,4.8655,4.7791,4.6558,4.5576,4.4575,4.385,4.3568,4.3515,4.3739,4.4253,4.4384,4.4035,4.3515,4.2984,4.2489,4.23,4.2221,4.2489,4.3185,4.2347,4.1576,4.0912,4.0115,3.961,3.961,3.9478,3.9253,3.9018,3.8697,3.8542,3.8527,3.8108,3.7943,3.7988,3.7494,3.6971,3.6507,3.6163,3.5669,3.5534,3.5429,3.5175,3.4818,3.4608,3.4249,3.3589,3.2497,3.1839,3.169,3.16,3.1496,3.1376,3.1092,3.0763,3.0372,2.946,2.8771,2.8562,2.8304,2.8034,2.7735,2.775,2.7615,2.7585,2.7585,2.7345,2.7165,2.6746,2.6372,2.5854,2.5063,2.421,2.3463,2.2898,2.2429,2.1964,2.1449,2.1047,2.0754,2.0098,1.9104,1.8453,1.7954,1.7443,5.1229,5.1229,5.1229,5.1229,5.1229,5.1229,5.185,5.2712,5.2521,5.296,5.3757,5.2564,5.201,5.1885,5.1813,5.2134,5.236,5.1698,5.101,5.0573,4.9902,4.912,4.9069,4.9001,4.8861,4.8829,4.8688,4.8656,4.8688,4.894,4.9018,4.8951,4.8629,4.7801,4.6814,4.6191,4.5244,4.4459,4.4275,4.4412,4.4525,4.457,4.4542,4.4224,4.396,4.3651,4.3199,4.3078,4.3185,4.3139,4.1756,4.1445,4.1429,4.0894,4.05,4.0239,3.9737,3.9525,3.9925,3.9531,3.9286,3.9215,3.902,3.8706,3.8497,3.8138,3.7644,3.7135,3.6626,3.6088,3.5549,3.5519,3.5474,3.519,3.4846,3.4533,3.4159,3.332,3.2407,3.2318,3.1944,3.1496,3.1376,3.1271,3.1062,3.0748,3.0178,2.9594,2.934,2.8936,2.8502,2.8229,2.7944,2.7764,2.7585,2.7585,2.751,2.748,2.7225,2.7016,2.6482,2.5869,2.5116,2.4346,2.3621,2.3068,2.2624,2.2184,2.1863,2.1513,2.0808,2.0075,1.958,1.9021,1.8182,5.1229,5.1229,5.1229,5.1229,5.1229,5.1229,5.2184,5.3494,5.2799,5.3288,5.4054,5.3415,5.2714,5.2714,5.2714,5.3059,5.2977,5.1911,5.1285,5.0896,4.9763,4.9018,4.9018,4.9018,4.9001,4.9001,4.9001,4.9018,4.9001,4.9018,4.9018,4.89,4.868,4.8054,4.7327,4.6486,4.5957,4.5162,4.4835,4.4615,4.4598,4.4598,4.4598,4.4598,4.4598,4.4355,4.4121,4.396,4.3977,4.3844,4.3183,4.2536,4.2029,4.1609,4.1147,4.069,3.992,3.9793,4.0378,3.992,3.9394,3.9373,3.9388,3.9254,3.8931,3.8571,3.8138,3.7494,3.6866,3.6405,3.6058,3.5729,3.5519,3.5444,3.5175,3.5011,3.4771,3.4038,3.3499,3.2961,3.2138,3.166,3.1496,3.1391,3.1301,3.1047,3.0746,3.0432,3.0103,2.9579,2.9056,2.8547,2.8214,2.7899,2.7705,2.763,2.76,2.7585,2.7555,2.736,2.7076,2.6408,2.5815,2.5178,2.4499,2.3614,2.3194,2.2736,2.2473,2.2224,2.164,2.1075,2.0654,2.0062,1.9257,5.1229,5.1229,5.1229,5.1229,5.1214,5.1479,5.2586,5.3891,5.315,5.3667,5.5102,5.4126,5.3433,5.3467,5.3467,5.345,5.3348,5.1911,5.1285,5.0913,4.9712,4.9018,4.9018,4.9018,4.9018,4.9018,4.9018,4.9018,4.9018,4.9018,4.9018,4.8917,4.8392,4.8007,4.7682,4.6955,4.6194,4.5551,4.5179,4.4818,4.4632,4.4598,4.4598,4.4598,4.4598,4.457,4.4497,4.4468,4.4468,4.4412,4.4138,4.3604,4.2489,4.1933,4.1576,4.1129,4.013,4.0025,4.0255,3.99,3.9388,3.9388,3.9388,3.9373,3.9269,3.8886,3.8377,3.7674,3.727,3.678,3.6432,3.6028,3.5699,3.5489,3.5489,3.5429,3.5235,3.4756,3.4174,3.341,3.2363,3.1839,3.1675,3.1496,3.1391,3.1376,3.1062,3.0987,3.0672,3.0148,2.9606,2.8921,2.8483,2.8094,2.7854,2.769,2.7645,2.7585,2.7585,2.7495,2.727,2.6956,2.6363,2.5749,2.4739,2.394,2.3585,2.3312,2.3069,2.2804,2.2449,2.2064,2.164,2.1147,2.0451,5.1229,5.1229,5.1229,5.1229,5.1386,5.2215,5.3008,5.3629,5.3708,5.4087,5.4769,5.394,5.3518,5.3518,5.3518,5.3518,5.3044,5.2012,5.1202,5.098,4.9729,4.9018,4.9018,4.9018,4.9018,4.9018,4.9018,4.9018,4.9018,4.9018,4.9018,4.8934,4.8849,4.8595,4.8024,4.7534,4.6959,4.5974,4.5635,4.5246,4.4767,4.4632,4.4598,4.4598,4.4598,4.4598,4.4598,4.4598,4.4598,4.4514,4.3873,4.3426,4.2909,4.1593,4.1933,4.1804,4.1095,3.9758,4.0466,3.9935,3.9388,3.9388,3.9388,3.9388,3.9328,3.9305,3.8916,3.8347,3.8108,3.7644,3.6896,3.6447,3.6073,3.5759,3.5549,3.5519,3.54,3.519,3.4622,3.4098,3.317,3.2333,3.1854,3.166,3.1496,3.1481,3.1451,3.1361,3.1122,3.0567,3.0191,2.9535,2.8992,2.8603,2.8319,2.8109,2.7884,2.775,2.7615,2.7615,2.7435,2.7195,2.6811,2.6093,2.5136,2.4306,2.3881,2.368,2.3583,2.3355,2.3017,2.2815,2.2637,2.2114,2.1597,5.1229,5.1229,5.1229,5.1588,5.2139,5.2279,5.3144,5.408,5.3667,5.385,5.4344,5.3839,5.3518,5.3518,5.3518,5.3518,5.3162,5.1895,5.1219,5.0913,4.9813,4.9018,4.9018,4.9018,4.9018,4.9018,4.9018,4.9018,4.9018,4.9018,4.9018,4.9018,4.9001,4.8883,4.8426,4.8075,4.7584,4.6904,4.621,4.5568,4.5196,4.4869,4.4615,4.4598,4.4615,4.4598,4.4598,4.4598,4.4598,4.4542,4.4167,4.3785,4.332,4.2614,4.2458,4.2157,4.108,4.0638,4.1147,4.0095,3.9589,3.9388,3.9388,3.9388,3.9388,3.9373,3.9349,3.9005,3.8601,3.8093,3.7494,3.6896,3.6462,3.6088,3.5759,3.5564,3.5474,3.531,3.4966,3.4472,3.3963,3.3215,3.2467,3.2004,3.178,3.1615,3.154,3.1436,3.1197,3.0806,3.0462,3.0178,2.9654,2.9202,2.8948,2.8723,2.8368,2.8143,2.7705,2.7675,2.7585,2.7345,2.7031,2.6722,2.6078,2.5255,2.4418,2.3887,2.3701,2.3633,2.3573,2.3334,2.3098,2.3143,2.2681,5.1635,5.1603,5.165,5.2275,5.3262,5.2804,5.3462,5.4536,5.3844,5.3735,5.4023,5.3754,5.3518,5.3518,5.3518,5.3501,5.3365,5.1911,5.132,5.0727,4.9881,4.9103,4.9018,4.9018,4.9018,4.9018,4.9018,4.9018,4.9018,4.9018,4.9018,4.9018,4.9018,4.8968,4.8866,4.8545,4.8088,4.7652,4.6616,4.6075,4.5855,4.5263,4.5021,4.4869,4.4733,4.4598,4.4598,4.4598,4.4598,4.457,4.4542,4.4196,4.3756,4.3306,4.2909,4.2379,4.1313,4.0844,4.0894,4.0289,3.9589,3.9388,3.9388,3.9388,3.9388,3.9388,3.9373,3.9298,3.902,3.8661,3.8242,3.7464,3.6956,3.6507,3.6058,3.5789,3.5534,3.54,3.528,3.4951,3.4532,3.4189,3.341,3.2617,3.2138,3.1824,3.166,3.154,3.1271,3.1001,3.0896,3.0702,3.0253,2.9819,2.9639,2.9355,2.9011,2.8547,2.8109,2.7735,2.763,2.7555,2.736,2.7061,2.6776,2.6213,2.5375,2.4552,2.3804,2.3684,2.3595,2.3595,2.353,2.3595,2.3537,5.2783,5.2783,5.2827,5.3467,5.4451,5.4765,5.4492,5.4266,5.4347,5.4023,5.367,5.3534,5.3518,5.3518,5.3518,5.3518,5.3433,5.1911,5.1403,5.0777,4.983,4.9187,4.9052,4.9018,4.9018,4.9018,4.9018,4.9018,4.9018,4.9018,4.9018,4.9018,4.9018,4.9018,4.8984,4.8832,4.8511,4.8024,4.7158,4.6769,4.6515,4.6075,4.5652,4.5466,4.5038,4.4615,4.4615,4.4615,4.4598,4.4598,4.4598,4.457,4.4224,4.3814,4.338,4.2785,4.1674,4.1113,4.0724,4.013,3.9553,3.9388,3.9388,3.9388,3.9388,3.9388,3.9388,3.9388,3.923,3.899,3.8646,3.8197,3.7539,3.703,3.6537,3.6088,3.5804,3.5534,3.5415,3.531,3.5055,3.4681,3.4369,3.3559,3.2871,3.2497,3.1914,3.178,3.154,3.1286,3.1331,3.1167,3.0776,3.0477,3.0387,3.0028,2.9475,2.8966,2.8487,2.8034,2.766,2.7585,2.751,2.7375,2.7076,2.6731,2.6318,2.5465,2.4657,2.3924,2.3595,2.3595,2.3595,2.3595,2.3595,5.3683,5.4929,5.4929,5.4916,5.487,5.458,5.4394,5.4309,5.404,5.3805,5.3518,5.3518,5.3518,5.3518,5.3518,5.3518,5.3365,5.2435,5.1725,5.1014,5.0202,4.9492,4.9221,4.9018,4.9018,4.9018,4.9018,4.9018,4.9018,4.9018,4.9018,4.9018,4.9018,4.9018,4.9018,4.9018,4.8815,4.8511,4.7902,4.7496,4.7327,4.6786,4.6363,4.6312,4.5669,4.5314,4.5213,4.4801,4.4666,4.4598,4.4598,4.4598,4.4598,4.4179,4.3756,4.3246,4.1997,4.1247,4.0554,3.9884,3.9424,3.9388,3.9388,3.9388,3.9388,3.9388,3.9388,3.9388,3.9388,3.92,3.911,3.8631,3.8063,3.7584,3.709,3.6567,3.6103,3.5804,3.5534,3.5429,3.537,3.519,3.4861,3.4487,3.3829,3.3215,3.2572,3.1989,3.1765,3.1511,3.1496,3.1496,3.1107,3.1017,3.0913,3.0462,2.9909,2.9415,2.8906,2.8382,2.7929,2.763,2.754,2.7465,2.739,2.7061,2.6671,2.6183,2.5435,2.4425,2.3857,2.3595,2.3595,2.3595,2.3595,5.4789,5.6171,5.6316,5.6103,5.5534,5.4804,5.4556,5.4464,5.3839,5.3518,5.3518,5.3518,5.3518,5.3518,5.3518,5.3518,5.3298,5.2638,5.1911,5.115,5.0405,4.9712,4.9238,4.9018,4.9018,4.9018,4.9018,4.9018,4.9018,4.9018,4.9018,4.9018,4.9018,4.9018,4.9018,4.9018,4.9018,4.8849,4.8578,4.821,4.8139,4.753,4.7124,4.6938,4.6194,4.5669,4.5415,4.4993,4.4632,4.4598,4.4598,4.4598,4.4598,4.444,4.396,4.3139,4.2332,4.1511,4.0466,3.9814,3.9388,3.9388,3.9388,3.9388,3.9388,3.9388,3.9388,3.9388,3.9388,3.9388,3.9358,3.9005,3.8556,3.8093,3.7734,3.7225,3.6537,3.6103,3.5789,3.5534,3.5474,3.5415,3.5295,3.4936,3.4307,3.3589,3.2766,3.2287,3.2049,3.178,3.1496,3.1496,3.1406,3.1406,3.1421,3.0972,3.0537,2.9953,2.9415,2.8742,2.8263,2.7944,2.763,2.754,2.745,2.7315,2.7016,2.6587,2.5764,2.4761,2.4231,2.3684,2.3595,2.3595,2.3595,5.6109,5.6238,5.6597,5.6727,5.6419,5.5916,5.5191,5.4448,5.3805,5.3518,5.3518,5.3518,5.3518,5.3518,5.3518,5.3518,5.3365,5.2756,5.1995,5.1217,5.0608,4.9796,4.9255,4.9018,4.9018,4.9018,4.9018,4.9018,4.9018,4.9018,4.9018,4.9018,4.9018,4.9018,4.9018,4.9018,4.9018,4.9001,4.8917,4.8866,4.8697,4.8173,4.7953,4.7614,4.6735,4.616,4.6007,4.5246,4.4857,4.4835,4.4666,4.4615,4.4598,4.4598,4.3856,4.2473,4.2173,4.1196,3.9717,3.9481,3.9445,3.9517,3.961,3.9481,3.9445,3.9424,3.9388,3.9388,3.9388,3.9388,3.9373,3.9334,3.8945,3.8631,3.8272,3.7719,3.7,3.6372,3.6043,3.5624,3.5519,3.5489,3.5489,3.5295,3.4696,3.3948,3.3036,3.2572,3.2377,3.2079,3.1765,3.1496,3.1496,3.1496,3.1496,3.1496,3.1137,3.0567,2.9924,2.925,2.8607,2.8143,2.7899,2.769,2.754,2.745,2.7255,2.7031,2.6153,2.5307,2.4306,2.3774,2.367,2.3595,2.3595,5.6342,5.6613,5.6723,5.6224,5.5378,5.5091,5.4549,5.3907,5.3619,5.3518,5.3518,5.3518,5.3518,5.3518,5.3518,5.3518,5.3433,5.3331,5.257,5.1268,5.0879,5.005,4.939,4.9018,4.9018,4.9018,4.9018,4.9018,4.9018,4.9018,4.9018,4.9018,4.9018,4.9018,4.9018,4.9018,4.9018,4.9018,4.9001,4.8984,4.8968,4.8748,4.8578,4.8545,4.7564,4.7056,4.6938,4.5923,4.5382,4.5229,4.5026,4.4699,4.4666,4.4649,4.4018,4.2878,4.2426,4.1196,3.9935,3.9445,3.9702,3.991,3.9753,3.9681,4.008,3.9646,3.9517,3.9388,3.9388,3.9388,3.9373,3.9373,3.917,3.9065,3.8676,3.8003,3.733,3.6731,3.6252,3.5744,3.5489,3.5489,3.5489,3.5489,3.5026,3.4786,3.4023,3.314,3.2796,3.2482,3.2123,3.1675,3.1496,3.1496,3.1496,3.1496,3.1316,3.0776,3.0268,2.9744,2.9116,2.8517,2.8068,2.7869,2.772,2.757,2.739,2.7151,2.6656,2.5869,2.5001,2.4133,2.3804,2.3684,2.3595,5.6553,5.6729,5.6241,5.5497,5.4668,5.4583,5.4177,5.3602,5.3518,5.3518,5.3518,5.3518,5.3518,5.3518,5.3518,5.3518,5.3518,5.3467,5.2672,5.1354,5.1217,5.0253,4.9407,4.9018,4.9018,4.9018,4.9018,4.9018,4.9018,4.9018,4.9018,4.9018,4.9018,4.9018,4.9018,4.9018,4.9018,4.9018,4.9018,4.9001,4.9001,4.8951,4.8968,4.8765,4.8308,4.7838,4.7564,4.6904,4.6075,4.5872,4.5466,4.5021,4.4953,4.4666,4.4188,4.3336,4.2093,4.1138,4.0471,3.9871,4.0374,4.1298,4.0177,3.9768,4.008,3.9646,3.9481,3.9388,3.9388,3.9388,3.9388,3.9388,3.9343,3.9224,3.9,3.8362,3.7808,3.721,3.6641,3.6118,3.5594,3.5579,3.5489,3.5489,3.5355,3.5235,3.5055,3.4173,3.3275,3.2916,3.2542,3.2034,3.169,3.169,3.1615,3.1496,3.1256,3.0926,3.0537,3.0163,2.9639,2.9041,2.8517,2.8019,2.7809,2.763,2.7525,2.7255,2.6911,2.6507,2.5899,2.5031,2.4126,2.3879,2.3804,5.6765,5.6528,5.5192,5.4617,5.4532,5.4465,5.411,5.3518,5.3518,5.3518,5.3518,5.3518,5.3518,5.3518,5.3518,5.3518,5.3416,5.3416,5.2452,5.1522,5.1082,5.0084,4.9407,4.9018,4.9018,4.9018,4.9018,4.9018,4.9018,4.9018,4.9018,4.9018,4.9018,4.9018,4.9018,4.9018,4.9018,4.9018,4.9018,4.9018,4.9018,4.9018,4.9018,4.8832,4.8477,4.8189,4.7851,4.731,4.6938,4.6583,4.6143,4.5821,4.5466,4.4993,4.4202,4.3169,4.1739,4.1684,4.1267,4.0728,4.1049,4.1679,4.0504,3.9808,3.9628,3.9715,3.9424,3.9388,3.9388,3.9388,3.9388,3.9388,3.9388,3.9358,3.9358,3.8886,3.8347,3.7778,3.721,3.6626,3.5998,3.5729,3.5534,3.5489,3.5489,3.5429,3.5295,3.5055,3.4188,3.3455,3.3021,3.2392,3.2108,3.1944,3.1809,3.1555,3.1436,3.1152,3.0926,3.0552,3.0043,2.9505,2.8891,2.8364,2.7929,2.7675,2.757,2.745,2.73,2.6881,2.6437,2.5555,2.453,2.4283,2.4148,5.6173,5.5192,5.4752,5.4296,5.3856,5.3822,5.3687,5.3534,5.3518,5.3518,5.3518,5.3518,5.3518,5.3518,5.3518,5.3518,5.3264,5.2858,5.2097,5.1369,5.0693,4.9864,4.9306,4.9018,4.9018,4.9018,4.9018,4.9018,4.9018,4.9018,4.9018,4.9018,4.9018,4.9018,4.9018,4.9018,4.9018,4.9018,4.9018,4.9018,4.9018,4.9018,4.9018,4.8866,4.8781,4.8595,4.8426,4.7953,4.7648,4.7462,4.6853,4.6346,4.5652,4.5421,4.4884,4.3542,4.3083,4.3041,4.2053,4.1945,4.2159,4.1952,4.0822,4.0779,4.0542,4.0085,3.9499,3.9388,3.9388,3.9388,3.9388,3.9388,3.9388,3.9388,3.9358,3.9125,3.8616,3.8212,3.7629,3.6896,3.6282,3.5863,3.5654,3.5489,3.5489,3.5489,3.5444,3.531,3.504,3.4292,3.3619,3.3021,3.2422,3.2243,3.1824,3.154,3.1511,3.1421,3.1167,3.0926,3.0477,2.9909,2.9235,2.8607,2.8034,2.775,2.76,2.751,2.7435,2.7285,2.6841,2.5899,2.5083,2.4852,2.4537,5.5395,5.46,5.4279,5.3907,5.3551,5.3518,5.3518,5.3518,5.3518,5.3518,5.3518,5.3518,5.3518,5.3518,5.3501,5.3331,5.2926,5.2553,5.1792,5.0744,5.0287,4.9695,4.9238,4.9018,4.9018,4.9018,4.9018,4.9018,4.9018,4.9018,4.9018,4.9018,4.9018,4.9018,4.9018,4.9018,4.9018,4.9018,4.9018,4.9018,4.9018,4.9018,4.9018,4.9018,4.9018,4.9018,4.8984,4.846,4.8376,4.824,4.7614,4.709,4.6413,4.608,4.5262,4.4097,4.3976,4.3941,4.3483,4.3153,4.3019,4.2567,4.1776,4.1347,4.084,4.0242,3.97,3.9388,3.9388,3.9388,3.9388,3.9388,3.9388,3.9388,3.9298,3.9245,3.8901,3.8571,3.7898,3.7135,3.6582,3.6118,3.5818,3.5624,3.5489,3.5489,3.5489,3.5444,3.5325,3.4981,3.4352,3.3769,3.3051,3.2512,3.2049,3.1645,3.1525,3.1496,3.1421,3.1137,3.0821,3.0313,2.9639,2.8831,2.8023,2.7824,2.7615,2.76,2.7525,2.739,2.7255,2.6617,2.5914,2.5442,2.5106,5.4566,5.4431,5.3788,5.3551,5.3518,5.3518,5.3518,5.3518,5.3518,5.3518,5.3518,5.3518,5.3518,5.3518,5.3501,5.3044,5.2587,5.2164,5.1386,5.0118,4.9915,4.9492,4.9171,4.9018,4.9018,4.9018,4.9018,4.9018,4.9018,4.9018,4.9018,4.9018,4.9018,4.9018,4.9018,4.9018,4.9018,4.9018,4.9018,4.9018,4.9018,4.9018,4.9018,4.9018,4.9018,4.9018,4.9018,4.8984,4.9001,4.8765,4.8477,4.7956,4.7175,4.6397,4.5375,4.5007,4.4786,4.4832,4.4805,4.4633,4.4481,4.409,4.348,4.2478,4.1632,4.0491,3.9843,3.9433,3.9388,3.9388,3.9388,3.9388,3.9388,3.9388,3.9343,3.9298,3.9185,3.8796,3.8227,3.7509,3.6941,3.6432,3.5714,3.5489,3.5489,3.5489,3.5489,3.5489,3.5444,3.5325,3.4906,3.4307,3.335,3.2617,3.2303,3.1914,3.1585,3.1496,3.1496,3.1451,3.1167,3.0657,3.0028,2.9116,2.8188,2.7869,2.766,2.763,2.76,2.7555,2.742,2.727,2.6782,2.6228,2.5674,5.4262,5.3754,5.3585,5.3518,5.3518,5.3518,5.3518,5.3518,5.3518,5.3518,5.3518,5.3518,5.3518,5.3518,5.3501,5.3044,5.2317,5.1742,5.0963,5.0101,4.9593,4.934,4.9035,4.9018,4.9018,4.9018,4.9018,4.9018,4.9018,4.9018,4.9018,4.9018,4.9018,4.9018,4.9018,4.9018,4.9018,4.9018,4.9018,4.9018,4.9018,4.9018,4.9018,4.9018,4.9018,4.9018,4.9018,4.9018,4.9018,4.8917,4.8866,4.8173,4.709,4.621,4.5399,4.493,4.5505,4.5784,4.5839,4.5928,4.5904,4.5153,4.4386,4.3497,4.2393,4.0964,4.0053,3.9657,3.9388,3.9388,3.9388,3.9388,3.9388,3.9388,3.9388,3.9388,3.9388,3.899,3.8497,3.7928,3.733,3.6641,3.5893,3.5534,3.5504,3.5489,3.5489,3.5489,3.5489,3.54,3.5145,3.4487,3.3335,3.2662,3.2467,3.2138,3.1795,3.154,3.1496,3.1496,3.1496,3.0838,3.0133,2.922,2.8412,2.8098,2.7839,2.763,2.76,2.76,2.757,2.742,2.742,2.6991,2.6393,5.3873,5.3518,5.3518,5.3518,5.3518,5.3518,5.3518,5.3518,5.3518,5.3518,5.3518,5.3518,5.3518,5.3518,5.3501,5.2841,5.1995,5.1405,5.0524,4.9712,4.9323,4.912,4.9018,4.9018,4.9018,4.9018,4.9018,4.9018,4.9018,4.9018,4.9018,4.9018,4.9018,4.9018,4.9018,4.9018,4.9018,4.9018,4.9018,4.9018,4.9018,4.9018,4.9018,4.9018,4.9018,4.9018,4.9018,4.9018,4.9018,4.9018,4.8968,4.8139,4.7192,4.6481,4.5855,4.5635,4.6017,4.6743,4.6772,4.6912,4.7139,4.6277,4.5107,4.4149,4.3284,4.1923,4.0838,4.0382,3.9559,3.9403,3.9388,3.9388,3.9388,3.9388,3.9388,3.9388,3.9388,3.9209,3.8736,3.8197,3.7689,3.727,3.6582,3.6073,3.5938,3.5489,3.5489,3.5489,3.5489,3.5489,3.5235,3.4861,3.3844,3.317,3.3021,3.2572,3.1988,3.175,3.1555,3.1496,3.1436,3.0896,3.0208,2.9579,2.8981,2.8457,2.8173,2.7899,2.7645,2.76,2.7585,2.757,2.7585,2.7585,2.7106,5.3518,5.3518,5.3518,5.3518,5.3518,5.3518,5.3518,5.3518,5.3518,5.3518,5.3518,5.3518,5.3518,5.3518,5.345,5.2469,5.1725,5.1386,5.0371,4.9576,4.912,4.9035,4.9018,4.9018,4.9018,4.9018,4.9018,4.9018,4.9018,4.9018,4.9018,4.9018,4.9018,4.9018,4.9018,4.9018,4.9018,4.9018,4.9018,4.9018,4.9018,4.9018,4.9018,4.9018,4.9018,4.9018,4.9018,4.9018,4.9018,4.9018,4.8934,4.8071,4.7445,4.6836,4.6329,4.6109,4.6532,4.72,4.7575,4.7756,4.7703,4.7139,4.5885,4.4961,4.4211,4.3291,4.2239,4.1187,4.0356,3.9607,3.9592,3.9424,3.946,3.9388,3.9388,3.9388,3.9388,3.9373,3.896,3.8452,3.8093,3.7704,3.709,3.6582,3.6178,3.5714,3.5489,3.5489,3.5489,3.5489,3.5385,3.522,3.4726,3.4158,3.3709,3.2946,3.2287,3.1929,3.175,3.16,3.1463,3.1345,3.1011,3.0383,2.9756,2.9275,2.8584,2.8184,2.7944,2.769,2.7585,2.7585,2.7585,2.7585,2.7585,5.3518,5.3518,5.3518,5.3518,5.3518,5.3518,5.3518,5.3518,5.3518,5.3518,5.3518,5.3518,5.3518,5.3518,5.3518,5.2875,5.2029,5.1555,5.0811,4.9982,4.9407,4.9137,4.9035,4.9069,4.9018,4.9018,4.9018,4.9018,4.9018,4.9018,4.9018,4.9018,4.9018,4.9018,4.9018,4.9018,4.9018,4.9018,4.9018,4.9018,4.9018,4.9018,4.9018,4.9018,4.9018,4.9018,4.9018,4.9018,4.9018,4.9018,4.8934,4.8156,4.7597,4.7259,4.6904,4.6583,4.7022,4.7597,4.8006,4.8368,4.8303,4.7836,4.6934,4.6867,4.6124,4.5373,4.4231,4.302,4.198,4.0548,4.0203,3.9706,3.9538,3.946,3.9388,3.9388,3.9388,3.9313,3.911,3.8736,3.8422,3.7734,3.6881,3.6507,3.6267,3.5848,3.5504,3.5489,3.5489,3.5489,3.5489,3.54,3.528,3.4951,3.4382,3.3335,3.2632,3.2258,3.1884,3.1645,3.1682,3.2145,3.1781,3.093,3.0631,3.0285,2.9576,2.8592,2.8169,2.7914,2.7675,2.7585,2.7585,2.766,2.7735]}]]